[[{"header":{"parameterUnit":"m.s-1","parameterCategory":1,"la1":31.0,"la2":29.5877,"lo1":-88.7671,"lo2":-86.6584,"dy":0.0162,"dx":0.0185,"nx":115,"ny":88,"refTime":"2026-04-24T18:00:00:Z","depth":0,"parameterNumber":2,"parameterNumberName":"U-component_of_WINDS"},"data":[0.0,0.0,0.0,0.0,0.0,0.0,0.0,0.0,0.0,0.0,0.0,0.0,0.0,0.0,0.0,0.0,0.0,0.0,0.0,0.0,0.0,0.0,0.0,0.0,0.0,0.0,0.0,0.0,0.0,0.0,0.0,0.0,0.0,0.0,0.0,0.0,0.0,0.0,0.0,0.0,0.0,0.0,0.0,0.0,0.0,0.0,0.0,0.0,0.0,0.0,0.0,0.0,0.0,0.0,0.0,0.0,0.0,0.0,0.0,0.0,0.0,0.0,0.0,0.0,0.0,0.0,0.0,0.0,0.0,0.0,0.0,0.0,0.0,0.0,0.0,0.0,0.0,0.0,0.0,0.0,0.0,0.0,0.0,0.0,0.0,0.0,0.0,0.0,0.0,0.0,0.0,0.0,0.0,0.0,0.0,0.0,0.0,0.0,0.0,0.0,0.0,0.0,0.0,0.0,0.0,0.0,0.0,0.0,0.0,0.0,0.0,0.0,0.0,0.0,0.0,0.0,0.0,0.0,0.0,0.0,0.0,0.0,0.0,0.0,0.0,0.0,0.0,0.0,0.0,0.0,0.0,0.0,0.0,0.0,0.0,0.0,0.0,0.0,0.0,0.0,0.0,0.0,0.0,0.0,0.0,0.0,0.0,0.0,0.0,0.0,0.0,0.0,0.0,0.0,0.0,0.0,0.0,0.0,0.0,0.0,0.0,0.0,0.0,0.0,0.0,0.0,0.0,0.0,0.0,0.0,0.0,0.0,0.0,0.0,0.0,0.0,0.0,0.0,0.0,0.0,0.0,0.0,0.0,0.0,0.0,0.0,0.0,0.0,0.0,0.0,0.0,0.0,0.0,0.0,0.0,0.0,0.0,0.0,0.0,0.0,0.0,0.0,0.0,0.0,0.0,0.0,0.0,0.0,0.0,0.0,0.0,0.0,0.0,0.0,0.0,0.0,0.0,0.0,0.0,0.0,0.0,0.0,0.0,0.0,0.0,0.0,0.0,0.0,0.0,0.0,0.0,0.0,0.0,0.0,0.0,0.0,0.0,0.0,0.0,0.0,0.0,0.0,0.0,0.0,0.0,0.0,0.0,0.0,0.0,0.0,0.0,0.0,0.0,0.0,0.0,0.0,0.0,0.0,0.0,0.0,0.0,0.0,0.0,0.0,0.0,0.0,0.0,0.0,0.0,0.0,0.0,0.0,0.0,0.0,0.0,0.0,0.0,0.0,0.0,0.0,0.0,0.0,0.0,0.0,0.0,0.0,0.0,0.0,0.0,0.0,0.0,0.0,0.0,0.0,0.0,0.0,0.0,0.0,0.0,0.0,0.0,0.0,0.0,0.0,0.0,0.0,0.0,0.0,0.0,0.0,0.0,0.0,0.0,0.0,0.0,0.0,0.0,0.0,0.0,0.0,0.0,0.0,0.0,0.0,0.0,0.0,0.0,0.0,0.0,0.0,0.0,0.0,0.0,0.0,0.0,0.0,0.0,0.0,0.0,0.0,0.0,0.0,0.0,0.0,0.0,0.0,0.0,0.0,0.0,0.0,0.0,0.0,0.0,0.0,0.0,0.0,0.0,0.0,0.0,0.0,0.0,0.0,0.0,0.0,0.0,0.0,0.0,0.0,0.0,0.0,0.0,0.0,0.0,0.0,0.0,0.0,0.0,0.0,0.0,0.0,0.0,0.0,0.0,0.0,0.0,0.0,0.0,0.0,0.0,0.0,0.0,0.0,0.0,0.0,0.0,0.0,0.0,0.0,0.0,0.0,0.0,0.0,0.0,0.0,0.0,0.0,0.0,0.0,0.0,0.0,0.0,0.0,0.0,0.0,0.0,0.0,0.0,0.0,0.0,0.0,0.0,0.0,0.0,0.0,0.0,0.0,0.0,0.0,0.0,0.0,0.0,0.0,0.0,0.0,0.0,0.0,0.0,0.0,0.0,0.0,0.0,0.0,0.0,0.0,0.0,0.0,0.0,0.0,0.0,0.0,0.0,0.0,0.0,0.0,0.0,0.0,0.0,0.0,0.0,0.0,0.0,0.0,0.0,0.0,0.0,0.0,0.0,0.0,0.0,0.0,0.0,0.0,0.0,0.0,0.0,0.0,0.0,0.0,0.0,0.0,0.0,0.0,0.0,0.0,0.0,0.0,0.0,0.0,0.0,0.0,0.0,0.0,0.0,0.0,0.0,0.0,0.0,0.0,0.0,0.0,0.0,0.0,0.0,0.0,0.0,0.0,0.0,0.0,0.0,0.0,0.0,0.0,0.0,0.0,0.0,0.0,0.0,0.0,0.0,0.0,0.0,0.0,0.0,0.0,0.0,0.0,0.0,0.0,0.0,0.0,0.0,0.0,0.0,0.0,0.0,0.0,0.0,0.0,0.0,0.0,0.0,0.0,0.0,0.0,0.0,0.0,0.0,0.0,0.0,0.0,0.0,0.0,0.0,0.0,0.0,0.0,0.0,0.0,0.0,0.0,0.0,0.0,0.0,0.0,0.0,0.0,0.0,0.0,0.0,0.0,0.0,0.0,0.0,0.0,0.0,0.0,0.0,0.0,0.0,0.0,0.0,0.0,0.0,0.0,0.0,0.0,0.0,0.0,0.0,0.0,0.0,0.0,0.0,0.0,0.0,0.0,0.0,0.0,0.0,0.0,0.0,0.0,0.0,0.0,0.0,0.0,0.0,0.0,0.0,0.0,0.0,0.0,0.0,0.0,0.0,0.0,0.0,0.0,0.0,0.0,0.0,0.0,0.0,0.0,0.0,0.0,0.0,0.0,0.0,0.0,0.0,0.0,0.0,0.0,0.0,0.0,0.0,0.0,0.0,0.0,0.0,0.0,0.0,0.0,0.0,0.0,0.0,0.0,0.0,0.0,0.0,0.0,0.0,0.0,0.0,0.0,0.0,0.0,0.0,0.0,0.0,0.0,0.0,0.0,0.0,0.0,0.0,0.0,0.0,0.0,0.0,0.0,0.0,0.0,0.0,0.0,0.0,0.0,0.0,0.0,0.0,0.0,0.0,0.0,0.0,0.0,0.0,0.0,0.0,0.0,0.0,0.0,0.0,0.0,0.0,0.0,0.0,0.0,0.0,0.0,0.0,0.0,0.0,0.0,0.0,0.0,0.0,0.0,0.0,0.0,0.0,0.0,0.0,0.0,0.0,0.0,0.0,0.0,0.0,0.0,0.0,0.0,0.0,0.0,0.0,0.0,0.0,0.0,0.0,0.0,0.0,0.0,0.0,0.0,0.0,0.0,0.0,0.0,0.0,0.0,0.0,0.0,0.0,0.0,0.0,0.0,0.0,0.0,0.0,0.0,0.0,0.0,0.0,0.0,0.0,0.0,0.0,0.0,0.0,0.0,0.0,0.0,0.0,0.0,0.0,0.0,0.0,0.0,0.0,0.0,0.0,0.0,0.0,0.0,0.0,0.0,0.0,0.0,0.0,0.0,0.0,0.0,0.0,0.0,0.0,0.0,0.0,0.0,0.0,0.0,0.0,0.0,0.0,0.0,0.0,0.0,0.0,0.0,0.0,0.0,0.0,0.0,0.0,0.0,0.0,0.0,0.0,0.0,0.0,0.0,0.0,0.0,0.0,0.0,0.0,0.0,0.0,0.0,0.0,0.0,0.0,0.0,0.0,0.0,0.0,0.0,0.0,0.0,0.0,0.0,0.0,0.0,0.0,0.0,0.0,0.0,0.0,0.0,0.0,0.0,0.0,0.0,0.0,0.0,0.0,0.0,0.0,0.0,0.0,0.0,0.0,0.0,0.0,0.0,0.0,0.0,0.0,0.0,0.0,0.0,0.0,0.0,0.0,0.0,0.0,0.0,0.0,0.0,0.0,0.0,0.0,0.0,0.0,0.0,0.0,0.0,0.0,0.0,0.0,0.0,0.0,0.0,0.0,0.0,0.0,0.0,0.0,0.0,0.0,0.0,0.0,0.0,0.0,0.0,0.0,0.0,0.0,0.0,0.0,0.0,0.0,0.0,0.0,0.0,0.0,0.0,0.0,0.0,0.0,0.0,0.0,0.0,0.0,0.0,0.0,0.0,0.0,0.0,0.0,0.0,0.0,0.0,0.0,0.0,0.0,0.0,0.0,0.0,0.0,0.0,0.0,0.0,0.0,0.0,0.0,0.0,0.0,0.0,0.0,0.0,0.0,0.0,0.0,0.0,0.0,0.0,0.0,0.0,0.0,0.0,0.0,0.0,0.0,0.0,0.0,0.0,0.0,0.0,0.0,0.0,0.0,0.0,0.0,0.0,0.0,0.0,-4.4644,0.0,0.0,0.0,0.0,0.0,0.0,0.0,0.0,0.0,0.0,0.0,0.0,0.0,0.0,0.0,0.0,0.0,0.0,0.0,0.0,0.0,0.0,0.0,0.0,0.0,0.0,0.0,0.0,0.0,0.0,0.0,0.0,0.0,0.0,0.0,0.0,0.0,0.0,0.0,0.0,0.0,0.0,0.0,0.0,0.0,0.0,0.0,0.0,0.0,0.0,0.0,0.0,0.0,0.0,0.0,0.0,0.0,0.0,0.0,0.0,0.0,0.0,0.0,0.0,0.0,0.0,0.0,0.0,0.0,0.0,0.0,0.0,0.0,0.0,0.0,0.0,0.0,0.0,0.0,0.0,0.0,0.0,0.0,0.0,0.0,0.0,0.0,0.0,0.0,0.0,0.0,0.0,0.0,0.0,0.0,0.0,0.0,0.0,0.0,0.0,0.0,0.0,0.0,0.0,0.0,0.0,0.0,0.0,0.0,0.0,-4.7389,-4.7222,-4.6699,-4.6108,-4.5432,0.0,0.0,0.0,0.0,0.0,0.0,0.0,0.0,0.0,0.0,0.0,0.0,0.0,0.0,0.0,0.0,0.0,0.0,0.0,0.0,0.0,0.0,0.0,0.0,0.0,0.0,0.0,0.0,0.0,0.0,0.0,0.0,0.0,0.0,0.0,0.0,0.0,0.0,0.0,0.0,0.0,0.0,0.0,0.0,0.0,0.0,0.0,0.0,0.0,0.0,0.0,0.0,0.0,0.0,0.0,0.0,0.0,0.0,0.0,0.0,0.0,0.0,0.0,0.0,0.0,0.0,0.0,0.0,0.0,0.0,0.0,0.0,0.0,0.0,0.0,0.0,0.0,0.0,0.0,0.0,0.0,0.0,0.0,0.0,0.0,0.0,0.0,0.0,0.0,0.0,0.0,0.0,0.0,0.0,0.0,0.0,0.0,0.0,0.0,0.0,0.0,0.0,0.0,0.0,0.0,0.0,0.0,0.0,0.0,0.0,0.0,0.0,-4.7425,-4.675,-4.5754,0.0,0.0,0.0,0.0,0.0,0.0,0.0,0.0,0.0,0.0,0.0,0.0,0.0,0.0,0.0,0.0,0.0,0.0,0.0,0.0,0.0,0.0,0.0,0.0,0.0,0.0,0.0,0.0,0.0,0.0,0.0,0.0,0.0,0.0,0.0,0.0,0.0,0.0,0.0,0.0,0.0,0.0,0.0,0.0,0.0,0.0,0.0,0.0,0.0,0.0,0.0,0.0,0.0,0.0,0.0,0.0,0.0,0.0,0.0,0.0,0.0,0.0,0.0,0.0,0.0,0.0,0.0,0.0,0.0,0.0,0.0,0.0,0.0,0.0,0.0,0.0,0.0,0.0,0.0,0.0,0.0,0.0,0.0,0.0,0.0,0.0,0.0,0.0,0.0,0.0,0.0,0.0,0.0,0.0,0.0,0.0,0.0,0.0,0.0,0.0,0.0,0.0,0.0,0.0,0.0,0.0,0.0,0.0,0.0,0.0,-4.8982,-4.8862,-4.9033,0.0,-4.5406,0.0,0.0,0.0,0.0,0.0,0.0,0.0,0.0,0.0,0.0,0.0,0.0,0.0,0.0,0.0,0.0,0.0,0.0,0.0,0.0,0.0,0.0,0.0,0.0,0.0,0.0,0.0,0.0,0.0,0.0,0.0,0.0,0.0,0.0,0.0,0.0,0.0,0.0,0.0,0.0,0.0,0.0,0.0,0.0,0.0,0.0,0.0,0.0,0.0,0.0,0.0,0.0,0.0,0.0,0.0,0.0,0.0,0.0,0.0,0.0,0.0,0.0,0.0,0.0,0.0,0.0,0.0,0.0,0.0,0.0,0.0,0.0,0.0,0.0,0.0,0.0,0.0,0.0,0.0,0.0,0.0,0.0,0.0,0.0,0.0,0.0,0.0,0.0,0.0,0.0,0.0,0.0,0.0,0.0,0.0,0.0,0.0,0.0,0.0,0.0,0.0,0.0,0.0,0.0,0.0,0.0,0.0,0.0,0.0,0.0,-4.9634,-5.0049,-4.8757,-4.7177,0.0,0.0,0.0,0.0,0.0,0.0,0.0,0.0,0.0,0.0,0.0,0.0,0.0,0.0,0.0,0.0,0.0,0.0,0.0,0.0,0.0,0.0,0.0,0.0,0.0,0.0,0.0,0.0,0.0,0.0,0.0,0.0,0.0,0.0,0.0,0.0,0.0,0.0,0.0,0.0,0.0,0.0,0.0,0.0,0.0,0.0,0.0,0.0,0.0,0.0,0.0,0.0,0.0,0.0,0.0,0.0,0.0,0.0,0.0,0.0,0.0,0.0,0.0,0.0,0.0,0.0,0.0,0.0,0.0,0.0,0.0,0.0,0.0,0.0,0.0,0.0,0.0,0.0,0.0,0.0,0.0,0.0,0.0,0.0,0.0,0.0,0.0,0.0,0.0,0.0,0.0,0.0,0.0,0.0,0.0,0.0,0.0,0.0,0.0,0.0,0.0,0.0,0.0,0.0,0.0,0.0,0.0,0.0,0.0,0.0,-4.9482,-4.9886,-5.0343,-4.8288,-4.6539,-4.535,0.0,0.0,0.0,0.0,0.0,0.0,0.0,0.0,0.0,0.0,0.0,0.0,0.0,0.0,0.0,0.0,0.0,0.0,0.0,0.0,0.0,0.0,0.0,0.0,0.0,0.0,0.0,0.0,0.0,0.0,0.0,0.0,0.0,0.0,0.0,0.0,0.0,0.0,0.0,0.0,0.0,0.0,0.0,0.0,0.0,0.0,0.0,0.0,0.0,0.0,0.0,0.0,0.0,0.0,0.0,0.0,0.0,0.0,0.0,0.0,0.0,0.0,0.0,0.0,0.0,0.0,0.0,0.0,0.0,0.0,0.0,0.0,0.0,0.0,0.0,0.0,0.0,0.0,0.0,0.0,0.0,0.0,0.0,0.0,0.0,0.0,0.0,0.0,0.0,0.0,0.0,0.0,0.0,0.0,0.0,0.0,0.0,0.0,0.0,0.0,0.0,0.0,0.0,0.0,0.0,0.0,0.0,0.0,0.0,-4.9188,-4.961,-4.9629,-4.8012,-4.6521,0.0,0.0,0.0,0.0,0.0,0.0,0.0,0.0,0.0,0.0,0.0,0.0,0.0,0.0,0.0,0.0,0.0,0.0,0.0,0.0,0.0,0.0,0.0,0.0,0.0,0.0,0.0,0.0,0.0,0.0,0.0,0.0,0.0,0.0,0.0,0.0,0.0,0.0,0.0,0.0,0.0,0.0,0.0,0.0,0.0,0.0,0.0,0.0,0.0,0.0,0.0,0.0,0.0,0.0,0.0,0.0,0.0,0.0,0.0,0.0,0.0,0.0,0.0,0.0,0.0,0.0,0.0,0.0,0.0,0.0,0.0,0.0,0.0,0.0,0.0,0.0,0.0,0.0,0.0,0.0,0.0,0.0,0.0,0.0,0.0,0.0,0.0,0.0,0.0,0.0,0.0,0.0,0.0,0.0,0.0,0.0,0.0,0.0,0.0,0.0,0.0,0.0,0.0,0.0,0.0,0.0,0.0,0.0,0.0,-4.9132,-4.9939,-4.9848,-4.8783,-4.7681,-4.6046,0.0,0.0,0.0,0.0,0.0,0.0,0.0,0.0,0.0,0.0,0.0,0.0,0.0,0.0,0.0,0.0,0.0,0.0,0.0,0.0,0.0,0.0,0.0,0.0,0.0,0.0,0.0,0.0,0.0,0.0,0.0,0.0,0.0,0.0,0.0,0.0,0.0,0.0,0.0,0.0,0.0,0.0,0.0,0.0,0.0,0.0,0.0,0.0,0.0,0.0,0.0,0.0,0.0,0.0,0.0,0.0,0.0,0.0,0.0,0.0,0.0,0.0,0.0,0.0,0.0,0.0,0.0,0.0,0.0,0.0,0.0,0.0,0.0,0.0,0.0,0.0,0.0,0.0,0.0,0.0,0.0,0.0,0.0,0.0,0.0,0.0,0.0,0.0,0.0,0.0,0.0,0.0,0.0,0.0,0.0,0.0,0.0,0.0,0.0,0.0,0.0,0.0,0.0,0.0,0.0,0.0,0.0,0.0,0.0,-4.915,0.0,-4.9444,-4.8343,-4.7241,-4.5753,0.0,0.0,0.0,0.0,0.0,0.0,0.0,0.0,0.0,0.0,0.0,0.0,0.0,0.0,0.0,0.0,0.0,0.0,0.0,0.0,0.0,0.0,0.0,0.0,0.0,0.0,0.0,0.0,0.0,0.0,0.0,0.0,0.0,0.0,0.0,0.0,0.0,0.0,0.0,0.0,0.0,0.0,0.0,0.0,0.0,0.0,0.0,0.0,0.0,0.0,0.0,0.0,0.0,0.0,0.0,0.0,0.0,0.0,0.0,0.0,0.0,0.0,0.0,0.0,0.0,0.0,0.0,0.0,0.0,0.0,0.0,0.0,0.0,0.0,0.0,0.0,0.0,0.0,0.0,0.0,0.0,0.0,0.0,0.0,0.0,0.0,0.0,0.0,0.0,0.0,0.0,0.0,0.0,0.0,0.0,0.0,0.0,0.0,0.0,0.0,0.0,0.0,0.0,0.0,0.0,0.0,0.0,0.0,-4.8324,-4.8361,-4.8378,-4.8453,-4.8269,-4.6801,-4.5735,0.0,0.0,0.0,0.0,0.0,0.0,0.0,0.0,0.0,0.0,0.0,0.0,0.0,0.0,0.0,0.0,0.0,0.0,0.0,0.0,0.0,0.0,0.0,0.0,0.0,0.0,0.0,0.0,0.0,0.0,0.0,0.0,0.0,0.0,0.0,0.0,0.0,0.0,0.0,0.0,0.0,0.0,0.0,0.0,0.0,0.0,0.0,0.0,0.0,0.0,0.0,0.0,0.0,0.0,0.0,0.0,0.0,0.0,0.0,0.0,0.0,0.0,0.0,0.0,0.0,0.0,0.0,0.0,0.0,0.0,0.0,0.0,0.0,0.0,0.0,0.0,0.0,0.0,0.0,0.0,0.0,0.0,0.0,0.0,0.0,0.0,0.0,0.0,0.0,0.0,0.0,0.0,0.0,0.0,0.0,0.0,0.0,0.0,0.0,0.0,0.0,0.0,0.0,0.0,0.0,0.0,0.0,0.0,0.0,-4.9206,-4.9738,-4.9481,-4.8343,-4.7297,-4.5772,0.0,0.0,0.0,0.0,0.0,0.0,0.0,0.0,0.0,0.0,0.0,0.0,0.0,0.0,0.0,0.0,0.0,0.0,0.0,0.0,0.0,0.0,0.0,0.0,0.0,0.0,0.0,0.0,0.0,0.0,0.0,0.0,0.0,0.0,0.0,0.0,0.0,0.0,0.0,0.0,0.0,0.0,0.0,0.0,0.0,0.0,0.0,0.0,0.0,0.0,0.0,0.0,0.0,0.0,0.0,0.0,0.0,0.0,0.0,0.0,0.0,0.0,0.0,0.0,0.0,0.0,0.0,0.0,0.0,0.0,0.0,0.0,0.0,0.0,0.0,0.0,0.0,0.0,0.0,0.0,0.0,0.0,0.0,0.0,0.0,0.0,0.0,0.0,0.0,0.0,0.0,0.0,0.0,0.0,0.0,0.0,0.0,0.0,0.0,0.0,0.0,0.0,0.0,0.0,0.0,0.0,0.0,0.0,0.0,-5.0152,-5.0605,-5.016,-4.882,-4.7681,-4.6064,-4.388,0.0,0.0,0.0,0.0,0.0,0.0,0.0,0.0,0.0,0.0,0.0,0.0,0.0,0.0,0.0,0.0,0.0,0.0,0.0,0.0,0.0,0.0,0.0,0.0,0.0,0.0,0.0,0.0,0.0,0.0,0.0,0.0,0.0,0.0,0.0,0.0,0.0,0.0,0.0,0.0,0.0,0.0,0.0,0.0,0.0,0.0,0.0,0.0,0.0,0.0,0.0,0.0,0.0,0.0,0.0,0.0,0.0,0.0,0.0,0.0,0.0,0.0,0.0,0.0,0.0,0.0,0.0,0.0,0.0,0.0,0.0,0.0,0.0,0.0,0.0,0.0,0.0,0.0,0.0,0.0,0.0,0.0,0.0,0.0,0.0,0.0,0.0,0.0,0.0,0.0,0.0,0.0,0.0,0.0,0.0,0.0,0.0,0.0,0.0,0.0,0.0,0.0,0.0,0.0,0.0,0.0,0.0,0.0,-5.1195,-5.1072,-5.06,-4.9684,-4.8104,-4.6612,0.0,0.0,0.0,0.0,0.0,0.0,0.0,0.0,0.0,0.0,0.0,0.0,0.0,0.0,0.0,0.0,0.0,0.0,0.0,0.0,0.0,0.0,0.0,0.0,0.0,0.0,0.0,0.0,0.0,0.0,0.0,0.0,0.0,0.0,0.0,0.0,0.0,0.0,0.0,0.0,0.0,0.0,0.0,0.0,0.0,0.0,0.0,0.0,0.0,0.0,0.0,0.0,0.0,0.0,0.0,0.0,0.0,0.0,0.0,0.0,0.0,0.0,0.0,0.0,0.0,0.0,0.0,0.0,0.0,0.0,0.0,0.0,0.0,0.0,0.0,0.0,0.0,0.0,0.0,0.0,0.0,0.0,0.0,0.0,0.0,0.0,0.0,0.0,0.0,0.0,0.0,0.0,0.0,0.0,0.0,0.0,0.0,0.0,0.0,0.0,0.0,0.0,0.0,0.0,0.0,0.0,0.0,0.0,0.0,-5.1269,-5.2694,-5.2491,-5.0545,-4.9444,-4.7747,0.0,0.0,0.0,0.0,0.0,0.0,0.0,0.0,0.0,0.0,0.0,0.0,0.0,0.0,0.0,0.0,0.0,0.0,0.0,0.0,0.0,0.0,0.0,0.0,0.0,0.0,0.0,0.0,0.0,0.0,0.0,0.0,0.0,0.0,0.0,0.0,0.0,0.0,0.0,0.0,0.0,0.0,0.0,0.0,0.0,0.0,0.0,0.0,0.0,0.0,0.0,0.0,0.0,0.0,0.0,0.0,0.0,0.0,0.0,0.0,0.0,0.0,0.0,0.0,0.0,0.0,0.0,0.0,0.0,0.0,0.0,0.0,0.0,0.0,0.0,0.0,0.0,0.0,0.0,0.0,0.0,0.0,0.0,0.0,0.0,0.0,0.0,0.0,0.0,0.0,0.0,0.0,0.0,0.0,0.0,0.0,0.0,0.0,0.0,0.0,0.0,0.0,0.0,0.0,0.0,0.0,0.0,0.0,-5.0829,-5.1396,-5.3695,-5.3757,-5.1371,-5.049,-4.8881,0.0,0.0,0.0,0.0,0.0,0.0,0.0,0.0,0.0,0.0,0.0,0.0,0.0,0.0,0.0,0.0,0.0,0.0,0.0,0.0,0.0,0.0,0.0,0.0,0.0,0.0,0.0,0.0,0.0,0.0,0.0,0.0,0.0,0.0,0.0,0.0,0.0,0.0,0.0,0.0,0.0,0.0,0.0,0.0,0.0,0.0,0.0,0.0,0.0,0.0,0.0,0.0,0.0,0.0,0.0,0.0,0.0,0.0,0.0,0.0,0.0,0.0,0.0,0.0,0.0,0.0,0.0,0.0,0.0,0.0,0.0,0.0,0.0,0.0,0.0,0.0,0.0,0.0,0.0,0.0,0.0,0.0,0.0,0.0,0.0,0.0,0.0,0.0,0.0,0.0,0.0,0.0,0.0,0.0,0.0,0.0,0.0,0.0,0.0,0.0,0.0,0.0,0.0,0.0,0.0,0.0,0.0,0.0,-5.1051,-5.1612,-5.4144,-5.4381,-5.2236,-5.1353,-4.9923,0.0,0.0,0.0,0.0,0.0,0.0,0.0,0.0,0.0,0.0,0.0,0.0,0.0,0.0,0.0,0.0,0.0,0.0,0.0,0.0,0.0,0.0,0.0,0.0,0.0,0.0,0.0,0.0,0.0,0.0,0.0,0.0,0.0,0.0,0.0,0.0,0.0,0.0,0.0,0.0,0.0,0.0,0.0,0.0,0.0,0.0,0.0,0.0,0.0,0.0,0.0,0.0,0.0,0.0,0.0,0.0,0.0,0.0,0.0,0.0,0.0,0.0,0.0,0.0,0.0,0.0,0.0,0.0,0.0,0.0,0.0,0.0,0.0,0.0,0.0,0.0,0.0,0.0,0.0,0.0,0.0,0.0,0.0,0.0,0.0,0.0,0.0,0.0,0.0,0.0,0.0,0.0,0.0,0.0,0.0,0.0,0.0,0.0,0.0,0.0,0.0,0.0,0.0,0.0,0.0,0.0,0.0,0.0,-5.1746,-5.2308,-5.384,-5.4106,-5.2986,-5.216,-5.0472,0.0,0.0,0.0,0.0,0.0,0.0,0.0,0.0,0.0,0.0,0.0,0.0,0.0,0.0,0.0,0.0,0.0,0.0,0.0,0.0,0.0,0.0,0.0,0.0,0.0,0.0,0.0,0.0,0.0,0.0,0.0,0.0,0.0,0.0,0.0,0.0,0.0,0.0,0.0,0.0,0.0,0.0,0.0,0.0,0.0,0.0,0.0,0.0,-4.7633,0.0,0.0,0.0,0.0,0.0,0.0,0.0,0.0,0.0,0.0,0.0,0.0,0.0,0.0,0.0,0.0,0.0,0.0,0.0,0.0,0.0,0.0,0.0,0.0,0.0,0.0,0.0,0.0,0.0,0.0,0.0,0.0,0.0,0.0,0.0,0.0,0.0,0.0,0.0,0.0,0.0,0.0,0.0,0.0,0.0,0.0,0.0,0.0,0.0,0.0,0.0,0.0,0.0,0.0,0.0,0.0,0.0,0.0,0.0,-5.1801,-5.2456,-5.3725,-5.4014,-5.3222,-5.2784,-5.1407,0.0,0.0,0.0,0.0,0.0,0.0,0.0,0.0,0.0,0.0,0.0,0.0,0.0,0.0,0.0,0.0,0.0,0.0,0.0,0.0,0.0,0.0,0.0,0.0,0.0,0.0,0.0,0.0,0.0,0.0,0.0,0.0,0.0,0.0,0.0,0.0,0.0,0.0,0.0,0.0,0.0,0.0,0.0,0.0,0.0,0.0,0.0,0.0,0.0,0.0,0.0,0.0,0.0,0.0,0.0,0.0,0.0,0.0,0.0,0.0,0.0,0.0,0.0,0.0,0.0,0.0,0.0,0.0,0.0,0.0,0.0,0.0,0.0,0.0,0.0,0.0,0.0,0.0,0.0,0.0,0.0,0.0,0.0,0.0,0.0,0.0,0.0,0.0,0.0,0.0,0.0,0.0,0.0,0.0,0.0,0.0,0.0,0.0,0.0,0.0,0.0,0.0,0.0,0.0,0.0,0.0,0.0,-5.1305,-5.1825,-5.2544,-5.3647,-5.3904,-5.3222,-5.3096,-5.216,-5.0365,0.0,0.0,0.0,0.0,0.0,0.0,0.0,0.0,0.0,0.0,0.0,0.0,0.0,0.0,0.0,0.0,0.0,0.0,0.0,0.0,0.0,0.0,0.0,0.0,0.0,0.0,0.0,0.0,0.0,0.0,0.0,0.0,0.0,0.0,0.0,0.0,0.0,0.0,-4.471,-4.6397,0.0,0.0,0.0,0.0,0.0,0.0,0.0,0.0,-4.7223,0.0,0.0,0.0,0.0,0.0,0.0,0.0,0.0,0.0,0.0,0.0,0.0,0.0,0.0,0.0,0.0,0.0,0.0,0.0,0.0,0.0,0.0,0.0,0.0,0.0,0.0,0.0,0.0,0.0,0.0,0.0,0.0,0.0,0.0,0.0,0.0,0.0,0.0,0.0,0.0,0.0,0.0,0.0,0.0,0.0,0.0,0.0,0.0,0.0,0.0,0.0,0.0,0.0,0.0,0.0,0.0,-5.1486,-5.1973,-5.2506,-5.314,-5.3306,-5.3332,-5.3167,-5.2546,-5.1635,-5.0362,0.0,0.0,0.0,0.0,0.0,0.0,0.0,0.0,0.0,0.0,0.0,0.0,0.0,0.0,0.0,0.0,0.0,0.0,0.0,0.0,0.0,0.0,0.0,0.0,0.0,0.0,0.0,0.0,0.0,0.0,0.0,0.0,0.0,0.0,0.0,0.0,0.0,0.0,0.0,-4.77,-4.8948,0.0,0.0,0.0,0.0,0.0,0.0,0.0,0.0,-4.6195,0.0,0.0,0.0,0.0,0.0,0.0,0.0,0.0,0.0,0.0,0.0,0.0,0.0,0.0,0.0,0.0,0.0,0.0,0.0,0.0,0.0,0.0,0.0,0.0,0.0,0.0,0.0,0.0,0.0,0.0,0.0,0.0,0.0,0.0,0.0,0.0,0.0,0.0,0.0,0.0,0.0,0.0,0.0,0.0,0.0,0.0,0.0,0.0,0.0,0.0,0.0,0.0,0.0,0.0,0.0,-5.1304,-5.1914,-5.2547,-5.3214,-5.3227,-5.2983,-5.2582,-5.1793,-5.0684,0.0,0.0,0.0,0.0,0.0,0.0,0.0,0.0,0.0,0.0,0.0,0.0,0.0,0.0,0.0,0.0,0.0,0.0,0.0,0.0,0.0,0.0,0.0,0.0,0.0,0.0,0.0,0.0,0.0,0.0,0.0,0.0,0.0,0.0,0.0,0.0,0.0,0.0,0.0,0.0,-4.7664,-4.8765,-4.8361,0.0,0.0,0.0,0.0,0.0,0.0,-4.6397,-4.5755,0.0,0.0,0.0,0.0,0.0,0.0,0.0,0.0,0.0,0.0,0.0,0.0,0.0,0.0,0.0,0.0,0.0,0.0,0.0,0.0,0.0,0.0,0.0,0.0,0.0,0.0,0.0,0.0,0.0,0.0,0.0,0.0,0.0,0.0,0.0,0.0,0.0,0.0,0.0,0.0,0.0,0.0,0.0,0.0,0.0,0.0,0.0,0.0,0.0,0.0,0.0,0.0,0.0,0.0,0.0,-5.1063,-5.188,-5.2546,-5.3148,-5.3185,-5.2821,-5.2013,-5.1224,-4.9913,0.0,0.0,0.0,0.0,0.0,0.0,0.0,0.0,0.0,0.0,0.0,0.0,0.0,0.0,0.0,0.0,0.0,0.0,0.0,0.0,0.0,0.0,0.0,0.0,0.0,0.0,0.0,0.0,0.0,0.0,0.0,0.0,0.0,0.0,0.0,0.0,0.0,0.0,0.0,0.0,0.0,-4.8489,-4.8324,-4.7755,0.0,0.0,0.0,0.0,-4.6361,-4.625,0.0,0.0,0.0,0.0,0.0,0.0,0.0,0.0,0.0,0.0,0.0,0.0,0.0,0.0,0.0,0.0,0.0,0.0,0.0,0.0,0.0,0.0,0.0,0.0,0.0,0.0,0.0,0.0,0.0,0.0,0.0,0.0,0.0,0.0,0.0,0.0,0.0,0.0,0.0,0.0,0.0,0.0,0.0,0.0,0.0,0.0,0.0,0.0,0.0,0.0,0.0,0.0,0.0,0.0,0.0,0.0,-5.0926,-5.2348,-5.3115,-5.3185,-5.3185,-5.2821,-5.2034,-5.1224,-4.9891,0.0,0.0,0.0,0.0,0.0,0.0,0.0,0.0,0.0,0.0,0.0,0.0,0.0,0.0,0.0,0.0,0.0,0.0,0.0,0.0,0.0,0.0,0.0,0.0,0.0,0.0,0.0,0.0,0.0,0.0,0.0,0.0,0.0,0.0,0.0,0.0,0.0,0.0,0.0,0.0,0.0,-4.9188,-4.8398,-4.8233,-4.814,0.0,0.0,-4.7204,-4.7921,-4.7443,0.0,0.0,0.0,0.0,0.0,0.0,0.0,0.0,0.0,0.0,0.0,0.0,0.0,0.0,0.0,0.0,0.0,0.0,0.0,0.0,0.0,0.0,0.0,0.0,0.0,0.0,0.0,0.0,0.0,0.0,0.0,0.0,0.0,0.0,0.0,0.0,0.0,0.0,0.0,0.0,0.0,0.0,0.0,0.0,0.0,0.0,0.0,0.0,0.0,0.0,0.0,0.0,0.0,0.0,0.0,-4.8788,-5.0789,-5.1961,-5.2747,-5.317,-5.2747,-5.2123,-5.1353,-5.005,-4.8462,0.0,0.0,0.0,0.0,0.0,0.0,0.0,0.0,0.0,0.0,0.0,0.0,0.0,0.0,0.0,0.0,0.0,0.0,0.0,0.0,0.0,0.0,0.0,0.0,0.0,0.0,0.0,0.0,0.0,0.0,0.0,0.0,0.0,0.0,0.0,0.0,0.0,0.0,0.0,0.0,0.0,0.0,-4.8416,-4.871,0.0,0.0,0.0,-4.7921,-4.8269,0.0,0.0,0.0,0.0,0.0,0.0,0.0,0.0,0.0,0.0,0.0,0.0,0.0,0.0,0.0,0.0,0.0,0.0,0.0,0.0,0.0,0.0,0.0,0.0,0.0,0.0,0.0,0.0,0.0,0.0,0.0,0.0,0.0,0.0,0.0,0.0,0.0,0.0,0.0,0.0,0.0,0.0,0.0,0.0,0.0,0.0,0.0,0.0,0.0,0.0,0.0,0.0,0.0,0.0,0.0,0.0,0.0,-5.0141,-5.1187,-5.1995,-5.2543,-5.2013,-5.1295,-5.0468,-4.92,0.0,0.0,0.0,0.0,0.0,0.0,0.0,0.0,0.0,0.0,0.0,0.0,0.0,0.0,0.0,0.0,0.0,0.0,0.0,0.0,0.0,0.0,0.0,0.0,0.0,0.0,0.0,-3.7073,0.0,0.0,0.0,0.0,0.0,0.0,0.0,0.0,0.0,0.0,0.0,0.0,0.0,0.0,-4.8985,-4.8379,-4.9022,-4.9298,0.0,0.0,-4.8545,-4.8343,-4.8489,-4.8196,0.0,0.0,0.0,0.0,0.0,0.0,0.0,0.0,0.0,0.0,0.0,0.0,0.0,0.0,0.0,0.0,0.0,0.0,0.0,0.0,0.0,0.0,0.0,0.0,0.0,0.0,0.0,0.0,0.0,0.0,0.0,0.0,0.0,0.0,0.0,0.0,0.0,0.0,0.0,0.0,0.0,0.0,0.0,0.0,0.0,0.0,0.0,0.0,0.0,0.0,0.0,0.0,0.0,0.0,-4.7535,-4.8471,-5.0068,-5.0912,-5.0967,-5.0912,-5.043,-4.9523,-4.9257,-4.7767,0.0,0.0,0.0,0.0,0.0,0.0,0.0,0.0,0.0,0.0,0.0,0.0,0.0,0.0,0.0,0.0,0.0,0.0,0.0,0.0,0.0,0.0,0.0,0.0,0.0,0.0,0.0,0.0,0.0,0.0,0.0,0.0,0.0,0.0,0.0,0.0,0.0,0.0,0.0,0.0,0.0,-4.8361,-4.8324,-4.904,-4.9298,0.0,-4.8985,-4.9224,-4.8434,-4.8985,-4.8711,-4.6361,0.0,0.0,0.0,0.0,0.0,0.0,0.0,0.0,0.0,0.0,0.0,0.0,0.0,0.0,0.0,0.0,0.0,0.0,0.0,0.0,0.0,0.0,0.0,0.0,0.0,0.0,0.0,0.0,0.0,0.0,0.0,0.0,0.0,0.0,0.0,0.0,0.0,0.0,0.0,0.0,0.0,0.0,0.0,0.0,0.0,0.0,0.0,0.0,0.0,0.0,0.0,0.0,0.0,-4.6507,-4.8288,-4.9444,-5.0306,-5.0765,-5.0306,-4.9823,-4.9293,-4.8068,-4.6522,0.0,0.0,0.0,0.0,0.0,0.0,0.0,0.0,0.0,0.0,0.0,0.0,0.0,0.0,0.0,0.0,0.0,0.0,0.0,0.0,0.0,0.0,0.0,0.0,0.0,0.0,0.0,0.0,-3.9537,-4.0452,-4.1719,0.0,0.0,0.0,0.0,0.0,0.0,0.0,0.0,0.0,0.0,-4.9077,-4.9095,-4.9793,0.0,0.0,-5.0123,-5.005,-4.9224,-4.939,-4.8912,-4.6966,-4.5571,0.0,0.0,0.0,0.0,0.0,0.0,0.0,0.0,0.0,0.0,0.0,0.0,0.0,0.0,0.0,0.0,0.0,0.0,0.0,0.0,0.0,0.0,0.0,0.0,0.0,0.0,0.0,0.0,0.0,0.0,0.0,0.0,0.0,0.0,0.0,0.0,0.0,0.0,0.0,0.0,0.0,0.0,0.0,0.0,0.0,0.0,0.0,0.0,0.0,0.0,0.0,0.0,-4.5627,-4.7553,-4.8655,-4.9479,-5.0028,-4.942,-4.8969,-4.8608,-4.6991,-4.5473,0.0,0.0,0.0,0.0,0.0,0.0,0.0,0.0,0.0,0.0,0.0,0.0,0.0,0.0,0.0,0.0,0.0,0.0,0.0,0.0,0.0,0.0,0.0,0.0,0.0,0.0,0.0,0.0,-4.0818,-4.1614,-4.2231,0.0,0.0,0.0,0.0,0.0,0.0,0.0,0.0,0.0,0.0,-4.9187,-4.9205,-4.9921,-5.0343,-5.0105,-5.049,-5.0435,-4.939,-4.9427,-4.9023,-4.7369,0.0,0.0,0.0,0.0,0.0,0.0,0.0,0.0,0.0,0.0,0.0,0.0,0.0,0.0,0.0,0.0,0.0,0.0,0.0,0.0,0.0,0.0,0.0,0.0,0.0,0.0,0.0,-5.0099,0.0,0.0,-4.9508,0.0,0.0,0.0,0.0,0.0,0.0,0.0,0.0,0.0,0.0,0.0,0.0,0.0,0.0,0.0,0.0,0.0,0.0,0.0,0.0,0.0,0.0,-4.5094,-4.5957,-4.7535,-4.8303,-4.8279,-4.8107,-4.7827,-4.7341,-4.6208,-4.4921,-4.3474,0.0,0.0,0.0,0.0,0.0,0.0,0.0,0.0,0.0,0.0,0.0,0.0,0.0,0.0,0.0,0.0,0.0,0.0,0.0,0.0,0.0,0.0,0.0,0.0,0.0,0.0,-4.1062,-4.1792,-4.2286,0.0,0.0,0.0,0.0,0.0,0.0,0.0,0.0,0.0,-4.7199,-4.7923,-4.8343,-4.8379,-4.9077,-4.939,-4.8563,-4.9774,-5.0233,-4.8636,-4.9022,-4.9041,0.0,0.0,0.0,0.0,0.0,0.0,0.0,0.0,0.0,0.0,0.0,0.0,0.0,0.0,0.0,0.0,0.0,0.0,0.0,0.0,0.0,0.0,0.0,0.0,0.0,0.0,0.0,-5.2387,-5.1923,0.0,0.0,0.0,0.0,0.0,0.0,0.0,0.0,0.0,0.0,0.0,-4.7846,-4.7058,0.0,0.0,0.0,0.0,0.0,0.0,0.0,0.0,0.0,0.0,0.0,0.0,-4.403,-4.5847,-4.6947,-4.7678,-4.8034,-4.7284,-4.6645,-4.6168,-4.4324,-4.223,-3.9833,0.0,0.0,0.0,0.0,0.0,0.0,0.0,0.0,0.0,0.0,0.0,0.0,0.0,0.0,0.0,0.0,0.0,0.0,0.0,0.0,0.0,0.0,0.0,0.0,0.0,-4.2554,0.0,0.0,0.0,0.0,0.0,0.0,0.0,0.0,0.0,0.0,0.0,-4.638,-4.7344,-4.8458,-4.917,-4.915,-4.9408,-4.9684,0.0,0.0,0.0,0.0,0.0,0.0,0.0,0.0,0.0,0.0,0.0,0.0,0.0,0.0,-4.6687,-4.6301,-4.5711,-4.5422,-4.5986,0.0,0.0,0.0,0.0,0.0,0.0,0.0,0.0,0.0,0.0,0.0,0.0,0.0,0.0,-5.3089,0.0,-5.2039,0.0,0.0,0.0,0.0,0.0,0.0,0.0,0.0,-4.9528,-4.9297,-4.871,-4.7901,-4.761,0.0,-4.705,-4.6357,0.0,0.0,0.0,0.0,0.0,0.0,0.0,0.0,-4.3626,-4.5424,-4.6269,-4.6816,-4.7077,-4.6228,-4.552,-4.4971,-4.299,-4.0786,-3.8386,-3.8041,-3.733,0.0,0.0,0.0,0.0,0.0,0.0,0.0,0.0,0.0,0.0,0.0,0.0,0.0,0.0,0.0,0.0,0.0,0.0,0.0,0.0,0.0,0.0,0.0,-4.3152,0.0,0.0,0.0,0.0,0.0,0.0,0.0,0.0,0.0,-4.557,-4.6308,-4.704,-4.7755,-4.8586,-4.9151,-4.9151,0.0,0.0,0.0,0.0,0.0,0.0,0.0,-4.7186,-4.748,-4.6195,-4.5461,-4.6469,-4.6682,-4.6625,-4.6342,0.0,0.0,-4.6714,-4.6267,-4.6065,-4.684,-4.5402,-4.4225,-4.4789,-4.4738,-4.4431,0.0,0.0,0.0,0.0,0.0,0.0,0.0,0.0,-5.3299,-5.3337,0.0,-5.2365,0.0,0.0,0.0,0.0,0.0,-5.0217,0.0,0.0,-4.9806,-4.9593,-4.9501,-4.8712,-4.8402,-4.8531,-4.798,-4.7341,-4.6709,-4.5956,0.0,0.0,0.0,0.0,0.0,0.0,-4.3883,-4.4727,-4.548,-4.5736,-4.5503,-4.4955,-4.4373,-4.3734,-4.2221,-4.0612,-3.908,-3.8311,-3.7601,-3.6863,-3.6079,0.0,0.0,0.0,0.0,0.0,0.0,0.0,0.0,0.0,0.0,0.0,0.0,0.0,0.0,0.0,0.0,0.0,0.0,0.0,0.0,-4.2323,0.0,0.0,0.0,0.0,0.0,0.0,0.0,0.0,0.0,0.0,-4.6114,-4.6941,-4.7736,-4.8403,0.0,0.0,0.0,0.0,-4.8324,-4.8343,-4.9022,-4.928,-4.8434,-4.7609,-4.7314,-4.8104,0.0,0.0,-4.7665,-4.7442,-4.6868,-4.6213,-4.5963,-4.6169,-4.7303,-4.7248,-4.7208,-4.7424,-4.6632,-4.5968,-4.5519,-4.4785,-4.4407,-5.7049,0.0,0.0,0.0,0.0,-5.5088,-5.4972,-5.4991,-5.4972,-5.4991,-5.4895,-5.3453,0.0,0.0,0.0,0.0,0.0,0.0,-5.0485,-4.9753,-4.9889,-4.9658,-4.9102,-4.8843,-4.854,-4.818,-4.8094,-4.7406,-4.6172,-4.5937,-4.5209,-4.4037,0.0,0.0,0.0,0.0,-4.3332,-4.4635,-4.4929,-4.5132,-4.535,-4.4112,-4.2743,-4.1224,-4.0738,-3.9985,-3.9063,-3.8802,-3.8345,-3.7618,-3.6857,0.0,0.0,0.0,0.0,0.0,0.0,0.0,0.0,0.0,0.0,0.0,0.0,0.0,0.0,0.0,0.0,0.0,0.0,0.0,-4.3094,-4.3166,-4.3258,0.0,0.0,0.0,0.0,0.0,0.0,0.0,0.0,0.0,-4.6728,-4.7059,-4.75,0.0,0.0,-4.8324,-4.8324,-4.8324,-4.8324,-4.8324,-4.8508,0.0,-4.8343,-4.715,-4.6526,-4.7314,-4.6944,-4.6586,-4.6687,-4.6761,-4.6566,-4.58,-4.5674,-4.5615,-4.5424,-4.6274,-4.6836,-4.6607,-4.5783,-4.4958,-4.4483,-4.367,-4.2966,-5.7058,-5.5776,-5.5724,-5.5684,-5.5684,-5.5684,-5.5684,-5.5684,-5.5684,-5.5684,-5.5607,-5.4299,-5.3049,-5.1827,-5.0683,0.0,0.0,0.0,-5.0291,-4.9655,-4.98,-4.9604,-4.9134,-4.8781,-4.8481,-4.8171,-4.7664,-4.6951,-4.6025,-4.5581,-4.5052,-4.4355,0.0,0.0,-4.3747,-4.3103,-4.3223,-4.4142,-4.4125,-4.4126,-4.4117,-4.2831,-4.1476,-4.0163,-4.0113,-3.9893,-3.9453,-3.914,-3.8785,-3.8345,-3.7635,-3.71,0.0,0.0,0.0,0.0,0.0,0.0,0.0,0.0,0.0,0.0,0.0,-3.9067,-3.9332,0.0,0.0,0.0,-4.1676,-4.2602,-4.3424,-4.3204,0.0,0.0,0.0,0.0,0.0,0.0,0.0,-4.4617,-4.5131,-4.5736,-4.6507,-4.6636,-4.7021,-4.8159,-4.8031,-4.7828,-4.7829,0.0,-4.7352,-4.7352,-4.7352,-4.7333,-4.7295,-4.6195,-4.5462,-4.5843,-4.5957,-4.5879,-4.5551,-4.5462,-4.5203,-4.4661,-4.4483,-4.4337,-4.3896,-4.4655,-4.5242,-4.5092,-4.4825,-4.4363,-4.3527,-4.2313,-4.1557,-5.6724,-5.6001,-5.5796,-5.5724,-5.5684,-5.5684,-5.5684,-5.5684,-5.5684,-5.5684,-5.5626,-5.4761,-5.3433,-5.1712,-5.0202,0.0,-4.9339,-4.9882,-5.0062,-4.9904,-4.9594,-4.9457,-4.94,-4.8537,-4.8191,-4.8319,-4.6956,-4.6268,-4.6061,-4.5098,-4.4465,-4.421,-4.3989,-4.3767,-4.3617,-4.3513,-4.3463,-4.3394,-4.3233,-4.2882,-4.2297,-4.1298,-4.058,-4.0138,-4.0113,-4.0113,-4.0079,-3.9445,-3.9073,-3.9039,-3.8396,-3.7669,-3.7015,0.0,0.0,0.0,0.0,0.0,0.0,0.0,0.0,0.0,0.0,0.0,0.0,0.0,0.0,-4.104,-4.1827,0.0,-4.3423,-4.2837,0.0,0.0,0.0,-4.269,-4.3441,-4.3479,-4.3809,-4.4617,0.0,0.0,-4.5792,-4.5902,-4.6452,-4.7921,-4.748,-4.7003,-4.7003,-4.6416,-4.5902,-4.5993,-4.5938,-4.5902,-4.5919,-4.5057,-4.4267,-4.4037,-4.4317,-4.4528,-4.4267,-4.3898,-4.3367,-4.3013,-4.2817,-4.2766,-4.2774,-4.2826,-4.2775,-4.3022,-4.361,-4.3752,-4.2539,-4.1204,-4.0618,-5.7172,-5.6833,-5.6135,-5.5798,-5.5684,-5.5684,-5.5684,-5.5684,-5.5684,-5.5684,-5.5588,-5.4164,-5.2587,-5.0952,-5.0577,-5.0346,-5.0265,-5.032,-5.0275,-5.0142,-4.9347,-4.8979,-4.8922,-4.8093,-4.7433,-4.698,-4.6669,-4.6143,-4.5441,-4.4865,-4.4465,-4.4192,-4.3795,-4.3565,-4.3532,-4.3515,-4.341,-4.3232,-4.2957,-4.2322,-4.1308,-4.0879,-4.0483,-4.0096,-4.0113,-4.0113,-4.0096,-3.9943,-3.9842,-3.9825,-3.9123,-3.865,-3.8505,-3.7591,0.0,0.0,0.0,0.0,0.0,0.0,0.0,0.0,0.0,-3.9042,-3.9845,0.0,-4.023,0.0,-4.1846,-4.2616,-4.3441,-4.3314,0.0,0.0,-4.3331,-4.3277,-4.3478,-4.3479,-4.3808,-4.4617,-4.4709,-4.5021,-4.581,-4.5902,-4.603,-4.6416,-4.6305,-4.6195,-4.6177,-4.6049,-4.5902,-4.5865,-4.5828,-4.5847,-4.555,-4.4603,-4.3468,-4.2495,-4.2827,-4.307,-4.2707,-4.2878,-4.291,-4.2533,-4.2436,-4.2215,-4.1724,-4.1732,-4.1597,-4.1052,-4.1044,-4.1348,-4.1645,-4.0862,-4.021,-5.688,-5.6721,-5.623,-5.5735,-5.5239,-5.5187,-5.4953,-5.4587,-5.4587,-5.4587,-5.4491,-5.3203,-5.2125,-5.1221,-5.0856,-5.0692,-5.0633,-5.0563,-5.031,-4.9884,-4.9321,-4.8868,-4.8455,-4.7633,-4.7033,-4.6674,-4.632,-4.5839,-4.5243,-4.4807,-4.4465,-4.4192,-4.373,-4.3479,-4.3479,-4.3479,-4.3393,-4.316,-4.2176,-4.123,-4.0302,-3.9763,-3.9382,-3.9131,-3.9123,-3.9106,-3.9123,-3.9436,-3.9622,-3.9622,-3.9537,-3.9351,-3.9005,-3.8125,-3.7369,0.0,0.0,0.0,0.0,0.0,0.0,0.0,0.0,0.0,0.0,0.0,-4.1295,-4.2103,-4.258,-4.302,-4.346,-4.3479,-4.3479,-4.3479,-4.3479,-4.3479,-4.3479,-4.3479,-4.3663,-4.4121,-4.4176,-4.4323,-4.4782,-4.4819,-4.4819,-4.4819,-4.4819,-4.4947,-4.5241,-4.5076,-4.4819,-4.4819,-4.4837,-4.4675,-4.4262,-4.3488,-4.265,-4.1937,-4.1947,-4.2043,-4.1818,-4.197,-4.1997,-4.174,-4.1631,-4.1444,-4.1002,-4.09,-4.0731,-4.0316,-4.0087,-4.0298,-4.079,-4.0476,-4.0104,-5.6275,-5.6058,-5.6052,-5.5421,-5.4401,-5.4255,-5.3841,-5.3243,-5.3224,-5.3156,-5.3002,-5.2261,-5.1866,-5.1683,-5.102,-5.0683,-5.0683,-5.0683,-5.0221,-4.9413,-4.9279,-4.8779,-4.7932,-4.7096,-4.674,-4.6682,-4.597,-4.5515,-4.5297,-4.4819,-4.4465,-4.4192,-4.3728,-4.3479,-4.3479,-4.3387,-4.3121,-4.2629,-4.1014,-3.9913,-3.9277,-3.8502,-3.8007,-3.7905,-3.7898,-3.7898,-3.7922,-3.8514,-3.8853,-3.887,-3.9469,-3.952,-3.8886,-3.8363,-3.7871,0.0,-3.7266,0.0,0.0,0.0,0.0,0.0,0.0,0.0,0.0,-4.2011,-4.2745,-4.346,-4.3479,-4.3479,-4.3479,-4.3479,-4.3479,-4.3479,-4.3479,-4.3479,-4.3479,-4.3479,-4.3479,-4.3479,-4.3479,-4.3479,-4.3534,-4.3479,-4.3497,-4.3589,-4.3643,-4.3864,-4.4324,-4.4011,-4.3608,-4.3479,-4.3463,-4.3287,-4.2482,-4.2065,-4.1701,-4.1288,-4.1086,-4.1111,-4.109,-4.1086,-4.1013,-4.0914,-4.0918,-4.081,-4.059,-4.0368,-4.0195,-4.0121,-4.0096,-4.0104,-4.0121,-3.9868,-3.9809,-5.6072,-5.5305,-5.5307,-5.4329,-5.276,-5.2717,-5.2962,-5.3361,-5.3361,-5.2968,-5.2305,-5.2125,-5.1644,-5.0952,-5.076,-5.0683,-5.0683,-5.0683,-5.024,-4.9375,-4.8682,-4.7913,-4.7105,-4.624,-4.5836,-4.5836,-4.5691,-4.5495,-4.5277,-4.4819,-4.4465,-4.4192,-4.3712,-4.3479,-4.3461,0.0,0.0,0.0,-3.9519,-3.8879,-3.8235,-3.8045,-3.7929,-3.7905,-3.7898,0.0,-3.7898,-3.8058,-3.8125,-3.8125,-3.8244,0.0,0.0,0.0,0.0,0.0,0.0,0.0,0.0,0.0,0.0,0.0,-4.1093,-4.1901,-4.2084,-4.28,-4.3332,-4.3479,-4.3479,-4.3479,-4.3479,-4.3479,-4.3479,-4.3479,-4.3479,-4.3479,-4.3479,-4.3479,-4.3479,-4.3479,-4.3479,-4.3479,-4.3479,-4.3479,-4.3479,-4.3479,-4.3479,-4.3535,-4.3631,-4.3591,-4.3497,-4.3479,-4.3159,-4.2499,-4.1245,-4.0845,-4.0393,-3.9525,-3.9356,-3.9563,-3.9828,-4.0345,-4.0658,-4.0633,-4.1051,-4.1155,-4.0856,-4.0666,-4.0358,-4.0163,-4.0094,-4.0092,-4.0075,-3.9116,-3.831,-5.5005,-5.4533,-5.4493,-5.3719,0.0,-5.2442,-5.2402,-5.2358,-5.2292,-5.1987,-5.1562,-5.1525,-5.1219,-5.0726,-5.0269,-5.0048,-5.0029,-4.9606,-4.8971,-4.8163,-4.7702,-4.7067,-4.624,-4.5797,-4.5594,-4.5594,-4.5594,-4.5495,-4.5277,-4.485,-4.4465,-4.4192,-4.3324,-4.291,-4.2873,-4.1511,-4.0384,-3.9512,-3.8748,-3.8047,-3.7377,-3.6992,-3.6749,-3.6766,-3.6749,0.0,0.0,0.0,0.0,0.0,0.0,0.0,0.0,0.0,0.0,-3.7106,-3.7187,-3.729,-3.7373,-3.8348,-3.9382,-4.0435,-4.1974,-4.2892,-4.2892,-4.3276,-4.3479,-4.3479,-4.3479,-4.3479,-4.3479,-4.3479,-4.3479,-4.3479,-4.3479,-4.3479,-4.3479,-4.3479,-4.3479,-4.3479,-4.3479,-4.3479,-4.3479,-4.3479,-4.3479,-4.3479,-4.3479,-4.3445,-4.3322,-4.334,-4.3212,-4.2721,-4.2266,-4.1538,-4.027,-3.9814,-3.9508,-3.8855,-3.8873,-3.9151,-3.9461,-3.984,-4.0088,-4.0103,-4.0253,-4.0289,-4.0394,-4.018,-4.0024,-4.0094,-4.011,-3.9659,-3.8875,-3.7621,-3.6939,-5.3881,-5.3697,-5.3689,-5.3188,-5.2391,-5.2391,-5.1982,-5.1296,0.0,0.0,0.0,-5.0959,-5.0831,-5.0565,-4.9783,-4.9345,-4.9162,-4.846,-4.7681,-4.6922,-4.6913,-4.6432,-4.5614,-4.5594,-4.5594,-4.5594,-4.5594,-4.5495,-4.5277,-4.4819,-4.439,-4.3915,-4.2862,-4.2158,-4.1774,-4.0192,-3.9284,-3.911,-3.8137,-3.7254,-3.6598,-3.596,-3.5616,-3.5616,-3.5616,-3.5616,-3.5616,-3.6333,-3.6808,-3.6982,-3.7681,-3.8141,-3.8243,-3.7818,-3.7596,-3.7764,-3.7542,-3.7595,-3.7948,-3.8363,-3.9378,-4.1187,-4.2543,-4.3368,-4.3461,-4.3479,-4.3479,-4.3479,-4.3479,-4.3479,-4.3479,-4.3479,-4.3479,-4.3479,-4.3479,-4.3479,-4.3479,-4.3479,-4.3479,-4.3479,-4.3479,-4.3479,-4.3479,-4.3479,-4.3479,-4.3479,-4.3479,-4.3375,-4.3105,-4.2868,-4.2468,-4.172,-4.1142,-4.0337,-3.9258,-3.8831,-3.8643,-3.8257,-3.8407,-3.8786,-3.909,-3.9315,-3.9385,-3.9385,-3.9212,-3.9359,-3.9596,-3.9439,-3.9344,-3.9638,-3.9914,-3.9494,-3.7523,-3.631,-3.5937,-5.3535,-5.287,-5.287,-5.2362,-5.158,-5.158,-5.1502,-5.1365,-5.1318,-5.1241,-5.1159,-5.1102,-5.0647,-4.9931,-4.9683,-4.9161,-4.8464,-4.8276,-4.7713,-4.6928,-4.6903,-4.6432,-4.5614,-4.5594,-4.5594,-4.5594,-4.5594,-4.5495,-4.5267,-4.4819,-4.4127,-4.3206,-4.2585,-4.1607,-4.0288,-3.9714,-3.8921,-3.7807,-3.7126,-3.6439,-3.5774,-3.565,-3.5616,-3.5616,-3.5622,-3.5616,-3.5616,-3.5946,-3.6242,-3.6485,-3.68,-3.7079,-3.7355,-3.7323,-3.7273,-3.7293,-3.7411,-3.7596,-3.7912,-3.8803,-4.0168,-4.1904,-4.2341,-4.2763,-4.3424,-4.3479,-4.3479,-4.3479,-4.3479,-4.3479,-4.3479,-4.3479,-4.3479,-4.3479,-4.3479,-4.3479,-4.3479,-4.3479,-4.3479,-4.3479,-4.3479,-4.3479,-4.3479,-4.3479,-4.3479,-4.3479,-4.3353,-4.3195,-4.2459,-4.1925,-4.1359,-4.0833,-4.0111,-3.9132,-3.8122,-3.7822,-3.7546,-3.6849,-3.6998,-3.7329,-3.7644,-3.8182,-3.8538,-3.8575,-3.8853,-3.9024,-3.8934,-3.8698,-3.8533,-3.8458,-3.9174,-3.9202,-3.7265,-3.619,-3.5678,-5.2344,-5.2012,-5.1992,-5.1758,-5.1387,-5.1387,-5.1387,-5.1387,-5.1359,-5.1343,-5.1243,-5.0748,-5.0271,-4.9771,-4.8755,-4.8082,-4.7675,-4.7142,-4.6669,-4.6259,-4.6206,-4.597,-4.5633,-4.5594,-4.5594,-4.5594,-4.5594,-4.5495,-4.5229,-4.4357,-4.3595,-4.294,-4.168,-4.0396,-3.9316,-3.9031,-3.8514,-3.772,-3.7094,-3.6471,-3.5827,-3.5822,-3.5805,-3.5805,-3.5866,-3.5954,-3.598,-3.628,-3.6533,-3.6759,-3.6999,-3.7266,-3.7505,-3.7506,-3.7523,-3.7523,-3.7721,-3.7913,-3.8101,-3.9179,-4.0207,-4.1104,-4.2034,-4.2712,-4.3081,-4.3359,-4.3479,-4.3479,-4.3479,-4.3479,-4.3479,-4.3479,-4.3479,-4.3479,-4.3479,-4.3479,-4.3479,-4.3479,-4.3479,-4.3479,-4.3479,-4.3479,-4.3479,-4.3479,-4.3479,-4.3461,-4.301,-4.2122,-4.1022,-3.9995,-3.9494,-3.9592,-3.8909,-3.7965,-3.7003,-3.678,-3.6582,-3.6259,-3.6433,-3.6698,-3.7032,-3.7482,-3.7683,-3.7773,-3.7932,-3.7985,-3.804,-3.7873,-3.7763,-3.799,-3.8336,-3.8184,-3.7091,-3.6163,-3.5667,-5.1386,-5.1387,-5.1387,-5.1387,-5.1387,-5.1387,-5.1387,-5.1367,-5.1191,-5.1132,-5.1029,-5.0324,-4.9791,-4.9217,-4.788,-4.7159,-4.6862,-4.6156,-4.5783,-4.5711,-4.5643,-4.5594,-4.5594,-4.5594,-4.5594,-4.5556,-4.5421,-4.5207,-4.4906,-4.371,-4.281,-4.222,-4.0535,-3.9344,-3.8726,-3.853,-3.8283,-3.7964,-3.7396,-3.6799,-3.6131,-3.6088,-3.6088,-3.6088,-3.6216,-3.6364,-3.6495,-3.6799,-3.7054,-3.7282,-3.7541,-3.7774,-3.7983,-3.8,-3.8,-3.8035,-3.8153,-3.8303,-3.8488,-3.9326,-4.0007,-4.0298,-4.1551,-4.2425,-4.2619,-4.2962,-4.331,-4.354,-4.3615,-4.3615,-4.3617,-4.3583,-4.3566,-4.3532,-4.3515,-4.3479,-4.3479,-4.3479,-4.3479,-4.3479,-4.3479,-4.3497,-4.348,-4.3427,-4.33,-4.292,-4.205,-4.0809,-3.9603,-3.8464,-3.8051,-3.807,-3.7663,-3.6874,-3.6092,-3.5993,-3.5971,-3.5985,-3.6195,-3.6485,-3.6753,-3.6935,-3.7108,-3.7256,-3.7066,-3.705,-3.7272,-3.7094,-3.7024,-3.7221,-3.7318,-3.7177,-3.6581,-3.6028,-3.5633,-5.1401,-5.1387,-5.1387,-5.1387,-5.1387,-5.1387,-5.1387,-5.1269,-5.0644,-5.0312,-5.0234,-5.0146,-4.9176,-4.7834,-4.7535,-4.6989,-4.6251,-4.5982,-4.586,-4.5773,-4.5651,-4.5594,-4.5594,-4.5594,-4.5594,-4.5479,-4.4816,-4.4419,-4.4153,-4.2973,-4.1725,-4.0415,-3.9353,-3.8857,-3.8707,-3.8559,-3.8415,-3.8256,-3.7915,-3.7266,-3.6433,-3.6444,-3.6444,-3.6371,-3.6563,-3.6823,-3.7042,-3.7339,-3.7542,-3.7825,-3.805,-3.832,-3.8546,-3.8611,-3.8611,-3.8593,-3.8627,-3.8704,-3.8851,-3.9059,-3.9596,-4.0454,-4.0822,-4.1343,-4.197,-4.2126,-4.2679,-4.3546,-4.3899,-4.3812,-4.3846,-4.371,-4.3588,-4.3488,-4.3457,-4.3479,-4.3479,-4.3479,-4.3479,-4.3479,-4.3351,-4.3462,-4.3228,-4.3086,-4.2723,-4.176,-4.0777,-3.9783,-3.9039,-3.8098,-3.7288,-3.6984,-3.6322,-3.5898,-3.5689,-3.5667,-3.5689,-3.5694,-3.5871,-3.6195,-3.6454,-3.6681,-3.6825,-3.7167,-3.7034,-3.6866,-3.6617,-3.6345,-3.6173,-3.6169,-3.6101,-3.5881,-3.5718,-3.5667,-3.5616,-5.1364,-5.1384,-5.1386,-5.1386,-5.1387,-5.1387,-5.1133,-5.0664,-5.0371,-4.9648,-4.8711,-4.8631,-4.8219,-4.7515,-4.7021,-4.6537,-4.6162,-4.597,-4.5897,-4.5841,-4.5684,-4.5594,-4.5594,-4.5594,-4.5364,-4.4855,-4.4451,-4.3986,-4.3254,-4.2137,-4.0835,-3.9612,-3.909,-3.8851,-3.8704,-3.864,-3.8358,-3.7838,-3.7578,-3.6943,-3.6078,-3.6559,-3.6895,-3.6786,-3.6578,-3.6574,-3.6774,-3.659,-3.6507,-3.6689,-3.7337,-3.7786,-3.7991,-3.845,-3.8707,-3.8707,-3.8707,-3.8783,-3.8896,-3.9069,-3.9357,-3.9862,-4.0534,-4.1065,-4.1405,-4.1826,-4.2391,-4.2784,-4.2842,-4.2768,-4.2748,-4.2601,-4.2634,-4.2899,-4.2883,-4.2965,-4.3442,-4.3057,-4.2782,-4.2763,-4.2378,-4.2052,-4.1862,-4.1578,-4.0924,-3.996,-3.9153,-3.8571,-3.7728,-3.7049,-3.6585,-3.6158,-3.5808,-3.565,-3.5616,-3.5616,-3.5616,-3.5644,-3.5822,-3.6088,-3.6406,-3.6632,-3.6876,-3.7204,-3.7031,-3.6794,-3.6544,-3.6216,-3.5937,-3.5711,-3.5616,-3.5616,-3.5616,-3.5616,-3.5616,-5.1286,-5.1352,-5.1384,-5.1386,-5.1367,-5.1152,-5.0742,-5.0156,-4.9707,-4.8769,-4.7656,-4.7363,-4.7246,-4.7148,-4.6562,-4.6286,-4.6202,-4.6031,-4.5945,-4.5904,-4.5712,-4.562,-4.5631,-4.5594,-4.5152,-4.4374,-4.4066,-4.3342,-4.221,-4.1246,-4.0193,-3.9285,-3.9078,-3.8921,-3.8686,-3.8524,-3.8102,-3.7533,-3.7141,-3.6482,-3.5814,-3.6431,-3.6809,-3.6664,-3.6345,-3.6265,-3.6481,-3.6084,-3.5887,-3.5948,-3.6635,-3.7164,-3.7496,-3.8062,-3.8469,-3.8652,-3.8487,-3.8544,-3.8859,-3.9069,-3.9245,-3.9426,-4.0189,-4.0618,-4.0712,-4.1153,-4.1455,-4.1461,-4.1393,-4.1412,-4.1871,-4.1731,-4.1824,-4.2202,-4.2235,-4.2506,-4.2708,-4.2415,-4.2231,-4.1956,-4.1552,-4.0996,-4.0685,-4.0203,-3.9492,-3.861,-3.7981,-3.7402,-3.653,-3.6191,-3.5932,-3.5667,-3.5622,-3.5622,-3.5622,-3.5616,-3.5616,-3.5667,-3.5822,-3.6105,-3.6423,-3.6632,-3.6893,-3.7131,-3.6952,-3.6753,-3.6492,-3.6199,-3.5915,-3.5711,-3.5616,-3.5616,-3.5616,-3.5616,-3.5616,-5.1148,-5.1228,-5.1344,-5.1367,-5.1328,-5.0605,-5.0215,-4.9902,-4.8476,-4.7676,-4.7441,-4.6738,-4.6367,-4.6387,-4.6328,-4.6306,-4.627,-4.6137,-4.6056,-4.5972,-4.5793,-4.5695,-4.5673,-4.5631,-4.5133,-4.4182,-4.3451,-4.2258,-4.0603,-4.0223,-3.983,-3.9401,-3.9192,-3.8964,-3.8588,-3.797,-3.7547,-3.7257,-3.6542,-3.5987,-3.5781,-3.5924,-3.5869,-3.5606,-3.5734,-3.5939,-3.6216,-3.6256,-3.6201,-3.6215,-3.627,-3.6652,-3.7364,-3.7511,-3.7878,-3.8487,-3.7973,-3.7974,-3.8762,-3.9031,-3.9203,-3.9389,-3.9631,-3.9701,-3.9783,-3.9885,-3.9922,-3.9776,-3.9903,-4.0377,-4.1437,-4.1442,-4.1419,-4.1413,-4.1887,-4.1846,-4.1352,-4.1846,-4.1864,-4.1315,-4.0985,-4.0618,-4.0329,-3.9497,-3.871,-3.8003,-3.7219,-3.6492,-3.6208,-3.5937,-3.5795,-3.5689,-3.5689,-3.5751,-3.5661,-3.5689,-3.5667,-3.5734,-3.5937,-3.611,-3.635,-3.6583,-3.6862,-3.6999,-3.686,-3.6678,-3.6454,-3.6203,-3.5937,-3.5756,-3.5622,-3.5616,-3.5616,-3.5616,-3.5616,-5.1128,-5.1272,-5.1355,-5.1091,-5.0544,-5.0251,-4.9529,-4.8493,-4.7868,-4.7283,-4.6796,-4.6426,-4.6289,-4.6289,-4.6289,-4.6288,-4.6297,-4.6169,-4.6073,-4.6046,-4.586,-4.5745,-4.5638,-4.5087,-4.4335,-4.3508,-4.2681,-4.1638,-4.0562,-4.0243,-3.9929,-3.9555,-3.9331,-3.8818,-3.8044,-3.7658,-3.7015,-3.5977,-3.5545,-3.5117,-3.4621,-3.4558,-3.453,-3.4458,-3.4954,-3.5301,-3.5481,-3.4981,-3.4706,-3.4706,-3.5169,-3.5591,-3.5903,-3.6413,-3.7107,-3.7786,-3.7676,-3.7901,-3.8762,-3.9069,-3.9213,-3.9337,-3.9471,-3.9513,-3.9464,-3.9439,-3.9396,-3.9414,-3.9396,-3.9731,-3.9912,-4.0067,-4.0202,-4.0552,-4.0704,-4.091,-4.0967,-4.0928,-4.0634,-4.0306,-3.982,-3.9225,-3.8938,-3.8276,-3.7687,-3.7103,-3.6565,-3.617,-3.5871,-3.5711,-3.5667,-3.5644,-3.5778,-3.5975,-3.6135,-3.6023,-3.5997,-3.6062,-3.6191,-3.6259,-3.6451,-3.6471,-3.6676,-3.6641,-3.6597,-3.6454,-3.6161,-3.5968,-3.5761,-3.5711,-3.5616,-3.5616,-3.5616,-3.5616,-3.5616,-5.1058,-5.1199,-5.1039,-5.0627,-5.0061,-4.9476,-4.8619,-4.7544,-4.7231,-4.6787,-4.6323,-4.6289,-4.6289,-4.6289,-4.6289,-4.6289,-4.6285,-4.6191,-4.6136,-4.6111,-4.5944,-4.5822,-4.5619,-4.4778,-4.3907,-4.3014,-4.192,-4.1046,-4.0538,-4.0323,-4.0032,-3.9668,-3.9464,-3.8774,-3.7731,-3.7298,-3.6423,-3.5206,-3.4747,-3.4325,-3.3862,-3.3807,-3.3807,-3.388,-3.4303,-3.4563,-3.4601,-3.4082,-3.3807,-3.388,-3.4325,-3.4729,-3.5023,-3.5536,-3.6376,-3.7309,-3.7235,-3.7676,-3.8707,-3.9087,-3.9187,-3.9277,-3.9331,-3.9338,-3.9272,-3.9165,-3.9096,-3.9096,-3.9115,-3.9059,-3.9003,-3.8984,-3.9188,-3.9679,-3.9841,-3.9974,-4.027,-4.0084,-3.9843,-3.9517,-3.8965,-3.8407,-3.805,-3.7757,-3.7262,-3.6583,-3.6329,-3.6092,-3.5822,-3.5778,-3.58,-3.5849,-3.6092,-3.6367,-3.6597,-3.6638,-3.6618,-3.6658,-3.6512,-3.6533,-3.6468,-3.6464,-3.6381,-3.6301,-3.6216,-3.6071,-3.592,-3.5739,-3.565,-3.5622,-3.5616,-3.5616,-3.5616,-3.5616,-3.5616,-5.0901,-5.086,-5.0284,-4.995,-4.9638,-4.8294,-4.7496,-4.726,-4.6538,-4.6236,-4.6215,-4.6268,-4.6289,-4.6289,-4.6289,-4.6289,-4.6289,-4.6222,-4.6184,-4.6167,-4.606,-4.5963,-4.584,-4.4766,-4.3709,-4.2795,-4.1301,-4.0554,-4.0508,-4.0358,-4.0101,-3.977,-3.9496,-3.8676,-3.7618,-3.6717,-3.5915,-3.4995,-3.4234,-3.3862,-3.3807,-3.3807,-3.3807,-3.3807,-3.388,-3.3885,-3.3862,-3.3825,-3.3807,-3.3807,-3.3844,-3.4211,-3.4802,-3.5059,-3.5771,-3.7015,-3.6776,-3.7286,-3.8666,-3.9073,-3.9208,-3.924,-3.9176,-3.9163,-3.9082,-3.8892,-3.8762,-3.8795,-3.8783,-3.8719,-3.8735,-3.8735,-3.8783,-3.8869,-3.9396,-3.9496,-3.9166,-3.9441,-3.9588,-3.893,-3.8593,-3.8465,-3.8254,-3.7949,-3.7468,-3.6902,-3.6597,-3.6381,-3.6105,-3.611,-3.6212,-3.6364,-3.6577,-3.6858,-3.7092,-3.7319,-3.7302,-3.7266,-3.7017,-3.688,-3.6618,-3.6533,-3.6322,-3.6216,-3.6045,-3.5915,-3.5866,-3.5689,-3.5644,-3.5616,-3.5616,-3.5616,-3.5616,-3.5616,-3.5616,-4.9185,-4.9289,-4.9125,-4.8693,-4.8156,-4.7586,-4.7099,-4.6539,-4.6199,-4.615,-4.6191,-4.6279,-4.6306,-4.6288,-4.6289,-4.6289,-4.6289,-4.6288,-4.6264,-4.6248,-4.6133,-4.6052,-4.5735,-4.4348,-4.2779,-4.1459,-4.0793,-4.0496,-4.0473,-4.0411,-3.9984,-3.925,-3.8937,-3.7868,-3.6328,-3.5795,-3.5164,-3.4261,-3.3935,-3.3807,-3.3807,-3.3807,-3.3807,-3.3807,-3.3807,-3.3807,-3.3807,-3.3807,-3.3807,-3.3807,-3.3807,-3.3935,-3.4229,-3.4692,-3.5546,-3.6577,-3.7131,-3.7785,-3.8946,-3.9326,-3.9464,-3.9508,-3.9495,-3.937,-3.9224,-3.8979,-3.8822,-3.878,-3.8719,-3.8707,-3.8707,-3.8707,-3.8723,-3.8719,-3.8924,-3.9038,-3.8799,-3.8946,-3.8946,-3.8781,-3.8658,-3.8627,-3.8517,-3.8204,-3.7685,-3.7151,-3.6895,-3.667,-3.6388,-3.6412,-3.6661,-3.6882,-3.7133,-3.7339,-3.7578,-3.7774,-3.7879,-3.7791,-3.7578,-3.7266,-3.698,-3.6721,-3.6454,-3.6178,-3.5985,-3.5827,-3.5778,-3.5684,-3.5639,-3.5616,-3.5616,-3.5616,-3.5616,-3.5616,-3.5616,-4.8311,-4.8403,-4.8122,-4.7713,-4.7192,-4.6965,-4.6513,-4.6046,-4.6003,-4.6059,-4.6112,-4.6195,-4.6258,-4.6265,-4.6289,-4.6289,-4.6289,-4.6289,-4.6289,-4.6285,-4.6192,-4.6155,-4.587,-4.4148,-4.2279,-4.0796,-4.0496,-4.0496,-4.0489,-4.0444,-3.9902,-3.9004,-3.8696,-3.764,-3.5808,-3.546,-3.4914,-3.4037,-3.3842,-3.3834,-3.382,-3.3807,-3.3807,-3.3807,-3.3807,-3.3807,-3.3807,-3.3807,-3.3807,-3.3807,-3.3807,-3.3917,-3.4247,-3.4784,-3.5542,-3.6717,-3.7447,-3.825,-3.927,-3.9621,-3.9799,-3.9851,-3.9829,-3.9698,-3.9471,-3.9205,-3.8956,-3.8877,-3.878,-3.8707,-3.8707,-3.8707,-3.8707,-3.8707,-3.8726,-3.8707,-3.8707,-3.8658,-3.8627,-3.8578,-3.8564,-3.8533,-3.8419,-3.8154,-3.7721,-3.7226,-3.6972,-3.6809,-3.6574,-3.6658,-3.6939,-3.7265,-3.7523,-3.7739,-3.7999,-3.8201,-3.8417,-3.8318,-3.8152,-3.7808,-3.7487,-3.7247,-3.6999,-3.66,-3.635,-3.6092,-3.5985,-3.5734,-3.5616,-3.5616,-3.5605,-3.5616,-3.5616,-3.5616,-3.5616,-4.8015,-4.805,-4.7289,-4.6958,-4.6861,-4.619,-4.5906,-4.5874,-4.5841,-4.5883,-4.5998,-4.6108,-4.6156,-4.6215,-4.6286,-4.6289,-4.6289,-4.6289,-4.6289,-4.6289,-4.6223,-4.6099,-4.5478,-4.4017,-4.2337,-4.0731,-4.0496,-4.0496,-4.0496,-4.0487,-3.9961,-3.8948,-3.8642,-3.7744,-3.6058,-3.5623,-3.5001,-3.4123,-3.3947,-3.3881,-3.382,-3.3807,-3.3807,-3.3807,-3.3807,-3.3807,-3.3807,-3.3807,-3.3807,-3.382,-3.3925,-3.4325,-3.4867,-3.5087,-3.6122,-3.7595,-3.7865,-3.8596,-3.9446,-3.9886,-4.0051,-4.007,-4.005,-4.002,-3.9717,-3.9338,-3.9059,-3.8942,-3.8792,-3.8707,-3.8707,-3.8707,-3.8707,-3.8707,-3.8707,-3.8707,-3.8692,-3.8593,-3.8462,-3.8366,-3.8303,-3.8223,-3.8033,-3.7739,-3.7375,-3.6995,-3.6753,-3.6629,-3.6609,-3.6736,-3.7147,-3.7485,-3.7809,-3.8052,-3.8269,-3.8366,-3.8562,-3.853,-3.8417,-3.8203,-3.7896,-3.7667,-3.7432,-3.7018,-3.6701,-3.6437,-3.6178,-3.5997,-3.5727,-3.5615,-3.5627,-3.5627,-3.5622,-3.5605,-3.5616,-4.6303,-4.6362,-4.6121,-4.6047,-4.6051,-4.5803,-4.5737,-4.5742,-4.5725,-4.5802,-4.5925,-4.6056,-4.6125,-4.6206,-4.6277,-4.6306,-4.6288,-4.6289,-4.6289,-4.6289,-4.6289,-4.5365,-4.437,-4.365,-4.237,-4.0719,-4.0496,-4.0496,-4.0496,-4.05,-3.9746,-3.8301,-3.8216,-3.7236,-3.5561,-3.517,-3.473,-3.4227,-3.408,-3.3972,-3.3829,-3.382,-3.3807,-3.3807,-3.382,-3.3839,-3.3807,-3.3807,-3.3834,-3.3923,-3.456,-3.4987,-3.546,-3.6419,-3.7355,-3.8021,-3.8771,-3.931,-3.9783,-4.002,-4.0129,-4.0167,-4.0059,-3.9924,-3.9689,-3.9357,-3.911,-3.895,-3.8795,-3.8707,-3.8707,-3.8707,-3.8707,-3.8707,-3.8707,-3.8707,-3.8658,-3.8528,-3.8332,-3.8064,-3.7912,-3.7738,-3.7523,-3.7283,-3.6995,-3.6698,-3.6591,-3.6564,-3.6591,-3.6836,-3.7261,-3.7703,-3.8034,-3.8322,-3.8517,-3.8596,-3.8658,-3.8658,-3.8596,-3.8501,-3.8204,-3.7931,-3.7685,-3.7377,-3.7151,-3.69,-3.6632,-3.6395,-3.6084,-3.5814,-3.5795,-3.5864,-3.5683,-3.5599,-3.5622,-4.5631,-4.5657,-4.5648,-4.5657,-4.5651,-4.5657,-4.5657,-4.566,-4.5665,-4.5708,-4.5822,-4.5925,-4.6031,-4.6121,-4.6191,-4.6237,-4.6245,-4.6289,-4.6289,-4.6289,-4.6288,-4.5249,-4.387,-4.3389,-4.2394,-4.0718,-4.0546,-4.0531,-4.0496,-4.0496,-3.9746,-3.8723,-3.8101,-3.7113,-3.5842,-3.5114,-3.4705,-3.4412,-3.4291,-3.4173,-3.3985,-3.3972,-3.3972,-3.3959,-3.3965,-3.4037,-3.4338,-3.4697,-3.4761,-3.4684,-3.5086,-3.572,-3.6584,-3.7499,-3.8327,-3.8813,-3.9486,-3.9876,-4.0,-4.009,-4.009,-4.0059,-3.9937,-3.9755,-3.9556,-3.9318,-3.9091,-3.896,-3.8792,-3.8704,-3.8707,-3.8707,-3.8707,-3.8707,-3.8707,-3.8707,-3.8707,-3.8512,-3.8285,-3.7981,-3.7738,-3.7523,-3.7282,-3.7071,-3.6856,-3.6676,-3.6629,-3.6609,-3.6652,-3.6993,-3.7375,-3.7791,-3.8152,-3.8403,-3.8619,-3.8716,-3.893,-3.8946,-3.8857,-3.8761,-3.8577,-3.8294,-3.8103,-3.7861,-3.7614,-3.7357,-3.711,-3.6856,-3.6606,-3.6394,-3.6264,-3.6105,-3.5946,-3.5666,-3.565,-4.5596,-4.5605,-4.5586,-4.5594,-4.5594,-4.5594,-4.5603,-4.5594,-4.5603,-4.5635,-4.5731,-4.5768,-4.5883,-4.5979,-4.6092,-4.6158,-4.6216,-4.6268,-4.6289,-4.6289,-4.6149,-4.529,-4.3694,-4.3451,-4.2366,-4.0867,-4.0605,-4.0573,-4.0523,-4.0496,-4.0054,-3.9161,-3.8324,-3.7444,-3.6388,-3.5512,-3.4926,-3.4685,-3.4569,-3.4446,-3.4298,-3.4281,-3.4367,-3.456,-3.4662,-3.4875,-3.5353,-3.5823,-3.5988,-3.5568,-3.5671,-3.6603,-3.7972,-3.8319,-3.889,-3.9537,-3.9863,-4.005,-4.008,-4.005,-4.0001,-3.9857,-3.9683,-3.9543,-3.9421,-3.9221,-3.9045,-3.8946,-3.8807,-3.8778,-3.8946,-3.8891,-3.9038,-3.9166,-3.9111,-3.9001,-3.8878,-3.864,-3.8285,-3.8035,-3.7809,-3.7577,-3.7354,-3.7145,-3.6972,-3.688,-3.6836,-3.6836,-3.6898,-3.715,-3.7505,-3.7879,-3.8186,-3.8451,-3.8653,-3.8839,-3.9095,-3.9258,-3.9166,-3.908,-3.8988,-3.8771,-3.8588,-3.8352,-3.8,-3.7774,-3.7614,-3.736,-3.7101,-3.6941,-3.6796,-3.6585,-3.6327,-3.5915,-3.5756,-4.5466,-4.5522,-4.5558,-4.5594,-4.5594,-4.5594,-4.5594,-4.5594,-4.5594,-4.5648,-4.5687,-4.5715,-4.5796,-4.5922,-4.6025,-4.6138,-4.6207,-4.6269,-4.6289,-4.6289,-4.6288,-4.5286,-4.3931,-4.352,-4.2427,-4.1071,-4.0668,-4.0612,-4.0546,-4.0439,-4.0092,-3.9315,-3.8538,-3.7543,-3.668,-3.5841,-3.5171,-3.5008,-3.487,-3.4734,-3.4612,-3.4599,-3.4862,-3.5396,-3.5866,-3.6154,-3.6207,-3.6306,-3.6573,-3.704,-3.7368,-3.7692,-3.8284,-3.8959,-3.9475,-3.9727,-3.9927,-3.9998,-3.9937,-3.9854,-3.9785,-3.9585,-3.9427,-3.9287,-3.9192,-3.9096,-3.8974,-3.8881,-3.8783,-3.8946,-3.946,-3.9606,-3.9863,-4.0249,-4.0416,-4.0453,-4.0327,-3.9298,-3.8431,-3.807,-3.7791,-3.7524,-3.7283,-3.7246,-3.7151,-3.7114,-3.7095,-3.7094,-3.7208,-3.7377,-3.7757,-3.8179,-3.8492,-3.8832,-3.9289,-3.9481,-3.9738,-3.9882,-3.9753,-3.9441,-3.9368,-3.9132,-3.8902,-3.8627,-3.8354,-3.817,-3.8016,-3.7807,-3.7542,-3.7431,-3.7294,-3.7023,-3.6705,-3.6276,-3.5871,-4.5322,-4.5419,-4.555,-4.5594,-4.5594,-4.5594,-4.5594,-4.5594,-4.5594,-4.5603,-4.5648,-4.564,-4.5718,-4.5841,-4.5948,-4.6063,-4.6195,-4.6269,-4.6289,-4.6289,-4.623,-4.5331,-4.4018,-4.3464,-4.2633,-4.1044,-4.0767,-4.0675,-4.0579,-4.0508,-4.0319,-3.9842,-3.8988,-3.8219,-3.7308,-3.6404,-3.5707,-3.5248,-3.5096,-3.4981,-3.486,-3.486,-3.521,-3.6077,-3.6881,-3.7411,-3.7329,-3.7576,-3.7891,-3.8285,-3.854,-3.867,-3.8796,-3.9305,-3.966,-3.9755,-3.9799,-3.9796,-3.9698,-3.9561,-3.9396,-3.9266,-3.9129,-3.9021,-3.8939,-3.8881,-3.8837,-3.878,-3.8793,-3.9019,-3.9824,-4.0341,-4.0708,-4.093,-4.1132,-4.1113,-4.0895,-3.988,-3.895,-3.8623,-3.8217,-3.7828,-3.7578,-3.7524,-3.7487,-3.7523,-3.7505,-3.7505,-3.7542,-3.7757,-3.8239,-3.8607,-3.8904,-3.9323,-3.9891,-4.0233,-4.0526,-4.06,-4.0545,-4.0139,-3.979,-3.9496,-3.9169,-3.8836,-3.8483,-3.8517,-3.835,-3.8165,-3.803,-3.7984,-3.7811,-3.752,-3.7103,-3.6594,-3.6203,-4.5159,-4.5293,-4.5513,-4.5594,-4.5594,-4.5594,-4.5594,-4.5594,-4.5594,-4.5594,-4.5594,-4.5594,-4.5684,-4.5801,-4.588,-4.6022,-4.6186,-4.6242,-4.6269,-4.5957,-4.5957,-4.4922,-4.373,-4.3196,-4.2563,-4.1066,-4.0849,-4.0726,-4.0642,-4.0605,-4.0511,-4.0339,-3.9669,-3.8873,-3.8115,-3.7343,-3.66,-3.6059,-3.5924,-3.5826,-3.5702,-3.5704,-3.6061,-3.6872,-3.7907,-3.8527,-3.8556,-3.8776,-3.9107,-3.9272,-3.9376,-3.9408,-3.9471,-3.9549,-3.9618,-3.9606,-3.9625,-3.9555,-3.9458,-3.9261,-3.91,-3.8974,-3.9006,-3.894,-3.8943,-3.9215,-3.9362,-3.9273,-3.935,-3.9606,-4.0212,-4.0873,-4.1315,-4.1535,-4.1517,-4.1462,-4.1315,-4.0681,-4.0162,-3.9442,-3.8976,-3.8552,-3.8177,-3.7983,-3.7948,-3.7949,-3.795,-3.7985,-3.8056,-3.8287,-3.8838,-3.9284,-3.9617,-4.0249,-4.0824,-4.1093,-4.1352,-4.1552,-4.146,-4.0891,-4.0341,-3.9827,-3.9441,-3.8912,-3.8643,-3.8643,-3.8627,-3.8496,-3.8433,-3.8471,-3.8312,-3.7989,-3.7519,-3.6937,-3.6597,-4.5022,-4.5232,-4.5495,-4.5594,-4.5594,-4.5594,-4.5594,-4.5594,-4.5594,-4.5594,-4.5594,-4.5594,-4.569,-4.5805,-4.5883,-4.6045,-4.6222,-4.6187,-4.5859,-4.5391,-4.5195,-4.4277,-4.3047,-4.2753,-4.208,-4.1312,-4.0958,-4.0829,-4.0723,-4.0675,-4.0619,-4.0373,-3.9765,-3.9207,-3.8861,-3.825,-3.7658,-3.7244,-3.7218,-3.7222,-3.7187,-3.7333,-3.7608,-3.8301,-3.9176,-3.9532,-3.9529,-3.9516,-3.9517,-3.9536,-3.9559,-3.9571,-3.9583,-3.9675,-3.9663,-3.9573,-3.9513,-3.9414,-3.9272,-3.911,-3.8974,-3.8995,-3.9301,-3.9659,-3.9827,-4.0196,-4.0343,-4.0508,-4.06,-4.0983,-4.1809,-4.1974,-4.2415,-4.28,-4.2928,-4.291,-4.2782,-4.2233,-4.1227,-4.0301,-3.9806,-3.9424,-3.9128,-3.8899,-3.89,-3.8938,-3.8937,-3.89,-3.8915,-3.9217,-3.9682,-4.0077,-4.0421,-4.1152,-4.1884,-4.2029,-4.2231,-4.2525,-4.2396,-4.1717,-4.1093,-4.0286,-3.9717,-3.9239,-3.8836,-3.8692,-3.8692,-3.8707,-3.8643,-3.853,-3.8498,-3.8478,-3.7953,-3.7412,-3.7011,-4.4903,-4.5186,-4.5486,-4.5594,-4.5594,-4.5594,-4.5594,-4.5594,-4.5594,-4.5594,-4.5594,-4.5594,-4.5654,-4.5734,-4.5829,-4.5985,-4.6074,-4.5751,-4.5387,-4.498,-4.4492,-4.3711,-4.248,-4.2383,-4.1874,-4.1341,-4.1065,-4.0932,-4.0806,-4.0759,-4.0681,-4.0501,-4.0111,-3.978,-3.9342,-3.8892,-3.843,-3.82,-3.8046,-3.8046,-3.8104,-3.8392,-3.89,-3.9232,-3.9809,-4.011,-4.0061,-3.9901,-3.9808,-3.9808,-3.9808,-3.9808,-3.9808,-3.9835,-3.9766,-3.9592,-3.9414,-3.9248,-3.9082,-3.8968,-3.8973,-3.9406,-3.9766,-4.0102,-4.0451,-4.082,-4.1187,-4.1224,-4.1625,-4.1864,-4.2213,-4.2635,-4.3094,-4.3351,-4.3479,-4.3479,-4.3406,-4.3129,-4.2248,-4.1185,-4.0785,-4.0459,-4.0219,-4.0056,-3.9997,-3.9955,-3.9918,-3.9845,-3.9772,-4.0157,-4.0561,-4.1167,-4.1552,-4.2029,-4.2616,-4.269,-4.2782,-4.3094,-4.313,-4.247,-4.1827,-4.1001,-4.0249,-3.9606,-3.9258,-3.8872,-3.8707,-3.8707,-3.8658,-3.8624,-3.8588,-3.8514,-3.828,-3.7916,-3.7538,-4.4997,-4.5319,-4.5496,-4.5549,-4.5596,-4.5586,-4.5594,-4.5594,-4.5594,-4.5594,-4.5594,-4.5594,-4.5637,-4.5658,-4.5609,-4.5614,-4.5763,-4.5045,-4.4599,-4.4199,-4.373,-4.2969,-4.2363,-4.209,-4.1758,-4.1289,-4.1129,-4.1042,-4.0928,-4.0839,-4.0746,-4.0636,-4.06,-4.0311,-3.9696,-3.9592,-3.9008,-3.8738,-3.8488,-3.8507,-3.87,-3.9142,-3.9519,-3.948,-4.0021,-4.0314,-4.026,-4.0186,-4.012,-4.012,-4.011,-4.011,-4.011,-4.0101,-3.9972,-3.969,-3.9377,-3.9195,-3.9073,-3.9139,-3.9369,-3.9779,-4.0228,-4.0726,-4.1203,-4.1589,-4.1735,-4.1699,-4.2103,-4.2543,-4.2727,-4.3094,-4.3423,-4.3479,-4.3479,-4.3479,-4.3479,-4.3332,-4.3166,-4.2378,-4.1901,-4.137,-4.0985,-4.071,-4.0545,-4.0545,-4.0508,-4.0545,-4.0545,-4.1022,-4.1534,-4.2286,-4.2763,-4.3039,-4.3277,-4.3204,-4.324,-4.3296,-4.3314,-4.291,-4.2323,-4.1699,-4.091,-4.0065,-3.9533,-3.9184,-3.8946,-3.8707,-3.8673,-3.8673,-3.8692,-3.8596,-3.8385,-3.8315,-3.8114,-4.569,-4.5937,-4.5587,-4.5448,-4.5513,-4.5568,-4.5594,-4.5594,-4.5594,-4.5594,-4.5594,-4.5594,-4.564,-4.5491,-4.5001,-4.4884,-4.467,-4.4128,-4.3484,-4.3039,-4.2673,-4.2167,-4.1504,-4.1348,-4.1426,-4.1191,-4.1132,-4.1062,-4.1001,-4.0926,-4.0824,-4.0734,-4.0681,-4.0542,-4.0269,-4.0196,-4.0304,-4.0169,-4.0131,-4.0112,-4.0112,-4.0208,-4.0258,-4.0308,-4.0369,-4.0449,-4.0414,-4.0389,-4.0389,-4.0397,-4.0414,-4.0441,-4.0449,-4.043,-4.0381,-4.0167,-3.9865,-3.9464,-3.9434,-3.9606,-3.9995,-4.0449,-4.1142,-4.1882,-4.2231,-4.2635,-4.2947,-4.3222,-4.3294,-4.3239,-4.3185,-4.3387,-4.3479,-4.3479,-4.3479,-4.3479,-4.3479,-4.3479,-4.3313,-4.3259,-4.2671,-4.2047,-4.1534,-4.1279,-4.1077,-4.1095,-4.1132,-4.1224,-4.1407,-4.1884,-4.2213,-4.2873,-4.3149,-4.3406,-4.3479,-4.3479,-4.3479,-4.3479,-4.3387,-4.3259,-4.2763,-4.2139,-4.1313,-4.0543,-3.9974,-3.9331,-3.8891,-3.8707,-3.8707,-3.8707,-3.8707,-3.8618,-3.8514,-3.8508,-3.8513,-4.5941,-4.5846,-4.5414,-4.5283,-4.541,-4.555,-4.5594,-4.5594,-4.5594,-4.5594,-4.5594,-4.5594,-4.5353,-4.4999,-4.4556,-4.4273,-4.3816,-4.3144,-4.2699,-4.2241,-4.1903,-4.152,-4.1308,-4.1191,-4.1191,-4.1191,-4.1172,-4.1151,-4.108,-4.1003,-4.0905,-4.0815,-4.0765,-4.0688,-4.0571,-4.0561,-4.0519,-4.0466,-4.0477,-4.0496,-4.0496,-4.0496,-4.0496,-4.0496,-4.0496,-4.0496,-4.0496,-4.0496,-4.0496,-4.0496,-4.0496,-4.0496,-4.0489,-4.0489,-4.0484,-4.0449,-4.0187,-4.0103,-4.0251,-4.0266,-4.0659,-4.1348,-4.2051,-4.2396,-4.2873,-4.324,-4.3479,-4.3461,-4.3479,-4.3479,-4.3479,-4.3479,-4.3479,-4.3479,-4.3479,-4.3479,-4.3479,-4.3479,-4.3442,-4.3479,-4.3424,-4.2782,-4.2323,-4.2286,-4.2213,-4.2249,-4.2323,-4.2396,-4.2543,-4.2818,-4.3057,-4.3277,-4.3406,-4.3461,-4.3479,-4.3479,-4.3479,-4.3479,-4.3479,-4.3314,-4.3094,-4.2488,-4.1644,-4.0873,-4.023,-3.957,-3.8909,-3.8707,-3.8707,-3.8707,-3.8707,-3.8637,-3.86,-3.8606,-3.8567,-4.5934,-4.5533,-4.5209,-4.5148,-4.5302,-4.5504,-4.5594,-4.5594,-4.5594,-4.5594,-4.5594,-4.5575,-4.5201,-4.4583,-4.4253,-4.3721,-4.3176,-4.2271,-4.1965,-4.1688,-4.1436,-4.1181,-4.1152,-4.1172,-4.1172,-4.1191,-4.1191,-4.1191,-4.1152,-4.1098,-4.0974,-4.0917,-4.0848,-4.0757,-4.0655,-4.0607,-4.0583,-4.0496,-4.0496,-4.0496,-4.0496,-4.0496,-4.0496,-4.0496,-4.0496,-4.0496,-4.0496,-4.0496,-4.0496,-4.0496,-4.0496,-4.0496,-4.0496,-4.0489,-4.05,-4.0471,-4.036,-4.0759,-4.1054,-4.1293,-4.1605,-4.2232,-4.2777,-4.2944,-4.3296,-4.3479,-4.3479,-4.3479,-4.3479,-4.3479,-4.3479,-4.3479,-4.3479,-4.3479,-4.3479,-4.3479,-4.3479,-4.3479,-4.3479,-4.3479,-4.3479,-4.3479,-4.3185,-4.3314,-4.3369,-4.3406,-4.3479,-4.3479,-4.3461,-4.346,-4.3442,-4.3479,-4.3479,-4.3479,-4.3496,-4.3496,-4.3496,-4.3513,-4.3513,-4.3441,-4.3256,-4.2707,-4.1901,-4.1185,-4.054,-3.9643,-3.8891,-3.8781,-3.8707,-3.8707,-3.8707,-3.8707,-3.8673,-3.8692,-3.8653,-4.5653,-4.5233,-4.5022,-4.5019,-4.5241,-4.5495,-4.5594,-4.5594,-4.5594,-4.5594,-4.5594,-4.5575,-4.5537,-4.5084,-4.402,-4.3351,-4.3064,-4.1587,-4.1238,-4.1119,-4.0986,-4.1044,-4.1082,-4.111,-4.1152,-4.1191,-4.1191,-4.1191,-4.1191,-4.1131,-4.1056,-4.1009,-4.0926,-4.0824,-4.074,-4.0675,-4.0605,-4.0539,-4.0496,-4.0496,-4.0496,-4.0496,-4.0496,-4.0496,-4.0496,-4.0496,-4.0496,-4.0496,-4.0496,-4.0496,-4.0496,-4.0496,-4.0496,-4.0662,-4.0712,-4.0723,-4.0888,-4.1487,-4.2201,-4.2155,-4.228,-4.2808,-4.323,-4.3398,-4.3478,-4.3479,-4.3479,-4.3479,-4.3479,-4.3479,-4.3479,-4.3479,-4.3479,-4.3479,-4.3479,-4.3479,-4.3479,-4.3479,-4.3479,-4.3479,-4.3479,-4.3479,-4.3479,-4.3479,-4.3479,-4.3479,-4.3479,-4.3479,-4.3479,-4.3461,-4.3461,-4.3479,-4.3479,-4.3496,-4.3515,-4.3532,-4.3583,-4.3615,-4.3632,-4.3599,-4.351,-4.2849,-4.2402,-4.1618,-4.0969,-3.9911,-3.9038,-3.9074,-3.9019,-3.8799,-3.8707,-3.8707,-3.8692,-3.8695,-3.869,-4.5142,-4.5106,-4.4754,-4.4807,-4.5164,-4.5486,-4.5594,-4.5594,-4.5594,-4.5594,-4.5594,-4.5575,-4.5306,-4.4729,-4.4256,-4.3222,-4.2414,-4.1858,-4.1246,-4.0922,-4.0875,-4.0975,-4.1039,-4.1102,-4.1152,-4.1191,-4.1191,-4.1191,-4.1191,-4.1172,-4.1152,-4.1101,-4.1027,-4.0928,-4.0844,-4.0712,-4.0633,-4.0588,-4.0523,-4.0496,-4.0496,-4.0496,-4.0496,-4.0496,-4.0496,-4.0496,-4.0496,-4.0496,-4.0496,-4.0496,-4.0496,-4.0535,-4.0681,-4.0989,-4.1219,-4.1373,-4.1662,-4.2514,-4.3223,-4.2976,-4.2724,-4.3415,-4.3722,-4.3718,-4.3583,-4.3496,-4.3496,-4.3479,-4.3513,-4.3531,-4.3496,-4.3496,-4.3479,-4.3479,-4.3496,-4.3496,-4.3479,-4.3479,-4.3479,-4.3479,-4.3479,-4.3479,-4.3479,-4.3479,-4.3479,-4.3479,-4.3479,-4.3479,-4.3479,-4.3479,-4.3479,-4.3479,-4.3479,-4.3549,-4.3566,-4.3617,-4.3684,-4.3732,-4.3781,-4.3812,-4.3825,-4.374,-4.3233,-4.2377,-4.1559,-4.0754,-4.0081,-3.9635,-3.9273,-3.8872,-3.8726,-3.8707,-3.8692,-3.8728,-3.8719,-4.4702,-4.4675,-4.442,-4.4552,-4.5026,-4.5361,-4.5514,-4.5532,-4.5522,-4.5568,-4.5594,-4.5575,-4.5297,-4.4759,-4.4316,-4.3585,-4.2533,-4.1959,-4.1375,-4.1027,-4.0811,-4.0917,-4.1011,-4.107,-4.1133,-4.1191,-4.1191,-4.1191,-4.1191,-4.1191,-4.1191,-4.1152,-4.1099,-4.0996,-4.0914,-4.0757,-4.0635,-4.0624,-4.0546,-4.0496,-4.0496,-4.0496,-4.0496,-4.0496,-4.0496,-4.0496,-4.0496,-4.0496,-4.0496,-4.0496,-4.0535,-4.065,-4.0989,-4.1431,-4.1873,-4.2316,-4.2797,-4.3492,-4.3844,-4.3921,-4.3512,-4.4032,-4.4028,-4.3908,-4.3732,-4.3649,-4.3699,-4.3682,-4.3666,-4.3631,-4.3649,-4.3666,-4.3634,-4.3651,-4.3548,-4.3531,-4.3496,-4.3479,-4.3479,-4.3479,-4.3479,-4.3479,-4.3479,-4.3479,-4.3496,-4.3496,-4.3479,-4.3479,-4.3479,-4.3479,-4.3479,-4.3479,-4.3479,-4.3566,-4.3634,-4.3747,-4.3889,-4.4026,-4.4102,-4.4173,-4.4188,-4.4106,-4.3785,-4.288,-4.2158,-4.1619,-4.0945,-4.0207,-3.9485,-3.8836,-3.8759,-3.8735,-3.885,-3.8884,-3.8762,-4.4336,-4.3874,-4.3965,-4.4332,-4.4796,-4.514,-4.5309,-4.536,-4.541,-4.5485,-4.5586,-4.5594,-4.5594,-4.5306,-4.4759,-4.3874,-4.2997,-4.2345,-4.1685,-4.11,-4.1017,-4.1006,-4.1042,-4.1152,-4.1133,-4.1191,-4.1191,-4.1191,-4.1191,-4.1191,-4.1191,-4.1191,-4.113,-4.1058,-4.1003,-4.0795,-4.0712,-4.0694,-4.0564,-4.0519,-4.0535,-4.0593,-4.07,-4.0727,-4.0912,-4.1008,-4.0777,-4.0758,-4.0719,-4.0516,-4.0689,-4.0989,-4.1546,-4.1931,-4.2431,-4.3047,-4.3201,-4.3662,-4.4241,-4.4715,-4.4732,-4.4491,-4.4411,-4.4231,-4.4064,-4.3986,-4.3983,-4.403,-4.3999,-4.4002,-4.3974,-4.3926,-4.3897,-4.3783,-4.3699,-4.3582,-4.3531,-4.3479,-4.3479,-4.3479,-4.3479,-4.3479,-4.3479,-4.3496,-4.3496,-4.3496,-4.3496,-4.3496,-4.3548,-4.3582,-4.3632,-4.3632,-4.3649,-4.3747,-4.386,-4.3962,-4.4095,-4.4256,-4.4416,-4.4511,-4.4414,-4.4244,-4.3802,-4.3251,-4.2894,-4.2481,-4.1553,-4.0634,-4.0035,-3.9485,-3.8939,-3.8825,-3.8973,-3.9017,-3.8906,-4.3823,-4.3684,-4.386,-4.4064,-4.4331,-4.4688,-4.491,-4.5026,-4.5241,-4.5448,-4.5577,-4.5594,-4.5594,-4.546,-4.522,-4.4412,-4.3305,-4.3613,-4.2922,-4.1547,-4.1532,-4.165,-4.1614,-4.1323,-4.1172,-4.1172,-4.1191,-4.1211,-4.1191,-4.1211,-4.1211,-4.1191,-4.1172,-4.1124,-4.1001,-4.0871,-4.0824,-4.0756,-4.0636,-4.0564,-4.0669,-4.1062,-4.1354,-4.1373,-4.1816,-4.1835,-4.1393,-4.1335,-4.1085,-4.0823,-4.1016,-4.1508,-4.2124,-4.2566,-4.3508,-4.4008,-4.4259,-4.4844,-4.5115,-4.5304,-4.5203,-4.4954,-4.4745,-4.4599,-4.4425,-4.4397,-4.4397,-4.4402,-4.4388,-4.4388,-4.4402,-4.4289,-4.4192,-4.3965,-4.3839,-4.3682,-4.3582,-4.3513,-4.3479,-4.3479,-4.3479,-4.3513,-4.3531,-4.3615,-4.3649,-4.3732,-4.3747,-4.3765,-4.3798,-4.3846,-4.3876,-4.3878,-4.3892,-4.3986,-4.4087,-4.4256,-4.4433,-4.4643,-4.4795,-4.49,-4.4728,-4.4516,-4.4426,-4.4196,-4.3779,-4.332,-4.2403,-4.1541,-4.0837,-4.0241,-3.9814,-3.9527,-3.9723,-3.9496,-3.9045,-4.3513,-4.3582,-4.3701,-4.3781,-4.3892,-4.4289,-4.4591,-4.4788,-4.5094,-4.5341,-4.5495,-4.554,-4.5558,-4.5586,-4.5479,-4.496,-4.3662,-4.397,-4.3739,-4.2371,-4.2372,-4.2249,-4.195,-4.1734,-4.1665,-4.1519,-4.1328,-4.1269,-4.1641,-4.1328,-4.1211,-4.1191,-4.1211,-4.1152,-4.1042,-4.0956,-4.1116,-4.117,-4.1277,-4.1375,-4.1654,-4.1986,-4.2258,-4.2393,-4.2624,-4.2777,-4.2335,-4.197,-4.172,-4.1527,-4.1662,-4.2162,-4.2797,-4.3528,-4.4451,-4.4836,-4.5171,-4.5556,-4.5538,-4.553,-4.541,-4.5273,-4.5107,-4.495,-4.4807,-4.4777,-4.4777,-4.4777,-4.477,-4.477,-4.4758,-4.4643,-4.4484,-4.4256,-4.4084,-4.3936,-4.3763,-4.3714,-4.3714,-4.3681,-4.3681,-4.3664,-4.3682,-4.3732,-4.3795,-4.3908,-4.4017,-4.4048,-4.4079,-4.4136,-4.4196,-4.4196,-4.4206,-4.4303,-4.4457,-4.4624,-4.4807,-4.5019,-4.5129,-4.5216,-4.526,-4.509,-4.511,-4.5068,-4.4595,-4.4014,-4.3281,-4.2519,-4.1931,-4.1394,-4.0905,-4.0694,-4.06,-4.0212,-3.975,-4.3479,-4.3479,-4.3479,-4.3496,-4.3582,-4.3999,-4.436,-4.4676,-4.4941,-4.5186,-4.539,-4.5448,-4.5522,-4.5586,-4.5594,-4.5056,-4.4432,-4.4374,-4.3874,-4.3368,-4.3211,-4.2847,-4.2577,-4.237,-4.2342,-4.2131,-4.193,-4.1953,-4.2266,-4.1543,-4.1211,-4.1348,-4.1445,-4.1523,-4.1496,-4.1597,-4.173,-4.1852,-4.2082,-4.2285,-4.2659,-4.3038,-4.3137,-4.3256,-4.3401,-4.3412,-4.3028,-4.2604,-4.2566,-4.245,-4.2412,-4.3066,-4.3701,-4.4297,-4.4874,-4.5306,-4.5556,-4.5575,-4.5594,-4.5605,-4.5577,-4.5466,-4.5342,-4.5218,-4.5143,-4.5121,-4.5113,-4.5121,-4.5132,-4.5109,-4.5106,-4.4953,-4.4814,-4.4617,-4.4425,-4.4246,-4.4091,-4.403,-4.4048,-4.403,-4.403,-4.403,-4.4045,-4.406,-4.4102,-4.426,-4.4402,-4.4498,-4.4525,-4.4525,-4.4578,-4.4597,-4.4617,-4.4663,-4.4788,-4.4927,-4.5052,-4.521,-4.5361,-4.5457,-4.5541,-4.5532,-4.541,-4.5272,-4.518,-4.4703,-4.402,-4.3542,-4.3152,-4.2655,-4.2334,-4.1961,-4.1905,-4.1383,-4.0906,-4.3479,-4.3479,-4.3479,-4.3479,-4.3513,-4.3697,-4.3931,-4.4223,-4.4533,-4.4856,-4.5182,-4.5293,-4.5448,-4.5586,-4.5594,-4.5047,-4.4855,-4.4759,-4.4566,-4.4281,-4.4029,-4.3935,-4.3683,-4.3311,-4.3211,-4.314,-4.2992,-4.2656,-4.2324,-4.166,-4.168,-4.1973,-4.2051,-4.2324,-4.2637,-4.291,-4.2692,-4.2604,-4.2879,-4.3237,-4.3582,-4.3887,-4.3956,-4.4113,-4.4468,-4.4382,-4.3932,-4.3624,-4.3508,-4.3085,-4.347,-4.4008,-4.4124,-4.4836,-4.5479,-4.5518,-4.5594,-4.5594,-4.5594,-4.5594,-4.5594,-4.5594,-4.5504,-4.5523,-4.5477,-4.5419,-4.541,-4.539,-4.538,-4.5361,-4.5341,-4.5239,-4.5102,-4.4915,-4.4739,-4.4599,-4.4457,-4.4421,-4.4421,-4.4421,-4.4402,-4.4407,-4.4421,-4.4435,-4.4498,-4.4656,-4.4795,-4.4879,-4.495,-4.4938,-4.4938,-4.4957,-4.4969,-4.4996,-4.5052,-4.5169,-4.5273,-4.5419,-4.5522,-4.5594,-4.5577,-4.5559,-4.555,-4.5457,-4.5332,-4.5131,-4.4791,-4.4395,-4.4087,-4.4315,-4.4098,-4.3588,-4.3096,-4.255,-4.2061,-4.3479,-4.3479,-4.3479,-4.3479,-4.3496,-4.3549,-4.3662,-4.3868,-4.4198,-4.4599,-4.4931,-4.5126,-4.5351,-4.5495,-4.5512,-4.5299,-4.4979,-4.5248,-4.521,-4.5007,-4.4826,-4.4611,-4.4389,-4.4156,-4.4039,-4.4005,-4.3858,-4.3535,-4.3105,-4.2656,-4.2558,-4.2851,-4.291,-4.3203,-4.3574,-4.3828,-4.3887,-4.3762,-4.3808,-4.4125,-4.4452,-4.4731,-4.4868,-4.497,-4.5453,-4.5171,-4.4816,-4.4586,-4.4162,-4.3951,-4.4509,-4.4489,-4.4682,-4.5344,-4.5575,-4.5594,-4.5594,-4.5594,-4.5594,-4.5594,-4.5594,-4.5594,-4.5594,-4.5586,-4.5577,-4.555,-4.5559,-4.555,-4.5568,-4.5577,-4.555,-4.5495,-4.5342,-4.5171,-4.5063,-4.495,-4.4868,-4.4814,-4.4801,-4.4801,-4.4801,-4.4808,-4.482,-4.4814,-4.4831,-4.495,-4.5052,-4.514,-4.5222,-4.5282,-4.5282,-4.5282,-4.5301,-4.5321,-4.5361,-4.5352,-4.5429,-4.5504,-4.554,-4.5594,-4.5594,-4.5586,-4.5568,-4.5522,-4.5467,-4.5293,-4.5144,-4.5223,-4.511,-4.5234,-4.5204,-4.4756,-4.4163,-4.3684,-4.3224,-4.3479,-4.3479,-4.3479,-4.3479,-4.3479,-4.3496,-4.3496,-4.3548,-4.3968,-4.4313,-4.4637,-4.4917,-4.5164,-4.5351,-4.541,-4.5522,-4.5385,-4.5537,-4.5575,-4.5575,-4.5456,-4.5213,-4.4892,-4.4711,-4.4642,-4.452,-4.4467,-4.4453,-4.4531,-4.3945,-4.334,-4.3769,-4.3808,-4.4023,-4.4355,-4.4844,-4.4961,-4.4936,-4.4935,-4.515,-4.5628,-4.5839,-4.5769,-4.5645,-4.5621,-4.5518,-4.5344,-4.5066,-4.4739,-4.5009,-4.5086,-4.4921,-4.5248,-4.5537,-4.5575,-4.5594,-4.5594,-4.5594,-4.5594,-4.5594,-4.5594,-4.5594,-4.5594,-4.5594,-4.5594,-4.5594,-4.5594,-4.5594,-4.5594,-4.5594,-4.5577,-4.5559,-4.5438,-4.5362,-4.5273,-4.5211,-4.5188,-4.5145,-4.5145,-4.5145,-4.5145,-4.5135,-4.5145,-4.5145,-4.5148,-4.5222,-4.5273,-4.5381,-4.5429,-4.5504,-4.5523,-4.5513,-4.5505,-4.5486,-4.5495,-4.5504,-4.5531,-4.5586,-4.5594,-4.5594,-4.5594,-4.5594,-4.5594,-4.5559,-4.5513,-4.5559,-4.5513,-4.5495,-4.5476,-4.5485,-4.5475,-4.554,-4.5185,-4.4603,-4.4422,-4.3479,-4.3479,-4.3479,-4.3479,-4.3479,-4.3479,-4.3479,-4.3515,-4.3666,-4.3899,-4.4194,-4.4519,-4.4856,-4.5169,-4.5312,-4.5429,-4.5577,-4.5594,-4.5594,-4.5594,-4.5612,-4.5533,-4.5351,-4.5322,-4.5215,-4.509,-4.5117,-4.5273,-4.5,-4.4394,-4.4101,-4.4609,-4.4707,-4.4883,-4.5391,-4.584,-4.584,-4.5801,-4.582,-4.582,-4.606,-4.5998,-4.5835,-4.5747,-4.5665,-4.5603,-4.5498,-4.546,-4.5364,-4.5479,-4.5441,-4.5441,-4.5594,-4.5594,-4.5594,-4.5594,-4.5594,-4.5594,-4.5594,-4.5594,-4.5594,-4.5594,-4.5594,-4.5594,-4.5594,-4.5594,-4.5594,-4.5594,-4.5594,-4.5594,-4.5586,-4.5577,-4.5568,-4.5522,-4.5475,-4.5467,-4.5438,-4.5448,-4.5448,-4.5448,-4.5448,-4.5448,-4.5458,-4.5467,-4.5495,-4.5495,-4.5504,-4.555,-4.5522,-4.5568,-4.5568,-4.5568,-4.5577,-4.5568,-4.5594,-4.5594,-4.5594,-4.5594,-4.5594,-4.5594,-4.5594,-4.5594,-4.5594,-4.5594,-4.5586,-4.5594,-4.5594,-4.5586,-4.5577,-4.5594,-4.5594,-4.5594,-4.5594,-4.5166,-4.5281,-4.3479,-4.3479,-4.3479,-4.3479,-4.3479,-4.3479,-4.3479,-4.3515,-4.3531,-4.3629,-4.3836,-4.4227,-4.4637,-4.4988,-4.5191,-4.54,-4.5568,-4.5594,-4.5594,-4.5594,-4.5594,-4.5594,-4.5662,-4.5739,-4.5621,-4.5493,-4.5852,-4.5886,-4.5448,-4.5312,-4.5273,-4.5488,-4.5586,-4.5781,-4.6289,-4.6289,-4.6289,-4.6269,-4.6289,-4.6269,-4.6197,-4.6025,-4.5886,-4.5809,-4.5696,-4.5629,-4.5594,-4.5594,-4.5594,-4.5594,-4.5556,-4.5556,-4.5594,-4.5594,-4.5594,-4.5594,-4.5594,-4.5594,-4.5594,-4.5594,-4.5594,-4.5594,-4.5594,-4.5594,-4.5594,-4.5594,-4.5594,-4.5594,-4.5594,-4.5594,-4.5594,-4.5586,-4.5586,-4.5549,-4.554,-4.555,-4.5541,-4.5541,-4.5541,-4.5541,-4.5541,-4.5541,-4.5541,-4.5541,-4.5559,-4.5559,-4.5586,-4.5586,-4.5594,-4.5594,-4.5594,-4.5594,-4.5594,-4.5594,-4.5594,-4.5594,-4.5594,-4.5594,-4.5594,-4.5594,-4.5594,-4.5594,-4.5594,-4.5594,-4.5594,-4.5594,-4.5594,-4.5594,-4.5594,-4.5594,-4.5594,-4.5594,-4.5594,-4.5594,-4.5586,-4.3314,-4.3349,-4.3332,-4.3423,-4.3479,-4.3479,-4.3479,-4.3496,-4.3479,-4.3496,-4.3599,-4.4023,-4.4465,-4.4812,-4.5085,-4.5342,-4.5522,-4.5586,-4.5594,-4.5594,-4.5594,-4.5594,-4.5637,-4.5708,-4.5732,-4.5735,-4.5894,-4.6132,-4.609,-4.5976,-4.5976,-4.625,-4.6289,-4.6289,-4.6289,-4.6289,-4.6289,-4.6289,-4.6289,-4.6289,-4.6183,-4.606,-4.5969,-4.586,-4.5746,-4.5648,-4.5603,-4.5594,-4.5594,-4.5594,-4.5594,-4.5594,-4.5594,-4.5594,-4.5594,-4.5594,-4.5594,-4.5594,-4.5594,-4.5594,-4.5594,-4.5594,-4.5594,-4.5594,-4.5594,-4.5594,-4.5594,-4.5594,-4.5594,-4.5594,-4.5594,-4.5594,-4.5594,-4.5594,-4.5594,-4.5594,-4.5594,-4.5594,-4.5594,-4.5594,-4.5594,-4.5594,-4.5594,-4.5594,-4.5594,-4.5594,-4.5594,-4.5594,-4.5594,-4.5594,-4.5594,-4.5594,-4.5594,-4.5594,-4.5594,-4.5594,-4.5594,-4.5594,-4.5594,-4.5594,-4.5594,-4.5594,-4.5594,-4.5594,-4.5594,-4.5594,-4.5594,-4.5594,-4.5594,-4.5594,-4.5594,-4.5594,-4.5594,-4.5594,-4.5594,-4.2525,-4.2525,-4.2543,-4.2873,-4.3406,-4.3479,-4.3479,-4.3479,-4.3479,-4.3479,-4.3565,-4.383,-4.4221,-4.4676,-4.4976,-4.526,-4.5522,-4.5577,-4.5594,-4.5594,-4.5594,-4.5594,-4.5629,-4.57,-4.5835,-4.5804,-4.5699,-4.5613,-4.6124,-4.6269,-4.6289,-4.6289,-4.6289,-4.6289,-4.6289,-4.6289,-4.6289,-4.6289,-4.6289,-4.6288,-4.6256,-4.615,-4.6056,-4.5944,-4.5793,-4.5719,-4.5673,-4.5631,-4.5603,-4.5594,-4.5594,-4.5594,-4.5594,-4.5594,-4.5594,-4.5594,-4.5594,-4.5594,-4.5594,-4.5594,-4.5594,-4.5594,-4.5594,-4.5594,-4.5594,-4.5594,-4.5594,-4.5594,-4.5594,-4.5594,-4.5594,-4.5594,-4.5594,-4.5594,-4.5594,-4.5594,-4.5594,-4.5594,-4.5594,-4.5594,-4.5594,-4.5594,-4.5594,-4.5594,-4.5594,-4.5594,-4.5594,-4.5594,-4.5594,-4.5594,-4.5594,-4.5594,-4.5594,-4.5594,-4.5594,-4.5594,-4.5594,-4.5594,-4.5594,-4.5594,-4.5594,-4.5594,-4.5594,-4.5594,-4.5594,-4.5594,-4.5594,-4.5594,-4.5594,-4.5594,-4.5594,-4.5594,-4.5594,-4.5594,-4.5594]},{"header":{"parameterUnit":"m.s-1","parameterCategory":1,"la1":31.0,"la2":29.5877,"lo1":-88.7671,"lo2":-86.6584,"dy":0.0162,"dx":0.0185,"nx":115,"ny":88,"refTime":"2026-04-24T18:00:00:Z","depth":0,"parameterNumber":3,"parameterNumberName":"V-component_of_WINDS"},"data":[0.0,0.0,0.0,0.0,0.0,0.0,0.0,0.0,0.0,0.0,0.0,0.0,0.0,0.0,0.0,0.0,0.0,0.0,0.0,0.0,0.0,0.0,0.0,0.0,0.0,0.0,0.0,0.0,0.0,0.0,0.0,0.0,0.0,0.0,0.0,0.0,0.0,0.0,0.0,0.0,0.0,0.0,0.0,0.0,0.0,0.0,0.0,0.0,0.0,0.0,0.0,0.0,0.0,0.0,0.0,0.0,0.0,0.0,0.0,0.0,0.0,0.0,0.0,0.0,0.0,0.0,0.0,0.0,0.0,0.0,0.0,0.0,0.0,0.0,0.0,0.0,0.0,0.0,0.0,0.0,0.0,0.0,0.0,0.0,0.0,0.0,0.0,0.0,0.0,0.0,0.0,0.0,0.0,0.0,0.0,0.0,0.0,0.0,0.0,0.0,0.0,0.0,0.0,0.0,0.0,0.0,0.0,0.0,0.0,0.0,0.0,0.0,0.0,0.0,0.0,0.0,0.0,0.0,0.0,0.0,0.0,0.0,0.0,0.0,0.0,0.0,0.0,0.0,0.0,0.0,0.0,0.0,0.0,0.0,0.0,0.0,0.0,0.0,0.0,0.0,0.0,0.0,0.0,0.0,0.0,0.0,0.0,0.0,0.0,0.0,0.0,0.0,0.0,0.0,0.0,0.0,0.0,0.0,0.0,0.0,0.0,0.0,0.0,0.0,0.0,0.0,0.0,0.0,0.0,0.0,0.0,0.0,0.0,0.0,0.0,0.0,0.0,0.0,0.0,0.0,0.0,0.0,0.0,0.0,0.0,0.0,0.0,0.0,0.0,0.0,0.0,0.0,0.0,0.0,0.0,0.0,0.0,0.0,0.0,0.0,0.0,0.0,0.0,0.0,0.0,0.0,0.0,0.0,0.0,0.0,0.0,0.0,0.0,0.0,0.0,0.0,0.0,0.0,0.0,0.0,0.0,0.0,0.0,0.0,0.0,0.0,0.0,0.0,0.0,0.0,0.0,0.0,0.0,0.0,0.0,0.0,0.0,0.0,0.0,0.0,0.0,0.0,0.0,0.0,0.0,0.0,0.0,0.0,0.0,0.0,0.0,0.0,0.0,0.0,0.0,0.0,0.0,0.0,0.0,0.0,0.0,0.0,0.0,0.0,0.0,0.0,0.0,0.0,0.0,0.0,0.0,0.0,0.0,0.0,0.0,0.0,0.0,0.0,0.0,0.0,0.0,0.0,0.0,0.0,0.0,0.0,0.0,0.0,0.0,0.0,0.0,0.0,0.0,0.0,0.0,0.0,0.0,0.0,0.0,0.0,0.0,0.0,0.0,0.0,0.0,0.0,0.0,0.0,0.0,0.0,0.0,0.0,0.0,0.0,0.0,0.0,0.0,0.0,0.0,0.0,0.0,0.0,0.0,0.0,0.0,0.0,0.0,0.0,0.0,0.0,0.0,0.0,0.0,0.0,0.0,0.0,0.0,0.0,0.0,0.0,0.0,0.0,0.0,0.0,0.0,0.0,0.0,0.0,0.0,0.0,0.0,0.0,0.0,0.0,0.0,0.0,0.0,0.0,0.0,0.0,0.0,0.0,0.0,0.0,0.0,0.0,0.0,0.0,0.0,0.0,0.0,0.0,0.0,0.0,0.0,0.0,0.0,0.0,0.0,0.0,0.0,0.0,0.0,0.0,0.0,0.0,0.0,0.0,0.0,0.0,0.0,0.0,0.0,0.0,0.0,0.0,0.0,0.0,0.0,0.0,0.0,0.0,0.0,0.0,0.0,0.0,0.0,0.0,0.0,0.0,0.0,0.0,0.0,0.0,0.0,0.0,0.0,0.0,0.0,0.0,0.0,0.0,0.0,0.0,0.0,0.0,0.0,0.0,0.0,0.0,0.0,0.0,0.0,0.0,0.0,0.0,0.0,0.0,0.0,0.0,0.0,0.0,0.0,0.0,0.0,0.0,0.0,0.0,0.0,0.0,0.0,0.0,0.0,0.0,0.0,0.0,0.0,0.0,0.0,0.0,0.0,0.0,0.0,0.0,0.0,0.0,0.0,0.0,0.0,0.0,0.0,0.0,0.0,0.0,0.0,0.0,0.0,0.0,0.0,0.0,0.0,0.0,0.0,0.0,0.0,0.0,0.0,0.0,0.0,0.0,0.0,0.0,0.0,0.0,0.0,0.0,0.0,0.0,0.0,0.0,0.0,0.0,0.0,0.0,0.0,0.0,0.0,0.0,0.0,0.0,0.0,0.0,0.0,0.0,0.0,0.0,0.0,0.0,0.0,0.0,0.0,0.0,0.0,0.0,0.0,0.0,0.0,0.0,0.0,0.0,0.0,0.0,0.0,0.0,0.0,0.0,0.0,0.0,0.0,0.0,0.0,0.0,0.0,0.0,0.0,0.0,0.0,0.0,0.0,0.0,0.0,0.0,0.0,0.0,0.0,0.0,0.0,0.0,0.0,0.0,0.0,0.0,0.0,0.0,0.0,0.0,0.0,0.0,0.0,0.0,0.0,0.0,0.0,0.0,0.0,0.0,0.0,0.0,0.0,0.0,0.0,0.0,0.0,0.0,0.0,0.0,0.0,0.0,0.0,0.0,0.0,0.0,0.0,0.0,0.0,0.0,0.0,0.0,0.0,0.0,0.0,0.0,0.0,0.0,0.0,0.0,0.0,0.0,0.0,0.0,0.0,0.0,0.0,0.0,0.0,0.0,0.0,0.0,0.0,0.0,0.0,0.0,0.0,0.0,0.0,0.0,0.0,0.0,0.0,0.0,0.0,0.0,0.0,0.0,0.0,0.0,0.0,0.0,0.0,0.0,0.0,0.0,0.0,0.0,0.0,0.0,0.0,0.0,0.0,0.0,0.0,0.0,0.0,0.0,0.0,0.0,0.0,0.0,0.0,0.0,0.0,0.0,0.0,0.0,0.0,0.0,0.0,0.0,0.0,0.0,0.0,0.0,0.0,0.0,0.0,0.0,0.0,0.0,0.0,0.0,0.0,0.0,0.0,0.0,0.0,0.0,0.0,0.0,0.0,0.0,0.0,0.0,0.0,0.0,0.0,0.0,0.0,0.0,0.0,0.0,0.0,0.0,0.0,0.0,0.0,0.0,0.0,0.0,0.0,0.0,0.0,0.0,0.0,0.0,0.0,0.0,0.0,0.0,0.0,0.0,0.0,0.0,0.0,0.0,0.0,0.0,0.0,0.0,0.0,0.0,0.0,0.0,0.0,0.0,0.0,0.0,0.0,0.0,0.0,0.0,0.0,0.0,0.0,0.0,0.0,0.0,0.0,0.0,0.0,0.0,0.0,0.0,0.0,0.0,0.0,0.0,0.0,0.0,0.0,0.0,0.0,0.0,0.0,0.0,0.0,0.0,0.0,0.0,0.0,0.0,0.0,0.0,0.0,0.0,0.0,0.0,0.0,0.0,0.0,0.0,0.0,0.0,0.0,0.0,0.0,0.0,0.0,0.0,0.0,0.0,0.0,0.0,0.0,0.0,0.0,0.0,0.0,0.0,0.0,0.0,0.0,0.0,0.0,0.0,0.0,0.0,0.0,0.0,0.0,0.0,0.0,0.0,0.0,0.0,0.0,0.0,0.0,0.0,0.0,0.0,0.0,0.0,0.0,0.0,0.0,0.0,0.0,0.0,0.0,0.0,0.0,0.0,0.0,0.0,0.0,0.0,0.0,0.0,0.0,0.0,0.0,0.0,0.0,0.0,0.0,0.0,0.0,0.0,0.0,0.0,0.0,0.0,0.0,0.0,0.0,0.0,0.0,0.0,0.0,0.0,0.0,0.0,0.0,0.0,0.0,0.0,0.0,0.0,0.0,0.0,0.0,0.0,0.0,0.0,0.0,0.0,0.0,0.0,0.0,0.0,0.0,0.0,0.0,0.0,0.0,0.0,0.0,0.0,0.0,0.0,0.0,0.0,0.0,0.0,0.0,0.0,0.0,0.0,0.0,0.0,0.0,0.0,0.0,0.0,0.0,0.0,0.0,0.0,0.0,0.0,0.0,0.0,0.0,0.0,0.0,0.0,0.0,0.0,0.0,0.0,0.0,0.0,0.0,0.0,0.0,0.0,0.0,0.0,0.0,0.0,0.0,0.0,0.0,0.0,0.0,0.0,0.0,0.0,0.0,0.0,0.0,0.0,0.0,0.0,0.0,0.0,0.0,0.0,0.0,0.0,0.0,0.0,0.0,0.0,0.0,0.0,0.0,0.0,0.0,0.0,0.0,0.0,0.0,0.0,0.0,0.0,-1.9238,0.0,0.0,0.0,0.0,0.0,0.0,0.0,0.0,0.0,0.0,0.0,0.0,0.0,0.0,0.0,0.0,0.0,0.0,0.0,0.0,0.0,0.0,0.0,0.0,0.0,0.0,0.0,0.0,0.0,0.0,0.0,0.0,0.0,0.0,0.0,0.0,0.0,0.0,0.0,0.0,0.0,0.0,0.0,0.0,0.0,0.0,0.0,0.0,0.0,0.0,0.0,0.0,0.0,0.0,0.0,0.0,0.0,0.0,0.0,0.0,0.0,0.0,0.0,0.0,0.0,0.0,0.0,0.0,0.0,0.0,0.0,0.0,0.0,0.0,0.0,0.0,0.0,0.0,0.0,0.0,0.0,0.0,0.0,0.0,0.0,0.0,0.0,0.0,0.0,0.0,0.0,0.0,0.0,0.0,0.0,0.0,0.0,0.0,0.0,0.0,0.0,0.0,0.0,0.0,0.0,0.0,0.0,0.0,0.0,0.0,-1.9872,-2.0166,-1.9343,-1.857,-1.7839,0.0,0.0,0.0,0.0,0.0,0.0,0.0,0.0,0.0,0.0,0.0,0.0,0.0,0.0,0.0,0.0,0.0,0.0,0.0,0.0,0.0,0.0,0.0,0.0,0.0,0.0,0.0,0.0,0.0,0.0,0.0,0.0,0.0,0.0,0.0,0.0,0.0,0.0,0.0,0.0,0.0,0.0,0.0,0.0,0.0,0.0,0.0,0.0,0.0,0.0,0.0,0.0,0.0,0.0,0.0,0.0,0.0,0.0,0.0,0.0,0.0,0.0,0.0,0.0,0.0,0.0,0.0,0.0,0.0,0.0,0.0,0.0,0.0,0.0,0.0,0.0,0.0,0.0,0.0,0.0,0.0,0.0,0.0,0.0,0.0,0.0,0.0,0.0,0.0,0.0,0.0,0.0,0.0,0.0,0.0,0.0,0.0,0.0,0.0,0.0,0.0,0.0,0.0,0.0,0.0,0.0,0.0,0.0,0.0,0.0,0.0,0.0,-1.8801,-1.8004,-1.7107,0.0,0.0,0.0,0.0,0.0,0.0,0.0,0.0,0.0,0.0,0.0,0.0,0.0,0.0,0.0,0.0,0.0,0.0,0.0,0.0,0.0,0.0,0.0,0.0,0.0,0.0,0.0,0.0,0.0,0.0,0.0,0.0,0.0,0.0,0.0,0.0,0.0,0.0,0.0,0.0,0.0,0.0,0.0,0.0,0.0,0.0,0.0,0.0,0.0,0.0,0.0,0.0,0.0,0.0,0.0,0.0,0.0,0.0,0.0,0.0,0.0,0.0,0.0,0.0,0.0,0.0,0.0,0.0,0.0,0.0,0.0,0.0,0.0,0.0,0.0,0.0,0.0,0.0,0.0,0.0,0.0,0.0,0.0,0.0,0.0,0.0,0.0,0.0,0.0,0.0,0.0,0.0,0.0,0.0,0.0,0.0,0.0,0.0,0.0,0.0,0.0,0.0,0.0,0.0,0.0,0.0,0.0,0.0,0.0,0.0,-1.911,-1.9309,-1.8761,0.0,-1.8115,0.0,0.0,0.0,0.0,0.0,0.0,0.0,0.0,0.0,0.0,0.0,0.0,0.0,0.0,0.0,0.0,0.0,0.0,0.0,0.0,0.0,0.0,0.0,0.0,0.0,0.0,0.0,0.0,0.0,0.0,0.0,0.0,0.0,0.0,0.0,0.0,0.0,0.0,0.0,0.0,0.0,0.0,0.0,0.0,0.0,0.0,0.0,0.0,0.0,0.0,0.0,0.0,0.0,0.0,0.0,0.0,0.0,0.0,0.0,0.0,0.0,0.0,0.0,0.0,0.0,0.0,0.0,0.0,0.0,0.0,0.0,0.0,0.0,0.0,0.0,0.0,0.0,0.0,0.0,0.0,0.0,0.0,0.0,0.0,0.0,0.0,0.0,0.0,0.0,0.0,0.0,0.0,0.0,0.0,0.0,0.0,0.0,0.0,0.0,0.0,0.0,0.0,0.0,0.0,0.0,0.0,0.0,0.0,0.0,0.0,-1.8496,-1.8837,-1.8109,-1.7874,0.0,0.0,0.0,0.0,0.0,0.0,0.0,0.0,0.0,0.0,0.0,0.0,0.0,0.0,0.0,0.0,0.0,0.0,0.0,0.0,0.0,0.0,0.0,0.0,0.0,0.0,0.0,0.0,0.0,0.0,0.0,0.0,0.0,0.0,0.0,0.0,0.0,0.0,0.0,0.0,0.0,0.0,0.0,0.0,0.0,0.0,0.0,0.0,0.0,0.0,0.0,0.0,0.0,0.0,0.0,0.0,0.0,0.0,0.0,0.0,0.0,0.0,0.0,0.0,0.0,0.0,0.0,0.0,0.0,0.0,0.0,0.0,0.0,0.0,0.0,0.0,0.0,0.0,0.0,0.0,0.0,0.0,0.0,0.0,0.0,0.0,0.0,0.0,0.0,0.0,0.0,0.0,0.0,0.0,0.0,0.0,0.0,0.0,0.0,0.0,0.0,0.0,0.0,0.0,0.0,0.0,0.0,0.0,0.0,0.0,-1.7949,-1.8095,-1.8323,-1.7575,-1.7516,-1.815,0.0,0.0,0.0,0.0,0.0,0.0,0.0,0.0,0.0,0.0,0.0,0.0,0.0,0.0,0.0,0.0,0.0,0.0,0.0,0.0,0.0,0.0,0.0,0.0,0.0,0.0,0.0,0.0,0.0,0.0,0.0,0.0,0.0,0.0,0.0,0.0,0.0,0.0,0.0,0.0,0.0,0.0,0.0,0.0,0.0,0.0,0.0,0.0,0.0,0.0,0.0,0.0,0.0,0.0,0.0,0.0,0.0,0.0,0.0,0.0,0.0,0.0,0.0,0.0,0.0,0.0,0.0,0.0,0.0,0.0,0.0,0.0,0.0,0.0,0.0,0.0,0.0,0.0,0.0,0.0,0.0,0.0,0.0,0.0,0.0,0.0,0.0,0.0,0.0,0.0,0.0,0.0,0.0,0.0,0.0,0.0,0.0,0.0,0.0,0.0,0.0,0.0,0.0,0.0,0.0,0.0,0.0,0.0,0.0,-1.7842,-1.7995,-1.8002,-1.7475,-1.7509,0.0,0.0,0.0,0.0,0.0,0.0,0.0,0.0,0.0,0.0,0.0,0.0,0.0,0.0,0.0,0.0,0.0,0.0,0.0,0.0,0.0,0.0,0.0,0.0,0.0,0.0,0.0,0.0,0.0,0.0,0.0,0.0,0.0,0.0,0.0,0.0,0.0,0.0,0.0,0.0,0.0,0.0,0.0,0.0,0.0,0.0,0.0,0.0,0.0,0.0,0.0,0.0,0.0,0.0,0.0,0.0,0.0,0.0,0.0,0.0,0.0,0.0,0.0,0.0,0.0,0.0,0.0,0.0,0.0,0.0,0.0,0.0,0.0,0.0,0.0,0.0,0.0,0.0,0.0,0.0,0.0,0.0,0.0,0.0,0.0,0.0,0.0,0.0,0.0,0.0,0.0,0.0,0.0,0.0,0.0,0.0,0.0,0.0,0.0,0.0,0.0,0.0,0.0,0.0,0.0,0.0,0.0,0.0,0.0,-1.7883,-1.8176,-1.8143,-1.7756,-1.7414,-1.733,0.0,0.0,0.0,0.0,0.0,0.0,0.0,0.0,0.0,0.0,0.0,0.0,0.0,0.0,0.0,0.0,0.0,0.0,0.0,0.0,0.0,0.0,0.0,0.0,0.0,0.0,0.0,0.0,0.0,0.0,0.0,0.0,0.0,0.0,0.0,0.0,0.0,0.0,0.0,0.0,0.0,0.0,0.0,0.0,0.0,0.0,0.0,0.0,0.0,0.0,0.0,0.0,0.0,0.0,0.0,0.0,0.0,0.0,0.0,0.0,0.0,0.0,0.0,0.0,0.0,0.0,0.0,0.0,0.0,0.0,0.0,0.0,0.0,0.0,0.0,0.0,0.0,0.0,0.0,0.0,0.0,0.0,0.0,0.0,0.0,0.0,0.0,0.0,0.0,0.0,0.0,0.0,0.0,0.0,0.0,0.0,0.0,0.0,0.0,0.0,0.0,0.0,0.0,0.0,0.0,0.0,0.0,0.0,0.0,-1.7889,0.0,-1.7996,-1.7595,-1.7253,-1.722,0.0,0.0,0.0,0.0,0.0,0.0,0.0,0.0,0.0,0.0,0.0,0.0,0.0,0.0,0.0,0.0,0.0,0.0,0.0,0.0,0.0,0.0,0.0,0.0,0.0,0.0,0.0,0.0,0.0,0.0,0.0,0.0,0.0,0.0,0.0,0.0,0.0,0.0,0.0,0.0,0.0,0.0,0.0,0.0,0.0,0.0,0.0,0.0,0.0,0.0,0.0,0.0,0.0,0.0,0.0,0.0,0.0,0.0,0.0,0.0,0.0,0.0,0.0,0.0,0.0,0.0,0.0,0.0,0.0,0.0,0.0,0.0,0.0,0.0,0.0,0.0,0.0,0.0,0.0,0.0,0.0,0.0,0.0,0.0,0.0,0.0,0.0,0.0,0.0,0.0,0.0,0.0,0.0,0.0,0.0,0.0,0.0,0.0,0.0,0.0,0.0,0.0,0.0,0.0,0.0,0.0,0.0,0.0,-1.7589,-1.7602,-1.7668,-1.7635,-1.7569,-1.7034,-1.7157,0.0,0.0,0.0,0.0,0.0,0.0,0.0,0.0,0.0,0.0,0.0,0.0,0.0,0.0,0.0,0.0,0.0,0.0,0.0,0.0,0.0,0.0,0.0,0.0,0.0,0.0,0.0,0.0,0.0,0.0,0.0,0.0,0.0,0.0,0.0,0.0,0.0,0.0,0.0,0.0,0.0,0.0,0.0,0.0,0.0,0.0,0.0,0.0,0.0,0.0,0.0,0.0,0.0,0.0,0.0,0.0,0.0,0.0,0.0,0.0,0.0,0.0,0.0,0.0,0.0,0.0,0.0,0.0,0.0,0.0,0.0,0.0,0.0,0.0,0.0,0.0,0.0,0.0,0.0,0.0,0.0,0.0,0.0,0.0,0.0,0.0,0.0,0.0,0.0,0.0,0.0,0.0,0.0,0.0,0.0,0.0,0.0,0.0,0.0,0.0,0.0,0.0,0.0,0.0,0.0,0.0,0.0,0.0,0.0,-1.7849,-1.8103,-1.8009,-1.7595,-1.7215,-1.7227,0.0,0.0,0.0,0.0,0.0,0.0,0.0,0.0,0.0,0.0,0.0,0.0,0.0,0.0,0.0,0.0,0.0,0.0,0.0,0.0,0.0,0.0,0.0,0.0,0.0,0.0,0.0,0.0,0.0,0.0,0.0,0.0,0.0,0.0,0.0,0.0,0.0,0.0,0.0,0.0,0.0,0.0,0.0,0.0,0.0,0.0,0.0,0.0,0.0,0.0,0.0,0.0,0.0,0.0,0.0,0.0,0.0,0.0,0.0,0.0,0.0,0.0,0.0,0.0,0.0,0.0,0.0,0.0,0.0,0.0,0.0,0.0,0.0,0.0,0.0,0.0,0.0,0.0,0.0,0.0,0.0,0.0,0.0,0.0,0.0,0.0,0.0,0.0,0.0,0.0,0.0,0.0,0.0,0.0,0.0,0.0,0.0,0.0,0.0,0.0,0.0,0.0,0.0,0.0,0.0,0.0,0.0,0.0,0.0,-1.7698,-1.8231,-1.8257,-1.7769,-1.7414,-1.7337,-1.7618,0.0,0.0,0.0,0.0,0.0,0.0,0.0,0.0,0.0,0.0,0.0,0.0,0.0,0.0,0.0,0.0,0.0,0.0,0.0,0.0,0.0,0.0,0.0,0.0,0.0,0.0,0.0,0.0,0.0,0.0,0.0,0.0,0.0,0.0,0.0,0.0,0.0,0.0,0.0,0.0,0.0,0.0,0.0,0.0,0.0,0.0,0.0,0.0,0.0,0.0,0.0,0.0,0.0,0.0,0.0,0.0,0.0,0.0,0.0,0.0,0.0,0.0,0.0,0.0,0.0,0.0,0.0,0.0,0.0,0.0,0.0,0.0,0.0,0.0,0.0,0.0,0.0,0.0,0.0,0.0,0.0,0.0,0.0,0.0,0.0,0.0,0.0,0.0,0.0,0.0,0.0,0.0,0.0,0.0,0.0,0.0,0.0,0.0,0.0,0.0,0.0,0.0,0.0,0.0,0.0,0.0,0.0,0.0,-1.7129,-1.8086,-1.8417,-1.8022,-1.7508,-1.7544,0.0,0.0,0.0,0.0,0.0,0.0,0.0,0.0,0.0,0.0,0.0,0.0,0.0,0.0,0.0,0.0,0.0,0.0,0.0,0.0,0.0,0.0,0.0,0.0,0.0,0.0,0.0,0.0,0.0,0.0,0.0,0.0,0.0,0.0,0.0,0.0,0.0,0.0,0.0,0.0,0.0,0.0,0.0,0.0,0.0,0.0,0.0,0.0,0.0,0.0,0.0,0.0,0.0,0.0,0.0,0.0,0.0,0.0,0.0,0.0,0.0,0.0,0.0,0.0,0.0,0.0,0.0,0.0,0.0,0.0,0.0,0.0,0.0,0.0,0.0,0.0,0.0,0.0,0.0,0.0,0.0,0.0,0.0,0.0,0.0,0.0,0.0,0.0,0.0,0.0,0.0,0.0,0.0,0.0,0.0,0.0,0.0,0.0,0.0,0.0,0.0,0.0,0.0,0.0,0.0,0.0,0.0,0.0,0.0,-1.6906,-1.8595,-1.9105,-1.8397,-1.7996,-1.7911,0.0,0.0,0.0,0.0,0.0,0.0,0.0,0.0,0.0,0.0,0.0,0.0,0.0,0.0,0.0,0.0,0.0,0.0,0.0,0.0,0.0,0.0,0.0,0.0,0.0,0.0,0.0,0.0,0.0,0.0,0.0,0.0,0.0,0.0,0.0,0.0,0.0,0.0,0.0,0.0,0.0,0.0,0.0,0.0,0.0,0.0,0.0,0.0,0.0,0.0,0.0,0.0,0.0,0.0,0.0,0.0,0.0,0.0,0.0,0.0,0.0,0.0,0.0,0.0,0.0,0.0,0.0,0.0,0.0,0.0,0.0,0.0,0.0,0.0,0.0,0.0,0.0,0.0,0.0,0.0,0.0,0.0,0.0,0.0,0.0,0.0,0.0,0.0,0.0,0.0,0.0,0.0,0.0,0.0,0.0,0.0,0.0,0.0,0.0,0.0,0.0,0.0,0.0,0.0,0.0,0.0,0.0,0.0,-1.5177,-1.6452,-1.8751,-1.9566,-1.8698,-1.8377,-1.8337,0.0,0.0,0.0,0.0,0.0,0.0,0.0,0.0,0.0,0.0,0.0,0.0,0.0,0.0,0.0,0.0,0.0,0.0,0.0,0.0,0.0,0.0,0.0,0.0,0.0,0.0,0.0,0.0,0.0,0.0,0.0,0.0,0.0,0.0,0.0,0.0,0.0,0.0,0.0,0.0,0.0,0.0,0.0,0.0,0.0,0.0,0.0,0.0,0.0,0.0,0.0,0.0,0.0,0.0,0.0,0.0,0.0,0.0,0.0,0.0,0.0,0.0,0.0,0.0,0.0,0.0,0.0,0.0,0.0,0.0,0.0,0.0,0.0,0.0,0.0,0.0,0.0,0.0,0.0,0.0,0.0,0.0,0.0,0.0,0.0,0.0,0.0,0.0,0.0,0.0,0.0,0.0,0.0,0.0,0.0,0.0,0.0,0.0,0.0,0.0,0.0,0.0,0.0,0.0,0.0,0.0,0.0,0.0,-1.4699,-1.6026,-1.8709,-1.9793,-1.8948,-1.8691,-1.8728,0.0,0.0,0.0,0.0,0.0,0.0,0.0,0.0,0.0,0.0,0.0,0.0,0.0,0.0,0.0,0.0,0.0,0.0,0.0,0.0,0.0,0.0,0.0,0.0,0.0,0.0,0.0,0.0,0.0,0.0,0.0,0.0,0.0,0.0,0.0,0.0,0.0,0.0,0.0,0.0,0.0,0.0,0.0,0.0,0.0,0.0,0.0,0.0,0.0,0.0,0.0,0.0,0.0,0.0,0.0,0.0,0.0,0.0,0.0,0.0,0.0,0.0,0.0,0.0,0.0,0.0,0.0,0.0,0.0,0.0,0.0,0.0,0.0,0.0,0.0,0.0,0.0,0.0,0.0,0.0,0.0,0.0,0.0,0.0,0.0,0.0,0.0,0.0,0.0,0.0,0.0,0.0,0.0,0.0,0.0,0.0,0.0,0.0,0.0,0.0,0.0,0.0,0.0,0.0,0.0,0.0,0.0,0.0,-1.5451,-1.6933,-1.8868,-1.9693,-1.9285,-1.8985,-1.8933,0.0,0.0,0.0,0.0,0.0,0.0,0.0,0.0,0.0,0.0,0.0,0.0,0.0,0.0,0.0,0.0,0.0,0.0,0.0,0.0,0.0,0.0,0.0,0.0,0.0,0.0,0.0,0.0,0.0,0.0,0.0,0.0,0.0,0.0,0.0,0.0,0.0,0.0,0.0,0.0,0.0,0.0,0.0,0.0,0.0,0.0,0.0,0.0,-1.8047,0.0,0.0,0.0,0.0,0.0,0.0,0.0,0.0,0.0,0.0,0.0,0.0,0.0,0.0,0.0,0.0,0.0,0.0,0.0,0.0,0.0,0.0,0.0,0.0,0.0,0.0,0.0,0.0,0.0,0.0,0.0,0.0,0.0,0.0,0.0,0.0,0.0,0.0,0.0,0.0,0.0,0.0,0.0,0.0,0.0,0.0,0.0,0.0,0.0,0.0,0.0,0.0,0.0,0.0,0.0,0.0,0.0,0.0,0.0,-1.6209,-1.7361,-1.8959,-1.9659,-1.9437,-1.9212,-1.922,0.0,0.0,0.0,0.0,0.0,0.0,0.0,0.0,0.0,0.0,0.0,0.0,0.0,0.0,0.0,0.0,0.0,0.0,0.0,0.0,0.0,0.0,0.0,0.0,0.0,0.0,0.0,0.0,0.0,0.0,0.0,0.0,0.0,0.0,0.0,0.0,0.0,0.0,0.0,0.0,0.0,0.0,0.0,0.0,0.0,0.0,0.0,0.0,0.0,0.0,0.0,0.0,0.0,0.0,0.0,0.0,0.0,0.0,0.0,0.0,0.0,0.0,0.0,0.0,0.0,0.0,0.0,0.0,0.0,0.0,0.0,0.0,0.0,0.0,0.0,0.0,0.0,0.0,0.0,0.0,0.0,0.0,0.0,0.0,0.0,0.0,0.0,0.0,0.0,0.0,0.0,0.0,0.0,0.0,0.0,0.0,0.0,0.0,0.0,0.0,0.0,0.0,0.0,0.0,0.0,0.0,0.0,-1.5563,-1.6902,-1.7772,-1.9063,-1.9619,-1.9437,-1.9325,-1.9437,-1.9649,0.0,0.0,0.0,0.0,0.0,0.0,0.0,0.0,0.0,0.0,0.0,0.0,0.0,0.0,0.0,0.0,0.0,0.0,0.0,0.0,0.0,0.0,0.0,0.0,0.0,0.0,0.0,0.0,0.0,0.0,0.0,0.0,0.0,0.0,0.0,0.0,0.0,0.0,-1.6439,-1.6887,0.0,0.0,0.0,0.0,0.0,0.0,0.0,0.0,-1.7188,0.0,0.0,0.0,0.0,0.0,0.0,0.0,0.0,0.0,0.0,0.0,0.0,0.0,0.0,0.0,0.0,0.0,0.0,0.0,0.0,0.0,0.0,0.0,0.0,0.0,0.0,0.0,0.0,0.0,0.0,0.0,0.0,0.0,0.0,0.0,0.0,0.0,0.0,0.0,0.0,0.0,0.0,0.0,0.0,0.0,0.0,0.0,0.0,0.0,0.0,0.0,0.0,0.0,0.0,0.0,0.0,-1.5434,-1.6762,-1.7824,-1.8622,-1.9205,-1.9477,-1.9417,-1.9125,-1.9113,-1.9332,0.0,0.0,0.0,0.0,0.0,0.0,0.0,0.0,0.0,0.0,0.0,0.0,0.0,0.0,0.0,0.0,0.0,0.0,0.0,0.0,0.0,0.0,0.0,0.0,0.0,0.0,0.0,0.0,0.0,0.0,0.0,0.0,0.0,0.0,0.0,0.0,0.0,0.0,0.0,-1.7361,-1.7816,0.0,0.0,0.0,0.0,0.0,0.0,0.0,0.0,-1.6814,0.0,0.0,0.0,0.0,0.0,0.0,0.0,0.0,0.0,0.0,0.0,0.0,0.0,0.0,0.0,0.0,0.0,0.0,0.0,0.0,0.0,0.0,0.0,0.0,0.0,0.0,0.0,0.0,0.0,0.0,0.0,0.0,0.0,0.0,0.0,0.0,0.0,0.0,0.0,0.0,0.0,0.0,0.0,0.0,0.0,0.0,0.0,0.0,0.0,0.0,0.0,0.0,0.0,0.0,0.0,-1.6546,-1.7686,-1.8543,-1.9171,-1.9307,-1.935,-1.9138,-1.8851,-1.8698,0.0,0.0,0.0,0.0,0.0,0.0,0.0,0.0,0.0,0.0,0.0,0.0,0.0,0.0,0.0,0.0,0.0,0.0,0.0,0.0,0.0,0.0,0.0,0.0,0.0,0.0,0.0,0.0,0.0,0.0,0.0,0.0,0.0,0.0,0.0,0.0,0.0,0.0,0.0,0.0,-1.7348,-1.7749,-1.7602,0.0,0.0,0.0,0.0,0.0,0.0,-1.6887,-1.6653,0.0,0.0,0.0,0.0,0.0,0.0,0.0,0.0,0.0,0.0,0.0,0.0,0.0,0.0,0.0,0.0,0.0,0.0,0.0,0.0,0.0,0.0,0.0,0.0,0.0,0.0,0.0,0.0,0.0,0.0,0.0,0.0,0.0,0.0,0.0,0.0,0.0,0.0,0.0,0.0,0.0,0.0,0.0,0.0,0.0,0.0,0.0,0.0,0.0,0.0,0.0,0.0,0.0,0.0,0.0,-1.7396,-1.8435,-1.9125,-1.941,-1.9424,-1.9225,-1.8931,-1.8644,-1.8476,0.0,0.0,0.0,0.0,0.0,0.0,0.0,0.0,0.0,0.0,0.0,0.0,0.0,0.0,0.0,0.0,0.0,0.0,0.0,0.0,0.0,0.0,0.0,0.0,0.0,0.0,0.0,0.0,0.0,0.0,0.0,0.0,0.0,0.0,0.0,0.0,0.0,0.0,0.0,0.0,0.0,-1.7649,-1.7589,-1.744,0.0,0.0,0.0,0.0,-1.6874,-1.6834,0.0,0.0,0.0,0.0,0.0,0.0,0.0,0.0,0.0,0.0,0.0,0.0,0.0,0.0,0.0,0.0,0.0,0.0,0.0,0.0,0.0,0.0,0.0,0.0,0.0,0.0,0.0,0.0,0.0,0.0,0.0,0.0,0.0,0.0,0.0,0.0,0.0,0.0,0.0,0.0,0.0,0.0,0.0,0.0,0.0,0.0,0.0,0.0,0.0,0.0,0.0,0.0,0.0,0.0,0.0,0.0,-1.7971,-1.8924,-1.9332,-1.9424,-1.9424,-1.9225,-1.8875,-1.8644,-1.8591,0.0,0.0,0.0,0.0,0.0,0.0,0.0,0.0,0.0,0.0,0.0,0.0,0.0,0.0,0.0,0.0,0.0,0.0,0.0,0.0,0.0,0.0,0.0,0.0,0.0,0.0,0.0,0.0,0.0,0.0,0.0,0.0,0.0,0.0,0.0,0.0,0.0,0.0,0.0,0.0,0.0,-1.7842,-1.7615,-1.7555,-1.7581,0.0,0.0,-1.7239,-1.7442,-1.7268,0.0,0.0,0.0,0.0,0.0,0.0,0.0,0.0,0.0,0.0,0.0,0.0,0.0,0.0,0.0,0.0,0.0,0.0,0.0,0.0,0.0,0.0,0.0,0.0,0.0,0.0,0.0,0.0,0.0,0.0,0.0,0.0,0.0,0.0,0.0,0.0,0.0,0.0,0.0,0.0,0.0,0.0,0.0,0.0,0.0,0.0,0.0,0.0,0.0,0.0,0.0,0.0,0.0,0.0,0.0,-1.7337,-1.8298,-1.8848,-1.9199,-1.9352,-1.9199,-1.8971,-1.8691,-1.8217,-1.8119,0.0,0.0,0.0,0.0,0.0,0.0,0.0,0.0,0.0,0.0,0.0,0.0,0.0,0.0,0.0,0.0,0.0,0.0,0.0,0.0,0.0,0.0,0.0,0.0,0.0,0.0,0.0,0.0,0.0,0.0,0.0,0.0,0.0,0.0,0.0,0.0,0.0,0.0,0.0,0.0,0.0,0.0,-1.7622,-1.7729,0.0,0.0,0.0,-1.7442,-1.7569,0.0,0.0,0.0,0.0,0.0,0.0,0.0,0.0,0.0,0.0,0.0,0.0,0.0,0.0,0.0,0.0,0.0,0.0,0.0,0.0,0.0,0.0,0.0,0.0,0.0,0.0,0.0,0.0,0.0,0.0,0.0,0.0,0.0,0.0,0.0,0.0,0.0,0.0,0.0,0.0,0.0,0.0,0.0,0.0,0.0,0.0,0.0,0.0,0.0,0.0,0.0,0.0,0.0,0.0,0.0,0.0,0.0,-1.825,-1.8631,-1.8925,-1.9189,-1.8931,-1.8733,-1.8494,-1.8151,0.0,0.0,0.0,0.0,0.0,0.0,0.0,0.0,0.0,0.0,0.0,0.0,0.0,0.0,0.0,0.0,0.0,0.0,0.0,0.0,0.0,0.0,0.0,0.0,0.0,0.0,0.0,-1.7683,0.0,0.0,0.0,0.0,0.0,0.0,0.0,0.0,0.0,0.0,0.0,0.0,0.0,0.0,-1.7829,-1.7609,-1.7842,-1.7882,0.0,0.0,-1.7669,-1.7595,-1.7649,-1.7542,0.0,0.0,0.0,0.0,0.0,0.0,0.0,0.0,0.0,0.0,0.0,0.0,0.0,0.0,0.0,0.0,0.0,0.0,0.0,0.0,0.0,0.0,0.0,0.0,0.0,0.0,0.0,0.0,0.0,0.0,0.0,0.0,0.0,0.0,0.0,0.0,0.0,0.0,0.0,0.0,0.0,0.0,0.0,0.0,0.0,0.0,0.0,0.0,0.0,0.0,0.0,0.0,0.0,0.0,-1.736,-1.7642,-1.8223,-1.8531,-1.8551,-1.8531,-1.8542,-1.8516,-1.8723,-1.8997,0.0,0.0,0.0,0.0,0.0,0.0,0.0,0.0,0.0,0.0,0.0,0.0,0.0,0.0,0.0,0.0,0.0,0.0,0.0,0.0,0.0,0.0,0.0,0.0,0.0,0.0,0.0,0.0,0.0,0.0,0.0,0.0,0.0,0.0,0.0,0.0,0.0,0.0,0.0,0.0,0.0,-1.7602,-1.7589,-1.7849,-1.7882,0.0,-1.7829,-1.7916,-1.7629,-1.7829,-1.7669,-1.6874,0.0,0.0,0.0,0.0,0.0,0.0,0.0,0.0,0.0,0.0,0.0,0.0,0.0,0.0,0.0,0.0,0.0,0.0,0.0,0.0,0.0,0.0,0.0,0.0,0.0,0.0,0.0,0.0,0.0,0.0,0.0,0.0,0.0,0.0,0.0,0.0,0.0,0.0,0.0,0.0,0.0,0.0,0.0,0.0,0.0,0.0,0.0,0.0,0.0,0.0,0.0,0.0,0.0,-1.6985,-1.7575,-1.7996,-1.831,-1.8477,-1.831,-1.8381,-1.8737,-1.8874,-1.921,0.0,0.0,0.0,0.0,0.0,0.0,0.0,0.0,0.0,0.0,0.0,0.0,0.0,0.0,0.0,0.0,0.0,0.0,0.0,0.0,0.0,0.0,0.0,0.0,0.0,0.0,0.0,0.0,-1.5375,-1.5225,-1.5236,0.0,0.0,0.0,0.0,0.0,0.0,0.0,0.0,0.0,0.0,-1.7862,-1.7869,-1.8123,0.0,0.0,-1.8243,-1.8217,-1.7916,-1.7916,-1.7802,-1.7094,-1.6587,0.0,0.0,0.0,0.0,0.0,0.0,0.0,0.0,0.0,0.0,0.0,0.0,0.0,0.0,0.0,0.0,0.0,0.0,0.0,0.0,0.0,0.0,0.0,0.0,0.0,0.0,0.0,0.0,0.0,0.0,0.0,0.0,0.0,0.0,0.0,0.0,0.0,0.0,0.0,0.0,0.0,0.0,0.0,0.0,0.0,0.0,0.0,0.0,0.0,0.0,0.0,0.0,-1.6663,-1.7308,-1.7709,-1.807,-1.8332,-1.8232,-1.8491,-1.9208,-1.9404,-1.9831,0.0,0.0,0.0,0.0,0.0,0.0,0.0,0.0,0.0,0.0,0.0,0.0,0.0,0.0,0.0,0.0,0.0,0.0,0.0,0.0,0.0,0.0,0.0,0.0,0.0,0.0,0.0,0.0,-1.5363,-1.5352,-1.5371,0.0,0.0,0.0,0.0,0.0,0.0,0.0,0.0,0.0,0.0,-1.7903,-1.7909,-1.817,-1.8323,-1.8237,-1.8377,-1.8357,-1.7916,-1.7929,-1.7782,-1.73,0.0,0.0,0.0,0.0,0.0,0.0,0.0,0.0,0.0,0.0,0.0,0.0,0.0,0.0,0.0,0.0,0.0,0.0,0.0,0.0,0.0,0.0,0.0,0.0,0.0,0.0,0.0,-1.1164,0.0,0.0,-1.3324,0.0,0.0,0.0,0.0,0.0,0.0,0.0,0.0,0.0,0.0,0.0,0.0,0.0,0.0,0.0,0.0,0.0,0.0,0.0,0.0,0.0,0.0,-1.6413,-1.6727,-1.7301,-1.776,-1.8051,-1.8286,-1.89,-2.0034,-2.0392,-2.1007,-2.1972,0.0,0.0,0.0,0.0,0.0,0.0,0.0,0.0,0.0,0.0,0.0,0.0,0.0,0.0,0.0,0.0,0.0,0.0,0.0,0.0,0.0,0.0,0.0,0.0,0.0,0.0,-1.5098,-1.5263,-1.5391,0.0,0.0,0.0,0.0,0.0,0.0,0.0,0.0,0.0,-1.6079,-1.7029,-1.7595,-1.7609,-1.7862,-1.7916,-1.7675,-1.8116,-1.8283,-1.7702,-1.7842,-1.7789,0.0,0.0,0.0,0.0,0.0,0.0,0.0,0.0,0.0,0.0,0.0,0.0,0.0,0.0,0.0,0.0,0.0,0.0,0.0,0.0,0.0,0.0,0.0,0.0,0.0,0.0,0.0,-1.0242,-1.0859,0.0,0.0,0.0,0.0,0.0,0.0,0.0,0.0,0.0,0.0,0.0,-1.7474,-1.7186,0.0,0.0,0.0,0.0,0.0,0.0,0.0,0.0,0.0,0.0,0.0,0.0,-1.6025,-1.6687,-1.7146,-1.7649,-1.8258,-1.8626,-1.9321,-2.0435,-2.1082,-2.1575,-2.1966,0.0,0.0,0.0,0.0,0.0,0.0,0.0,0.0,0.0,0.0,0.0,0.0,0.0,0.0,0.0,0.0,0.0,0.0,0.0,0.0,0.0,0.0,0.0,0.0,0.0,-1.5963,0.0,0.0,0.0,0.0,0.0,0.0,0.0,0.0,0.0,0.0,0.0,-1.5014,-1.5956,-1.71,-1.7836,-1.7889,-1.7922,-1.8022,0.0,0.0,0.0,0.0,0.0,0.0,0.0,0.0,0.0,0.0,0.0,0.0,0.0,0.0,-2.2206,-2.2333,-2.162,-2.076,-1.9876,0.0,0.0,0.0,0.0,0.0,0.0,0.0,0.0,0.0,0.0,0.0,0.0,0.0,0.0,-0.9899,0.0,-1.0292,0.0,0.0,0.0,0.0,0.0,0.0,0.0,0.0,-1.7296,-1.7943,-1.7729,-1.7494,-1.7094,0.0,-1.5971,-1.5398,0.0,0.0,0.0,0.0,0.0,0.0,0.0,0.0,-1.5879,-1.6533,-1.684,-1.7446,-1.8189,-1.8795,-1.9675,-2.0851,-2.1846,-2.226,-2.2107,-2.1963,-2.1553,0.0,0.0,0.0,0.0,0.0,0.0,0.0,0.0,0.0,0.0,0.0,0.0,0.0,0.0,0.0,0.0,0.0,0.0,0.0,0.0,0.0,0.0,0.0,-1.5866,0.0,0.0,0.0,0.0,0.0,0.0,0.0,0.0,0.0,-1.4917,-1.5046,-1.5511,-1.6327,-1.7265,-1.7829,-1.7829,0.0,0.0,0.0,0.0,0.0,0.0,0.0,-1.7233,-1.734,-1.6814,-1.6603,-1.7201,-1.8448,-1.9972,-2.1794,0.0,0.0,-2.3354,-2.2628,-2.1787,-2.1038,-2.0991,-2.1153,-2.1423,-2.2063,-2.2761,0.0,0.0,0.0,0.0,0.0,0.0,0.0,0.0,-0.9398,-0.9405,0.0,-0.9292,0.0,0.0,0.0,0.0,0.0,-1.2695,0.0,0.0,-1.715,-1.7928,-1.7895,-1.7609,-1.7199,-1.6592,-1.559,-1.47,-1.3891,-1.3613,0.0,0.0,0.0,0.0,0.0,0.0,-1.5972,-1.6279,-1.6553,-1.71,-1.7924,-1.8909,-2.0047,-2.1449,-2.2686,-2.3094,-2.2506,-2.2119,-2.1709,-2.1229,-2.083,0.0,0.0,0.0,0.0,0.0,0.0,0.0,0.0,0.0,0.0,0.0,0.0,0.0,0.0,0.0,0.0,0.0,0.0,0.0,0.0,-1.5404,0.0,0.0,0.0,0.0,0.0,0.0,0.0,0.0,0.0,0.0,-1.5934,-1.5991,-1.6321,-1.7081,0.0,0.0,0.0,0.0,-1.7589,-1.7595,-1.7842,-1.7876,-1.7629,-1.7328,-1.728,-1.7508,0.0,0.0,-1.8237,-1.9591,-2.0928,-2.2291,-2.2979,-2.3651,-2.469,-2.4074,-2.3281,-2.243,-2.2367,-2.2793,-2.3507,-2.3938,-2.4552,-1.0059,0.0,0.0,0.0,0.0,-0.9713,-0.9693,-0.9696,-0.9693,-0.9696,-0.968,-0.9425,0.0,0.0,0.0,0.0,0.0,0.0,-1.3527,-1.4266,-1.597,-1.6675,-1.6489,-1.6402,-1.5889,-1.496,-1.4303,-1.3593,-1.2859,-1.2685,-1.275,-1.294,0.0,0.0,0.0,0.0,-1.5772,-1.6246,-1.6353,-1.6986,-1.815,-1.9238,-2.0674,-2.2558,-2.299,-2.2969,-2.2496,-2.2402,-2.2139,-2.1719,-2.1279,0.0,0.0,0.0,0.0,0.0,0.0,0.0,0.0,0.0,0.0,0.0,0.0,0.0,0.0,0.0,0.0,0.0,0.0,0.0,-1.5685,-1.5658,-1.5691,0.0,0.0,0.0,0.0,0.0,0.0,0.0,0.0,0.0,-1.6835,-1.6838,-1.6996,0.0,0.0,-1.7589,-1.7589,-1.7589,-1.7589,-1.7589,-1.7655,0.0,-1.7595,-1.7161,-1.6934,-1.728,-1.7493,-1.7941,-1.8804,-2.0151,-2.1591,-2.3085,-2.3461,-2.3619,-2.352,-2.3705,-2.3415,-2.2732,-2.3076,-2.3654,-2.3839,-2.4269,-2.4682,-0.9548,-0.9396,-0.97,-0.9819,-0.9819,-0.9819,-0.9819,-0.9819,-0.9819,-0.9819,-0.9805,-0.9574,-0.9354,-0.9197,-0.8937,0.0,0.0,0.0,-1.2481,-1.3073,-1.4456,-1.5047,-1.4846,-1.4798,-1.4303,-1.3472,-1.266,-1.2142,-1.1903,-1.2054,-1.2441,-1.3033,0.0,0.0,-1.501,-1.537,-1.5785,-1.623,-1.6388,-1.7049,-1.833,-1.9802,-2.1419,-2.3013,-2.3101,-2.2974,-2.2721,-2.2598,-2.2393,-2.2139,-2.1728,-2.1366,0.0,0.0,0.0,0.0,0.0,0.0,0.0,0.0,0.0,0.0,0.0,-1.6382,-1.5841,0.0,0.0,0.0,-1.5634,-1.5664,-1.5805,-1.5725,0.0,0.0,0.0,0.0,0.0,0.0,0.0,-1.6239,-1.6426,-1.6647,-1.6985,-1.6974,-1.7172,-1.7528,-1.7482,-1.7467,-1.7408,0.0,-1.7235,-1.7235,-1.7235,-1.7286,-1.7389,-1.7042,-1.6941,-1.7369,-1.8103,-1.877,-1.9453,-2.0718,-2.2047,-2.3125,-2.359,-2.3574,-2.3156,-2.3432,-2.3489,-2.2667,-2.3148,-2.3775,-2.4003,-2.4368,-2.454,-0.8541,-0.8744,-0.94,-0.97,-0.9819,-0.9819,-0.9819,-0.9819,-0.9819,-0.9819,-0.9808,-0.9656,-0.9422,-0.9176,-0.8852,0.0,-0.9646,-1.0603,-1.1328,-1.1923,-1.2768,-1.3136,-1.3121,-1.2949,-1.2575,-1.1991,-1.0895,-1.0575,-1.1112,-1.1663,-1.2436,-1.3516,-1.4346,-1.507,-1.5499,-1.573,-1.5927,-1.6224,-1.6541,-1.7326,-1.8611,-2.0647,-2.2148,-2.3057,-2.3101,-2.3101,-2.3081,-2.2773,-2.2559,-2.2539,-2.2168,-2.1748,-2.1317,0.0,0.0,0.0,0.0,0.0,0.0,0.0,0.0,0.0,0.0,0.0,0.0,0.0,0.0,-1.4988,-1.5224,0.0,-1.5751,-1.5591,0.0,0.0,0.0,-1.5538,-1.5758,-1.5825,-1.5945,-1.6239,0.0,0.0,-1.6667,-1.6707,-1.6907,-1.7442,-1.734,-1.7166,-1.7166,-1.6894,-1.6707,-1.674,-1.672,-1.682,-1.7168,-1.7183,-1.7437,-1.796,-1.8812,-1.9651,-2.0232,-2.1292,-2.2395,-2.3233,-2.3551,-2.3645,-2.3345,-2.3495,-2.3467,-2.2635,-2.2944,-2.3509,-2.4129,-2.4331,-2.4285,-0.7146,-0.7924,-0.8515,-0.915,-0.9819,-0.9819,-0.9819,-0.9819,-0.9819,-0.9819,-0.9802,-0.9551,-0.9273,-0.8984,-0.8861,-0.9047,-0.9486,-1.0123,-1.0629,-1.1059,-1.1563,-1.1759,-1.1745,-1.1602,-1.1169,-1.0523,-1.0026,-0.9966,-1.0334,-1.1394,-1.2436,-1.3511,-1.4867,-1.5588,-1.5737,-1.5784,-1.6015,-1.6487,-1.7138,-1.8457,-2.0539,-2.1507,-2.2325,-2.3091,-2.3101,-2.3101,-2.3091,-2.3003,-2.2945,-2.2935,-2.2588,-2.2314,-2.2175,-2.1214,0.0,0.0,0.0,0.0,0.0,0.0,0.0,0.0,0.0,-1.4646,-1.4502,0.0,-1.4643,0.0,-1.5231,-1.5511,-1.5758,-1.5765,0.0,0.0,-1.5718,-1.5752,-1.5771,-1.5825,-1.5891,-1.6239,-1.6273,-1.6386,-1.6673,-1.6707,-1.6754,-1.6894,-1.6854,-1.6814,-1.6807,-1.676,-1.6707,-1.6693,-1.668,-1.6857,-1.7371,-1.8021,-1.8563,-1.9031,-1.9857,-2.0716,-2.141,-2.2321,-2.3177,-2.3942,-2.4193,-2.4067,-2.3666,-2.3731,-2.3534,-2.3108,-2.3399,-2.3812,-2.3923,-2.395,-2.3863,-0.5728,-0.6651,-0.7278,-0.8019,-0.8934,-0.9483,-0.969,-0.9625,-0.9625,-0.9625,-0.9608,-0.9381,-0.9191,-0.9032,-0.8967,-0.8995,-0.9213,-0.9485,-0.9665,-0.981,-1.0035,-1.0109,-1.0079,-0.9908,-0.9623,-0.9231,-0.9004,-0.9222,-0.9875,-1.1224,-1.2436,-1.3511,-1.5057,-1.5825,-1.5825,-1.5825,-1.6116,-1.6784,-1.7957,-1.9445,-2.126,-2.1646,-2.2055,-2.2535,-2.2588,-2.2578,-2.2588,-2.2711,-2.2818,-2.2818,-2.2769,-2.2662,-2.2519,-2.146,-2.0448,0.0,0.0,0.0,0.0,0.0,0.0,0.0,0.0,0.0,0.0,0.0,-1.503,-1.5324,-1.5498,-1.5658,-1.5764,-1.5825,-1.5825,-1.5825,-1.5825,-1.5825,-1.5825,-1.5825,-1.5892,-1.6059,-1.6079,-1.6132,-1.6299,-1.6313,-1.6313,-1.6313,-1.6313,-1.6359,-1.6466,-1.6406,-1.6313,-1.6313,-1.6319,-1.6703,-1.7715,-1.8516,-1.9212,-1.9779,-2.0346,-2.0904,-2.1307,-2.1907,-2.2566,-2.3078,-2.3314,-2.3329,-2.3198,-2.3258,-2.3279,-2.3218,-2.3378,-2.356,-2.3491,-2.3487,-2.3388,-0.412,-0.5089,-0.5768,-0.6498,-0.7404,-0.8532,-0.901,-0.9149,-0.9146,-0.9194,-0.9167,-0.9097,-0.9087,-0.9113,-0.8939,-0.8937,-0.8937,-0.8937,-0.8855,-0.8713,-0.8689,-0.8601,-0.8452,-0.8357,-0.8241,-0.8231,-0.8106,-0.8538,-0.9628,-1.1175,-1.2436,-1.3511,-1.5003,-1.5825,-1.5825,-1.5792,-1.623,-1.7169,-1.8799,-2.0227,-2.1437,-2.1507,-2.1668,-2.1885,-2.1936,-2.1936,-2.1894,-2.2236,-2.2432,-2.2441,-2.273,-2.276,-2.2451,-2.1594,-2.0669,0.0,-1.8226,0.0,0.0,0.0,0.0,0.0,0.0,0.0,0.0,-1.5291,-1.5558,-1.5764,-1.5825,-1.5825,-1.5825,-1.5825,-1.5825,-1.5825,-1.5825,-1.5825,-1.5825,-1.5825,-1.5825,-1.5825,-1.5825,-1.5825,-1.5845,-1.5825,-1.5832,-1.5865,-1.5831,-1.5965,-1.6187,-1.6019,-1.5872,-1.5825,-1.5927,-1.6725,-1.8087,-1.8894,-1.9501,-2.0138,-2.0373,-2.0497,-2.0319,-2.0765,-2.1123,-2.1355,-2.1642,-2.1928,-2.2211,-2.2492,-2.2799,-2.3047,-2.3091,-2.3038,-2.3047,-2.3018,-2.3041,-0.2142,-0.308,-0.3686,-0.4455,-0.5313,-0.5541,-0.6503,-0.7915,-0.7915,-0.8034,-0.8109,-0.8372,-0.8527,-0.8641,-0.8836,-0.8937,-0.8937,-0.8937,-0.8859,-0.8706,-0.8584,-0.8448,-0.8306,-0.8153,-0.8082,-0.8082,-0.8005,-0.8535,-0.9624,-1.1175,-1.2436,-1.3511,-1.5051,-1.5825,-1.5818,0.0,0.0,0.0,-1.9221,-2.0401,-2.1742,-2.1799,-2.1843,-2.1885,-2.1936,0.0,-2.1936,-2.1973,-2.2012,-2.2012,-2.208,0.0,0.0,0.0,0.0,0.0,0.0,0.0,0.0,0.0,0.0,0.0,-1.4957,-1.5251,-1.5317,-1.5578,-1.5772,-1.5825,-1.5825,-1.5825,-1.5825,-1.5825,-1.5825,-1.5825,-1.5825,-1.5825,-1.5825,-1.5825,-1.5825,-1.5825,-1.5825,-1.5825,-1.5825,-1.5825,-1.5825,-1.5825,-1.5825,-1.5899,-1.6205,-1.5974,-1.5832,-1.5825,-1.6459,-1.7387,-1.8526,-1.9209,-1.9701,-2.0085,-1.9945,-1.9618,-1.9211,-1.9352,-1.9557,-1.9654,-2.0133,-2.08,-2.1382,-2.1908,-2.2429,-2.3013,-2.2858,-2.2625,-2.2615,-2.264,-2.251,-0.126,-0.2023,-0.2498,-0.3109,0.0,-0.3782,-0.4297,-0.5214,-0.5842,-0.6268,-0.6674,-0.7241,-0.7712,-0.8091,-0.8581,-0.8825,-0.8821,-0.8747,-0.8635,-0.8492,-0.8411,-0.8299,-0.8153,-0.8075,-0.7988,-0.7988,-0.7988,-0.8535,-0.9624,-1.113,-1.2436,-1.3511,-1.4918,-1.5618,-1.5605,-1.5572,-1.6521,-1.8372,-1.9108,-2.0177,-2.1471,-2.1357,-2.1271,-2.128,-2.1271,0.0,0.0,0.0,0.0,0.0,0.0,0.0,0.0,0.0,0.0,-1.9111,-1.7987,-1.6798,-1.5624,-1.5251,-1.5019,-1.4767,-1.5277,-1.5611,-1.5611,-1.5698,-1.5825,-1.5825,-1.5825,-1.5825,-1.5825,-1.5825,-1.5825,-1.5825,-1.5825,-1.5825,-1.5825,-1.5825,-1.5825,-1.5825,-1.5825,-1.5825,-1.5825,-1.5825,-1.5825,-1.5825,-1.5825,-1.5974,-1.6305,-1.6258,-1.621,-1.6292,-1.713,-1.8007,-1.8778,-1.9418,-1.986,-2.0065,-1.986,-1.9307,-1.8664,-1.8684,-1.88,-1.886,-1.9362,-2.0088,-2.0916,-2.1533,-2.2186,-2.2858,-2.2751,-2.2438,-2.2275,-2.2216,-2.2141,-0.0764,-0.123,-0.1523,-0.1915,-0.2287,-0.2287,-0.227,-0.2296,0.0,0.0,0.0,-0.5975,-0.6692,-0.7332,-0.8052,-0.8424,-0.8448,-0.8381,-0.83,-0.8221,-0.8272,-0.8187,-0.7992,-0.7988,-0.7988,-0.7988,-0.7988,-0.8535,-0.9624,-1.1175,-1.2415,-1.3479,-1.4759,-1.5344,-1.5256,-1.5579,-1.6523,-1.803,-1.8756,-1.9756,-2.1024,-2.0762,-2.0615,-2.0615,-2.0615,-2.0615,-2.0615,-2.0661,-2.0614,-2.0341,-2.0406,-2.0333,-2.0014,-1.9477,-1.9053,-1.8674,-1.7606,-1.6591,-1.5767,-1.516,-1.4919,-1.5042,-1.5484,-1.5731,-1.5818,-1.5825,-1.5825,-1.5825,-1.5825,-1.5825,-1.5825,-1.5825,-1.5825,-1.5825,-1.5825,-1.5825,-1.5825,-1.5825,-1.5825,-1.5825,-1.5825,-1.5825,-1.5825,-1.5825,-1.5825,-1.5825,-1.5825,-1.6109,-1.6709,-1.6886,-1.6943,-1.7228,-1.7889,-1.8542,-1.9042,-1.9466,-1.9796,-1.9862,-1.9569,-1.9075,-1.8488,-1.8333,-1.8366,-1.8366,-1.8914,-1.9677,-2.0503,-2.1136,-2.1921,-2.2712,-2.2582,-2.2174,-2.1883,-2.1709,-2.1647,-0.0117,-0.0231,-0.0231,-0.0343,-0.0394,-0.0394,-0.0393,-0.0504,-0.2241,-0.3302,-0.3914,-0.4808,-0.5435,-0.602,-0.6872,-0.7347,-0.7513,-0.77,-0.7878,-0.7958,-0.8217,-0.8187,-0.7992,-0.7988,-0.7988,-0.7988,-0.7988,-0.8535,-0.9673,-1.1175,-1.2341,-1.3261,-1.4663,-1.5144,-1.4713,-1.5245,-1.6022,-1.6932,-1.8158,-1.9375,-2.0654,-2.0635,-2.0615,-2.0615,-2.0566,-2.0615,-2.0615,-2.0234,-1.9781,-1.9246,-1.8852,-1.8386,-1.7817,-1.7702,-1.7579,-1.7539,-1.7049,-1.6445,-1.5752,-1.5481,-1.5369,-1.5355,-1.5411,-1.5565,-1.5805,-1.5825,-1.5825,-1.5825,-1.5825,-1.5825,-1.5825,-1.5825,-1.5825,-1.5825,-1.5825,-1.5825,-1.5825,-1.5825,-1.5825,-1.5825,-1.5825,-1.5825,-1.5825,-1.5825,-1.5825,-1.5825,-1.5886,-1.6365,-1.7587,-1.785,-1.793,-1.8394,-1.8704,-1.9033,-1.9267,-1.9427,-1.9493,-1.9182,-1.8851,-1.8408,-1.7754,-1.7804,-1.7919,-1.7885,-1.8532,-1.9298,-1.9998,-2.0576,-2.1249,-2.1981,-2.1826,-2.1451,-2.1353,-2.1105,-2.0859,0.0114,0.0,0.0,0.0,0.0,0.0,0.0,0.0,-0.0896,-0.1569,-0.2181,-0.3048,-0.3736,-0.4354,-0.5124,-0.5691,-0.6118,-0.6573,-0.6975,-0.7327,-0.7888,-0.8106,-0.7995,-0.7988,-0.7988,-0.7988,-0.7988,-0.8535,-0.9665,-1.1008,-1.2141,-1.3128,-1.4352,-1.4703,-1.4358,-1.4787,-1.5414,-1.6157,-1.7594,-1.8935,-2.0167,-2.0216,-2.0206,-2.0206,-2.0137,-1.9981,-1.9893,-1.9341,-1.8816,-1.8327,-1.7747,-1.718,-1.6698,-1.665,-1.6657,-1.6657,-1.6255,-1.5801,-1.5394,-1.4892,-1.4535,-1.4404,-1.4525,-1.4655,-1.4782,-1.5408,-1.5825,-1.5825,-1.5825,-1.5825,-1.5825,-1.5825,-1.5825,-1.5825,-1.5825,-1.5825,-1.5825,-1.5825,-1.5825,-1.5825,-1.5825,-1.5825,-1.5825,-1.5825,-1.5825,-1.5818,-1.6081,-1.6912,-1.8211,-1.8491,-1.8732,-1.9204,-1.9399,-1.9448,-1.952,-1.9608,-1.9605,-1.9381,-1.8966,-1.8447,-1.7813,-1.7778,-1.7672,-1.7664,-1.8194,-1.8887,-1.9644,-2.0297,-2.0986,-2.1658,-2.1524,-2.1275,-2.1146,-2.0879,-2.0644,0.0336,0.0,0.0,0.0,0.0,0.0,0.0,0.0,0.0,-0.0279,-0.0779,-0.1647,-0.2283,-0.2795,-0.3506,-0.4178,-0.4822,-0.5514,-0.6129,-0.6781,-0.7587,-0.7988,-0.7988,-0.7988,-0.7988,-0.7982,-0.7958,-0.8481,-0.9494,-1.0696,-1.1973,-1.3211,-1.3957,-1.4223,-1.4095,-1.4454,-1.4936,-1.5628,-1.6895,-1.8247,-1.9618,-1.9696,-1.9696,-1.9696,-1.946,-1.9183,-1.8847,-1.8247,-1.7723,-1.7237,-1.6665,-1.6131,-1.5684,-1.5643,-1.5643,-1.5609,-1.5318,-1.4992,-1.4678,-1.3926,-1.3386,-1.3191,-1.3251,-1.3275,-1.3438,-1.4219,-1.5018,-1.5365,-1.5445,-1.5445,-1.5499,-1.5594,-1.5642,-1.5737,-1.5784,-1.5825,-1.5825,-1.5825,-1.5825,-1.5825,-1.5825,-1.5832,-1.5879,-1.5967,-1.6028,-1.6154,-1.6617,-1.7428,-1.8362,-1.9021,-1.9493,-1.9924,-2.0026,-1.9969,-1.9852,-1.9951,-1.999,-1.9844,-1.9499,-1.8993,-1.8425,-1.8014,-1.77,-1.7571,-1.7878,-1.8574,-1.93,-1.9931,-2.0628,-2.1273,-2.1221,-2.1034,-2.1014,-2.0801,-2.0625,0.0729,0.0,0.0,0.0,0.0,0.0,0.0,0.0,0.0,0.0,0.0,-0.0985,-0.1502,-0.1879,-0.2439,-0.308,-0.3792,-0.4782,-0.5682,-0.6484,-0.7537,-0.7988,-0.7988,-0.7988,-0.7988,-0.7968,-0.7902,-0.8233,-0.9083,-1.0168,-1.1719,-1.3523,-1.3791,-1.3903,-1.4088,-1.4321,-1.465,-1.5166,-1.5899,-1.718,-1.8966,-1.9073,-1.9073,-1.9085,-1.863,-1.8109,-1.752,-1.7066,-1.6568,-1.591,-1.547,-1.495,-1.4412,-1.4292,-1.4292,-1.4286,-1.425,-1.4039,-1.3568,-1.2833,-1.2437,-1.2175,-1.1754,-1.1563,-1.1787,-1.1881,-1.2642,-1.3939,-1.437,-1.4447,-1.4777,-1.4997,-1.5168,-1.5453,-1.5656,-1.5825,-1.5825,-1.5825,-1.5825,-1.5825,-1.5778,-1.5872,-1.6055,-1.6324,-1.656,-1.6713,-1.7204,-1.7921,-1.8778,-1.9359,-1.9983,-2.0659,-2.076,-2.0517,-2.045,-2.0489,-2.045,-2.0401,-2.0089,-1.9499,-1.8926,-1.8439,-1.806,-1.7529,-1.7764,-1.8331,-1.8909,-1.9427,-1.9948,-2.0672,-2.0791,-2.0664,-2.0674,-2.0644,-2.0615,0.1513,0.0504,0.0336,0.0168,0.0,0.0,0.0,0.0,0.0,0.0,0.0,-0.0371,-0.0579,-0.0674,-0.0975,-0.1523,-0.252,-0.387,-0.5027,-0.5984,-0.7338,-0.7988,-0.7988,-0.7988,-0.7948,-0.7909,-0.7838,-0.8103,-0.88,-0.9971,-1.1421,-1.2775,-1.3174,-1.3568,-1.4039,-1.4159,-1.4246,-1.4241,-1.4755,-1.5539,-1.6489,-1.7536,-1.8095,-1.8141,-1.7496,-1.6861,-1.6325,-1.572,-1.5215,-1.4823,-1.4567,-1.4269,-1.3828,-1.3995,-1.4088,-1.4088,-1.4088,-1.3877,-1.344,-1.2741,-1.2221,-1.1902,-1.1336,-1.11,-1.1191,-1.1354,-1.1806,-1.242,-1.264,-1.2821,-1.3222,-1.3688,-1.4214,-1.4771,-1.5291,-1.5638,-1.5812,-1.5671,-1.5571,-1.5565,-1.5424,-1.5462,-1.586,-1.6483,-1.7056,-1.7375,-1.7843,-1.8398,-1.8965,-1.9389,-1.9968,-2.0614,-2.0674,-2.0635,-2.0615,-2.0615,-2.0615,-2.0527,-2.0216,-1.9696,-1.9103,-1.8665,-1.8135,-1.7497,-1.7861,-1.8345,-1.8922,-1.946,-1.9971,-2.0411,-2.0615,-2.0615,-2.0615,-2.0615,-2.0615,0.252,0.1233,0.0561,0.0168,0.0,0.0,0.0,0.0,0.0,0.0,0.0,0.0,0.0,0.0,0.0,-0.0555,-0.1613,-0.3067,-0.4373,-0.5484,-0.7036,-0.7839,-0.7892,-0.7988,-0.7911,-0.7824,-0.777,-0.7935,-0.8444,-0.9665,-1.0958,-1.2057,-1.265,-1.3307,-1.4033,-1.4021,-1.3868,-1.3661,-1.3933,-1.4233,-1.4743,-1.5793,-1.6581,-1.6805,-1.6134,-1.5487,-1.4971,-1.4442,-1.4091,-1.3934,-1.3834,-1.3757,-1.3647,-1.3806,-1.4001,-1.4068,-1.4008,-1.3791,-1.3428,-1.2741,-1.2186,-1.1725,-1.1193,-1.0884,-1.0909,-1.1075,-1.1156,-1.1207,-1.1236,-1.1533,-1.2204,-1.2808,-1.3489,-1.4274,-1.4956,-1.5471,-1.5545,-1.5438,-1.5371,-1.5271,-1.5124,-1.5277,-1.5873,-1.6653,-1.7325,-1.7902,-1.832,-1.8699,-1.9118,-1.9548,-2.002,-2.0489,-2.0566,-2.0566,-2.0566,-2.0615,-2.0615,-2.0489,-2.0216,-1.9706,-1.9112,-1.8665,-1.8144,-1.7561,-1.8023,-1.8425,-1.8895,-1.945,-2.001,-2.0411,-2.0615,-2.0615,-2.0615,-2.0615,-2.0615,0.3801,0.2069,0.0616,0.0056,0.0,0.0,0.0,0.0,0.0,0.0,0.0,0.0,0.0,0.0,0.0,-0.0455,-0.1313,-0.262,-0.3776,-0.4883,-0.6487,-0.7391,-0.7643,-0.7892,-0.7907,-0.779,-0.7662,-0.7784,-0.8215,-0.9148,-1.0347,-1.1671,-1.2357,-1.3179,-1.3902,-1.3773,-1.362,-1.3561,-1.3526,-1.3724,-1.4095,-1.4105,-1.4401,-1.4839,-1.4528,-1.4066,-1.345,-1.3286,-1.3265,-1.3226,-1.3246,-1.334,-1.3553,-1.3606,-1.374,-1.4008,-1.3821,-1.3587,-1.3347,-1.2729,-1.2126,-1.1714,-1.1084,-1.0684,-1.0753,-1.0827,-1.0837,-1.0704,-1.0832,-1.1245,-1.2225,-1.2818,-1.3408,-1.4108,-1.4884,-1.5231,-1.5102,-1.5231,-1.5237,-1.5089,-1.4968,-1.5338,-1.6397,-1.6969,-1.759,-1.8228,-1.876,-1.9149,-1.9557,-1.9971,-2.0303,-2.045,-2.045,-2.0381,-2.0537,-2.045,-2.0489,-2.0372,-1.9971,-1.9657,-1.9125,-1.859,-1.8029,-1.7747,-1.8078,-1.8487,-1.8926,-1.9402,-1.9971,-2.0333,-2.0566,-2.0615,-2.0615,-2.0615,-2.0615,0.4529,0.2407,0.1121,0.0557,0.0551,0.0548,0.0486,0.0529,0.0522,0.0413,0.0255,0.0101,0.0,0.0,0.0,-0.0353,-0.101,-0.1965,-0.302,-0.413,-0.5682,-0.6684,-0.7126,-0.7596,-0.7818,-0.7672,-0.7526,-0.7482,-0.7609,-0.8508,-0.9632,-1.0923,-1.1837,-1.2753,-1.3566,-1.366,-1.3427,-1.3139,-1.3069,-1.3042,-1.303,-1.2921,-1.2996,-1.3184,-1.3418,-1.333,-1.2958,-1.2732,-1.2632,-1.2632,-1.2844,-1.2998,-1.3112,-1.3253,-1.346,-1.3706,-1.3666,-1.3561,-1.3347,-1.2741,-1.2223,-1.1886,-1.1365,-1.1144,-1.1316,-1.1402,-1.1483,-1.1488,-1.1483,-1.1863,-1.2345,-1.2633,-1.2917,-1.3667,-1.4364,-1.489,-1.4961,-1.4897,-1.479,-1.472,-1.474,-1.5155,-1.593,-1.6643,-1.7524,-1.86,-1.9136,-1.9587,-2.0089,-2.0411,-2.0489,-2.0527,-2.0294,-1.9942,-1.9569,-1.9814,-1.9902,-1.9784,-1.9548,-1.9381,-1.8975,-1.8935,-1.8536,-1.8519,-1.8647,-1.8926,-1.9481,-1.9835,-2.0284,-2.0411,-2.0615,-2.0615,-2.0615,-2.0615,-2.0615,0.5254,0.3356,0.1894,0.1326,0.1311,0.1242,0.1167,0.1193,0.1185,0.097,0.0657,0.0,0.0,0.0,0.0,-0.0202,-0.0606,-0.1361,-0.2266,-0.3325,-0.4778,-0.5829,-0.6462,-0.7192,-0.7545,-0.7439,-0.7344,-0.7238,-0.7194,-0.8021,-0.9104,-1.0351,-1.1316,-1.2318,-1.3222,-1.3391,-1.3167,-1.2857,-1.269,-1.2536,-1.2325,-1.2305,-1.2305,-1.2331,-1.2655,-1.2794,-1.2636,-1.2405,-1.2305,-1.2331,-1.2536,-1.2683,-1.279,-1.2978,-1.324,-1.3533,-1.3507,-1.3434,-1.3328,-1.2747,-1.2308,-1.2149,-1.1837,-1.1746,-1.21,-1.2443,-1.2656,-1.2656,-1.2662,-1.2833,-1.3003,-1.2997,-1.3065,-1.3566,-1.4109,-1.4549,-1.4707,-1.4589,-1.4452,-1.4432,-1.452,-1.4887,-1.547,-1.627,-1.7326,-1.859,-1.9164,-1.9648,-2.0216,-2.0294,-2.0255,-2.0128,-1.9648,-1.9134,-1.8647,-1.8567,-1.8607,-1.8527,-1.8856,-1.8816,-1.8984,-1.9033,-1.9192,-1.9301,-1.946,-1.9687,-1.9962,-2.0323,-2.0479,-2.0566,-2.0615,-2.0615,-2.0615,-2.0615,-2.0615,0.5968,0.4673,0.2965,0.2235,0.2221,0.2109,0.2022,0.2063,0.2032,0.1766,0.121,0.0404,0.0,0.0,0.0,0.0,-0.0202,-0.0857,-0.1562,-0.242,-0.3726,-0.478,-0.5527,-0.6491,-0.707,-0.7209,-0.7143,-0.7105,-0.7143,-0.7845,-0.8798,-0.987,-1.0768,-1.1778,-1.2953,-1.2867,-1.285,-1.2694,-1.2502,-1.2325,-1.2305,-1.2305,-1.2305,-1.2305,-1.2331,-1.2375,-1.2325,-1.2311,-1.2305,-1.2305,-1.2318,-1.2452,-1.271,-1.2804,-1.3019,-1.3427,-1.334,-1.3249,-1.3267,-1.2601,-1.2174,-1.2137,-1.2211,-1.2254,-1.2699,-1.3392,-1.3822,-1.3786,-1.3877,-1.3997,-1.3955,-1.3955,-1.3877,-1.3812,-1.4193,-1.4376,-1.4255,-1.4355,-1.4409,-1.4218,-1.4286,-1.4573,-1.5117,-1.5816,-1.6829,-1.7948,-1.8647,-1.9192,-1.9706,-1.9657,-1.9508,-1.9183,-1.8687,-1.8126,-1.7642,-1.7204,-1.7147,-1.718,-1.7755,-1.8037,-1.8607,-1.8816,-1.9262,-1.946,-1.9775,-2.001,-2.0137,-2.045,-2.0527,-2.0615,-2.0615,-2.0615,-2.0615,-2.0615,-2.0615,0.6475,0.5452,0.3866,0.3352,0.3473,0.3223,0.319,0.3356,0.318,0.2722,0.1916,0.0959,0.0455,0.0252,0.0,0.0,0.0,-0.0303,-0.0707,-0.1413,-0.2317,-0.3321,-0.4303,-0.5494,-0.6441,-0.7031,-0.7101,-0.7095,-0.7228,-0.7672,-0.8317,-0.9107,-0.9979,-1.0859,-1.176,-1.2064,-1.228,-1.2428,-1.2351,-1.2305,-1.2305,-1.2305,-1.2305,-1.2305,-1.2305,-1.2305,-1.2305,-1.2305,-1.2305,-1.2305,-1.2305,-1.2351,-1.2458,-1.267,-1.2894,-1.3087,-1.3103,-1.2826,-1.242,-1.1789,-1.1316,-1.1235,-1.1278,-1.1709,-1.232,-1.3137,-1.3652,-1.3828,-1.3997,-1.4088,-1.4088,-1.4088,-1.4046,-1.3997,-1.4119,-1.4208,-1.4122,-1.4175,-1.4175,-1.4115,-1.4166,-1.425,-1.4545,-1.5242,-1.6337,-1.7472,-1.8095,-1.8634,-1.9094,-1.9006,-1.8479,-1.7989,-1.7464,-1.7066,-1.6583,-1.6131,-1.5884,-1.6041,-1.6535,-1.718,-1.7787,-1.8359,-1.8926,-1.949,-1.9844,-2.0167,-2.0294,-2.0498,-2.0576,-2.0615,-2.0615,-2.0615,-2.0615,-2.0615,-2.0615,0.722,0.6426,0.5164,0.4752,0.4856,0.4574,0.4581,0.4738,0.4582,0.3979,0.3022,0.1815,0.1009,0.0656,0.0202,0.0,0.0,0.0,-0.0151,-0.0606,-0.131,-0.2267,-0.3409,-0.503,-0.6224,-0.6964,-0.7095,-0.7095,-0.7139,-0.7496,-0.7937,-0.8513,-0.9245,-0.9998,-1.0735,-1.1266,-1.1682,-1.2011,-1.215,-1.2231,-1.2268,-1.2305,-1.2305,-1.2305,-1.2305,-1.2305,-1.2305,-1.2305,-1.2305,-1.2305,-1.2305,-1.2345,-1.2465,-1.2703,-1.2848,-1.2867,-1.2666,-1.229,-1.1632,-1.0755,-1.0154,-1.0028,-1.0115,-1.0544,-1.1365,-1.2314,-1.3082,-1.3434,-1.3828,-1.4088,-1.4088,-1.4088,-1.4088,-1.4088,-1.4095,-1.4088,-1.4088,-1.4166,-1.425,-1.4328,-1.4419,-1.4503,-1.4748,-1.5367,-1.6304,-1.7359,-1.7983,-1.8402,-1.8736,-1.8527,-1.7917,-1.7229,-1.6706,-1.6214,-1.5594,-1.5144,-1.4699,-1.4901,-1.5269,-1.6,-1.669,-1.722,-1.7747,-1.8598,-1.9125,-1.9648,-1.9844,-2.0372,-2.0615,-2.0615,-2.0557,-2.0615,-2.0615,-2.0615,-2.0615,0.8089,0.7503,0.6646,0.6182,0.6169,0.603,0.5942,0.6039,0.5984,0.5329,0.4227,0.277,0.1813,0.121,0.0505,0.0,0.0,0.0,0.0,0.0,-0.0807,-0.1761,-0.313,-0.4967,-0.6233,-0.6999,-0.7095,-0.7095,-0.7095,-0.7367,-0.7632,-0.7924,-0.8522,-0.9192,-0.9788,-1.0467,-1.1036,-1.1583,-1.1855,-1.204,-1.2268,-1.2305,-1.2305,-1.2305,-1.2305,-1.2305,-1.2305,-1.2305,-1.2305,-1.2268,-1.2264,-1.2366,-1.2647,-1.2727,-1.2792,-1.2716,-1.2212,-1.157,-1.0801,-0.9806,-0.9109,-0.9113,-0.92,-0.9331,-1.0549,-1.1746,-1.2644,-1.3124,-1.3737,-1.4088,-1.4088,-1.4088,-1.4088,-1.4088,-1.4088,-1.4088,-1.413,-1.4286,-1.4524,-1.4776,-1.4992,-1.5249,-1.5511,-1.6312,-1.7082,-1.7844,-1.8425,-1.8714,-1.8754,-1.8416,-1.7619,-1.6886,-1.6098,-1.5567,-1.5026,-1.4776,-1.437,-1.4454,-1.4699,-1.5193,-1.5842,-1.6329,-1.6862,-1.7706,-1.8399,-1.8917,-1.949,-1.9902,-2.0265,-2.0304,-2.0362,-2.0518,-2.0566,-2.0557,-2.0615,0.7904,0.755,0.6944,0.6779,0.6882,0.6692,0.6734,0.6836,0.6681,0.6132,0.5131,0.3776,0.2821,0.2017,0.106,0.0505,0.0303,0.0,0.0,0.0,-0.0202,-0.1535,-0.3297,-0.4732,-0.6002,-0.6951,-0.7095,-0.7095,-0.7095,-0.7187,-0.7187,-0.7055,-0.7602,-0.8,-0.8414,-0.9177,-1.0041,-1.0956,-1.1403,-1.1781,-1.2187,-1.2268,-1.2305,-1.2305,-1.2268,-1.2274,-1.2305,-1.2305,-1.2231,-1.2096,-1.2111,-1.2133,-1.208,-1.223,-1.2137,-1.1715,-1.1393,-1.0855,-1.0058,-0.9331,-0.8942,-0.8951,-0.9248,-0.9816,-1.0727,-1.1752,-1.2613,-1.3222,-1.3786,-1.4088,-1.4088,-1.4088,-1.4088,-1.4088,-1.4088,-1.4088,-1.4166,-1.4405,-1.481,-1.533,-1.5752,-1.6165,-1.6657,-1.7188,-1.7844,-1.8447,-1.8745,-1.8882,-1.8745,-1.8215,-1.7375,-1.6345,-1.556,-1.4999,-1.4545,-1.4334,-1.4166,-1.4166,-1.4334,-1.4587,-1.5242,-1.5809,-1.6337,-1.6984,-1.7472,-1.7997,-1.8665,-1.925,-1.9541,-1.975,-1.9944,-1.9982,-2.0343,-2.045,-2.0566,0.7892,0.7743,0.7434,0.7385,0.7537,0.7385,0.7385,0.7487,0.7335,0.6933,0.6134,0.5131,0.4078,0.3175,0.1916,0.111,0.0706,0.0202,0.0,0.0,-0.0252,-0.1481,-0.3164,-0.4417,-0.5534,-0.6723,-0.6922,-0.701,-0.7095,-0.7095,-0.6964,-0.6915,-0.7062,-0.734,-0.77,-0.8268,-0.9178,-1.0153,-1.0689,-1.1186,-1.1744,-1.1781,-1.1781,-1.1818,-1.1861,-1.2011,-1.2329,-1.2543,-1.248,-1.2112,-1.1782,-1.1606,-1.1535,-1.142,-1.1171,-1.0673,-1.035,-0.985,-0.9419,-0.9026,-0.9026,-0.9248,-0.968,-1.0328,-1.1063,-1.188,-1.2607,-1.313,-1.3737,-1.4039,-1.4088,-1.4088,-1.4088,-1.4088,-1.4088,-1.4088,-1.4088,-1.4447,-1.4985,-1.5587,-1.6116,-1.6657,-1.7237,-1.7732,-1.8175,-1.8536,-1.8714,-1.8754,-1.8625,-1.7893,-1.7082,-1.609,-1.5269,-1.479,-1.4439,-1.4235,-1.4218,-1.4175,-1.4191,-1.4396,-1.4663,-1.5229,-1.5443,-1.5925,-1.6501,-1.7074,-1.7651,-1.8175,-1.8501,-1.8744,-1.9079,-1.9502,-1.9874,-2.0333,-2.0479,0.8091,0.8041,0.8038,0.7988,0.7988,0.7988,0.7939,0.7988,0.7939,0.7637,0.7039,0.6381,0.5329,0.4427,0.2718,0.1763,0.116,0.0353,0.0,0.0,-0.0503,-0.1433,-0.2577,-0.3754,-0.4967,-0.6153,-0.6567,-0.6881,-0.7054,-0.7095,-0.7018,-0.6905,-0.693,-0.7067,-0.7279,-0.7751,-0.8466,-0.9253,-0.975,-1.0244,-1.0732,-1.085,-1.0836,-1.0938,-1.1388,-1.1796,-1.2389,-1.2818,-1.2877,-1.2247,-1.1504,-1.1278,-1.1203,-1.0627,-1.0239,-0.9995,-0.957,-0.92,-0.9069,-0.92,-0.9327,-0.9845,-1.0448,-1.0966,-1.1537,-1.2132,-1.2687,-1.3173,-1.3695,-1.4066,-1.4175,-1.4155,-1.4208,-1.4255,-1.4235,-1.4195,-1.4247,-1.4495,-1.4985,-1.5609,-1.6098,-1.6681,-1.7221,-1.7668,-1.7983,-1.8037,-1.8215,-1.8215,-1.8046,-1.7521,-1.6747,-1.5933,-1.5235,-1.4664,-1.4404,-1.4184,-1.4278,-1.4289,-1.4255,-1.4321,-1.4287,-1.4592,-1.4523,-1.4866,-1.5643,-1.6131,-1.6453,-1.6879,-1.735,-1.7868,-1.8296,-1.8843,-1.9417,-2.001,-2.0333,0.8478,0.8283,0.8084,0.7988,0.7988,0.7988,0.7988,0.7988,0.7988,0.7793,0.7441,0.6883,0.6029,0.4979,0.342,0.2216,0.1462,0.0,0.0,0.0,-0.0303,-0.079,-0.1726,-0.2852,-0.4225,-0.5407,-0.6033,-0.6523,-0.6922,-0.7085,-0.7024,-0.6932,-0.6839,-0.6747,-0.6798,-0.7129,-0.7476,-0.8122,-0.8613,-0.9145,-0.9599,-0.9717,-0.9791,-0.9983,-1.088,-1.166,-1.2247,-1.2857,-1.3041,-1.2709,-1.2097,-1.1524,-1.1249,-1.0804,-1.0393,-1.0043,-0.9724,-0.951,-0.968,-0.9937,-1.0289,-1.0885,-1.1445,-1.1918,-1.2357,-1.2656,-1.3088,-1.3483,-1.3877,-1.4175,-1.4362,-1.4416,-1.4509,-1.4649,-1.476,-1.4774,-1.4777,-1.4742,-1.5041,-1.5575,-1.609,-1.6609,-1.7188,-1.7269,-1.7472,-1.7504,-1.7545,-1.7594,-1.735,-1.6984,-1.6417,-1.5668,-1.5259,-1.4761,-1.4543,-1.4419,-1.4512,-1.4516,-1.4469,-1.4355,-1.4329,-1.4291,-1.4352,-1.4586,-1.4915,-1.5276,-1.5553,-1.5902,-1.6373,-1.696,-1.749,-1.8057,-1.8652,-1.939,-2.0089,0.9118,0.8726,0.8237,0.7988,0.7988,0.7988,0.7988,0.7988,0.7988,0.7939,0.7793,0.7484,0.6731,0.5679,0.4121,0.2868,0.1815,0.0,0.0,0.0,-0.0151,-0.0346,-0.0672,-0.166,-0.2934,-0.4495,-0.5322,-0.5988,-0.6609,-0.6915,-0.6973,-0.698,-0.6875,-0.6739,-0.662,-0.6788,-0.7102,-0.7492,-0.7821,-0.8237,-0.8651,-0.8732,-0.8942,-0.9414,-1.0402,-1.1304,-1.177,-1.2527,-1.2816,-1.2624,-1.2152,-1.173,-1.1446,-1.0946,-1.0534,-1.0328,-1.0154,-1.0246,-1.0544,-1.0971,-1.1483,-1.2052,-1.2619,-1.3009,-1.3313,-1.3483,-1.361,-1.3828,-1.4024,-1.4202,-1.4446,-1.4683,-1.4816,-1.4948,-1.5022,-1.5015,-1.4986,-1.4861,-1.5,-1.5458,-1.5781,-1.6154,-1.6486,-1.6609,-1.669,-1.6657,-1.6698,-1.6698,-1.6617,-1.6319,-1.6035,-1.5549,-1.5227,-1.4898,-1.4717,-1.4693,-1.48,-1.4827,-1.4807,-1.4609,-1.4482,-1.4376,-1.4305,-1.4472,-1.458,-1.4545,-1.4817,-1.513,-1.5413,-1.5733,-1.6294,-1.7,-1.7846,-1.8696,-1.9402,0.9805,0.9164,0.8333,0.7988,0.7988,0.7988,0.7988,0.7988,0.7988,0.7988,0.7988,0.7988,0.7338,0.6284,0.4822,0.347,0.2017,0.0858,0.0,0.0,0.0,0.0,0.0,-0.0801,-0.1719,-0.3457,-0.4293,-0.5181,-0.6074,-0.6567,-0.6779,-0.6977,-0.695,-0.6854,-0.6764,-0.6753,-0.6907,-0.7132,-0.7309,-0.7493,-0.7793,-0.7875,-0.816,-0.881,-0.9671,-1.0459,-1.101,-1.1716,-1.2237,-1.21,-1.1757,-1.158,-1.1365,-1.1015,-1.0616,-1.0659,-1.0664,-1.0923,-1.1408,-1.2003,-1.2516,-1.3088,-1.3717,-1.4077,-1.4126,-1.4176,-1.423,-1.4246,-1.4322,-1.4416,-1.4636,-1.4877,-1.5089,-1.5169,-1.5162,-1.5142,-1.5089,-1.5059,-1.5166,-1.519,-1.5255,-1.5478,-1.557,-1.5684,-1.5767,-1.5816,-1.5865,-1.5831,-1.5763,-1.5664,-1.5446,-1.5326,-1.5059,-1.5099,-1.501,-1.4957,-1.5102,-1.5124,-1.509,-1.4883,-1.4683,-1.4496,-1.4355,-1.4211,-1.4208,-1.4208,-1.425,-1.4489,-1.4657,-1.472,-1.5236,-1.6174,-1.7049,-1.7965,-1.8647,1.0239,0.946,0.8432,0.7988,0.7988,0.7988,0.7988,0.7988,0.7988,0.7988,0.7988,0.7988,0.7543,0.6539,0.5329,0.3422,0.1614,0.0655,0.02,0.0,0.0,0.0,0.0,-0.028,-0.0918,-0.1713,-0.2819,-0.4111,-0.5361,-0.5988,-0.6479,-0.6892,-0.6967,-0.6869,-0.6809,-0.6788,-0.6767,-0.6861,-0.6898,-0.6983,-0.706,-0.713,-0.7353,-0.7967,-0.882,-0.9445,-0.9947,-1.0542,-1.0913,-1.0918,-1.0832,-1.0788,-1.0745,-1.0631,-1.0674,-1.0928,-1.1144,-1.1488,-1.21,-1.2613,-1.3088,-1.357,-1.4111,-1.4386,-1.4496,-1.468,-1.4733,-1.4794,-1.4827,-1.4917,-1.5217,-1.5277,-1.5438,-1.5578,-1.5625,-1.5618,-1.5571,-1.5424,-1.5158,-1.5018,-1.4834,-1.474,-1.4971,-1.5078,-1.5128,-1.5191,-1.5142,-1.5128,-1.5036,-1.4956,-1.4886,-1.4835,-1.4862,-1.508,-1.5296,-1.5297,-1.5371,-1.5478,-1.5431,-1.5184,-1.4957,-1.4663,-1.4456,-1.4282,-1.4135,-1.413,-1.413,-1.4088,-1.4208,-1.4454,-1.4923,-1.54,-1.6208,-1.7,-1.7902,1.0832,0.9862,0.8584,0.7988,0.7988,0.7988,0.7988,0.7988,0.7988,0.7988,0.7988,0.7988,0.764,0.6886,0.5932,0.3922,0.1911,0.0998,0.0545,0.0,0.0,0.0,0.0,0.0,-0.032,-0.0722,-0.1524,-0.2907,-0.4514,-0.523,-0.5944,-0.6596,-0.6802,-0.688,-0.6893,-0.6858,-0.6776,-0.6736,-0.6709,-0.6709,-0.6719,-0.677,-0.7034,-0.7493,-0.8099,-0.8663,-0.9065,-0.9579,-0.9879,-0.9879,-0.9879,-0.9879,-0.9879,-0.9932,-1.0284,-1.0933,-1.1488,-1.2046,-1.2699,-1.3228,-1.3753,-1.4051,-1.4376,-1.4596,-1.4723,-1.4908,-1.5042,-1.5055,-1.515,-1.5237,-1.5364,-1.5518,-1.5685,-1.5778,-1.5825,-1.5825,-1.5798,-1.5644,-1.5325,-1.499,-1.4945,-1.4926,-1.4788,-1.4778,-1.4657,-1.4543,-1.4529,-1.4502,-1.4476,-1.4616,-1.4763,-1.4983,-1.5124,-1.5297,-1.5511,-1.5538,-1.5571,-1.5685,-1.5698,-1.5458,-1.5224,-1.4923,-1.4649,-1.4416,-1.4289,-1.4148,-1.4088,-1.4088,-1.4166,-1.4201,-1.4523,-1.4881,-1.5369,-1.6046,-1.6959,1.1585,1.0515,0.8844,0.8134,0.8091,0.8038,0.7988,0.7988,0.7988,0.7988,0.7988,0.7988,0.7739,0.7129,0.6106,0.4543,0.2298,0.1721,0.0973,0.0,0.0,0.0,0.0,0.0,0.0,-0.018,-0.0583,-0.1613,-0.3221,-0.4202,-0.5184,-0.5983,-0.6476,-0.6791,-0.691,-0.6937,-0.6878,-0.6831,-0.6787,-0.679,-0.6824,-0.6902,-0.7013,-0.7228,-0.7734,-0.8065,-0.8237,-0.8496,-0.8711,-0.8711,-0.8755,-0.8755,-0.8755,-0.8798,-0.9366,-1.0496,-1.1477,-1.2217,-1.279,-1.3572,-1.4038,-1.4282,-1.4592,-1.4823,-1.4997,-1.5137,-1.519,-1.5177,-1.5324,-1.5484,-1.5551,-1.5685,-1.5751,-1.5825,-1.5825,-1.5825,-1.5825,-1.5772,-1.5658,-1.5424,-1.5251,-1.5109,-1.4968,-1.4867,-1.4807,-1.4807,-1.4794,-1.4807,-1.4807,-1.4981,-1.5117,-1.5391,-1.5565,-1.5665,-1.5752,-1.5725,-1.5738,-1.5758,-1.5765,-1.5618,-1.5404,-1.5177,-1.489,-1.4583,-1.4389,-1.4262,-1.4175,-1.4088,-1.4124,-1.4124,-1.413,-1.4334,-1.4783,-1.5335,-1.6129,1.2403,1.1294,0.9482,0.8577,0.8333,0.8137,0.7988,0.7988,0.7988,0.7988,0.7988,0.7988,0.7842,0.7307,0.6224,0.4767,0.3467,0.2506,0.1661,0.0798,0.0466,0.023,0.0,0.0,0.0,0.0,-0.0269,-0.0986,-0.2104,-0.2996,-0.4156,-0.5272,-0.5944,-0.6467,-0.6919,-0.6997,-0.7061,-0.7038,-0.7031,-0.7028,-0.7028,-0.7045,-0.7099,-0.7153,-0.7254,-0.736,-0.7445,-0.7577,-0.7577,-0.7533,-0.7445,-0.7404,-0.736,-0.7356,-0.7621,-0.8584,-0.9893,-1.1456,-1.2103,-1.3108,-1.3967,-1.4324,-1.4822,-1.5244,-1.5371,-1.5518,-1.5631,-1.5732,-1.5704,-1.5684,-1.5718,-1.5792,-1.5825,-1.5825,-1.5825,-1.5825,-1.5825,-1.5825,-1.5711,-1.5745,-1.5531,-1.5304,-1.5117,-1.5075,-1.5001,-1.5008,-1.5022,-1.5055,-1.5122,-1.5296,-1.5364,-1.5605,-1.5705,-1.5798,-1.5825,-1.5825,-1.5825,-1.5825,-1.5792,-1.5745,-1.5565,-1.5337,-1.5037,-1.4756,-1.4549,-1.4315,-1.4155,-1.4088,-1.4088,-1.4088,-1.4088,-1.4104,-1.4161,-1.4734,-1.5365,1.3663,1.2124,1.0276,0.9213,0.8775,0.8237,0.7988,0.7988,0.7988,0.7988,0.7988,0.7988,0.7895,0.753,0.6709,0.5779,0.4654,0.368,0.2518,0.1429,0.096,0.0544,0.0,0.0,0.0,0.0,0.0,-0.0269,-0.1076,-0.2059,-0.3264,-0.4425,-0.5186,-0.5899,-0.6653,-0.6833,-0.6962,-0.7044,-0.7092,-0.7095,-0.7095,-0.7095,-0.7095,-0.7095,-0.7095,-0.7095,-0.7095,-0.7095,-0.7095,-0.7095,-0.7095,-0.7095,-0.7139,-0.7139,-0.7275,-0.768,-0.8679,-0.9906,-1.1115,-1.2455,-1.3407,-1.4237,-1.4891,-1.5431,-1.5605,-1.5738,-1.5825,-1.5818,-1.5825,-1.5825,-1.5825,-1.5825,-1.5825,-1.5825,-1.5825,-1.5825,-1.5825,-1.5825,-1.5812,-1.5825,-1.5805,-1.5571,-1.5404,-1.5391,-1.5364,-1.5378,-1.5404,-1.5431,-1.5484,-1.5585,-1.5671,-1.5752,-1.5798,-1.5818,-1.5825,-1.5825,-1.5825,-1.5825,-1.5825,-1.5765,-1.5685,-1.5464,-1.5157,-1.4877,-1.4643,-1.4402,-1.4162,-1.4088,-1.4088,-1.4088,-1.4088,-1.411,-1.4097,-1.4195,-1.4853,1.487,1.311,1.1063,0.9854,0.9217,0.8382,0.7988,0.7988,0.7988,0.7988,0.7988,0.7985,0.797,0.7761,0.7257,0.6485,0.5732,0.4769,0.3487,0.2413,0.1538,0.0944,0.0,0.0,0.0,0.0,0.0,0.0,0.0,-0.1121,-0.2237,-0.3355,-0.4113,-0.5095,-0.5985,-0.6432,-0.67,-0.7095,-0.7095,-0.7095,-0.7095,-0.7095,-0.7095,-0.7095,-0.7095,-0.7095,-0.7095,-0.7095,-0.7095,-0.7095,-0.7095,-0.7095,-0.7095,-0.7139,-0.7187,-0.7455,-0.7937,-0.8617,-1.0046,-1.1452,-1.2819,-1.3875,-1.4886,-1.5524,-1.5758,-1.5825,-1.5825,-1.5825,-1.5825,-1.5825,-1.5825,-1.5825,-1.5825,-1.5825,-1.5825,-1.5825,-1.5825,-1.5825,-1.5825,-1.5825,-1.5825,-1.5825,-1.5718,-1.5765,-1.5785,-1.5798,-1.5825,-1.5825,-1.5818,-1.5764,-1.5812,-1.5825,-1.5825,-1.5825,-1.5778,-1.5778,-1.5778,-1.573,-1.573,-1.5758,-1.5637,-1.5491,-1.5251,-1.499,-1.4705,-1.4429,-1.4155,-1.4115,-1.4088,-1.4088,-1.4088,-1.4088,-1.4124,-1.413,-1.4404,1.5831,1.437,1.1801,1.0342,0.9513,0.8432,0.7988,0.7988,0.7988,0.7988,0.7988,0.7985,0.7978,0.7848,0.7465,0.6963,0.6388,0.5383,0.4334,0.3281,0.2372,0.1568,0.0986,0.0538,0.0,0.0,0.0,0.0,0.0,-0.0404,-0.121,-0.1925,-0.2996,-0.4156,-0.5228,-0.5988,-0.6567,-0.6966,-0.7095,-0.7095,-0.7095,-0.7095,-0.7095,-0.7095,-0.7095,-0.7095,-0.7095,-0.7095,-0.7095,-0.7095,-0.7095,-0.7095,-0.7095,-0.717,-0.7224,-0.7272,-0.7348,-0.797,-0.9066,-1.0559,-1.2124,-1.3292,-1.4465,-1.5475,-1.5771,-1.5825,-1.5825,-1.5825,-1.5825,-1.5825,-1.5825,-1.5825,-1.5825,-1.5825,-1.5825,-1.5825,-1.5825,-1.5825,-1.5825,-1.5825,-1.5825,-1.5825,-1.5825,-1.5825,-1.5825,-1.5825,-1.5825,-1.5825,-1.5825,-1.5818,-1.5818,-1.5825,-1.5825,-1.5778,-1.5784,-1.5737,-1.5594,-1.5445,-1.5397,-1.5493,-1.5568,-1.5384,-1.5068,-1.4942,-1.4609,-1.4379,-1.4208,-1.4222,-1.4202,-1.4122,-1.4088,-1.4088,-1.413,-1.4179,-1.4418,1.5875,1.4765,1.278,1.1224,0.9961,0.8584,0.7988,0.7988,0.7988,0.7988,0.7988,0.7985,0.7938,0.7837,0.7704,0.7378,0.7003,0.6396,0.543,0.4527,0.3621,0.2551,0.1702,0.0942,0.0,0.0,0.0,0.0,0.0,0.0,0.0,-0.0987,-0.1971,-0.3221,-0.4338,-0.5586,-0.639,-0.6792,-0.7054,-0.7095,-0.7095,-0.7095,-0.7095,-0.7095,-0.7095,-0.7095,-0.7095,-0.7095,-0.7095,-0.7095,-0.7095,-0.7102,-0.7173,-0.7227,-0.7268,-0.7295,-0.7346,-0.7688,-0.8255,-0.9724,-1.1248,-1.3377,-1.447,-1.5213,-1.5594,-1.5778,-1.5778,-1.5825,-1.573,-1.5683,-1.5778,-1.5778,-1.5825,-1.5825,-1.5778,-1.5778,-1.5825,-1.5825,-1.5825,-1.5825,-1.5825,-1.5825,-1.5825,-1.5825,-1.5825,-1.5825,-1.5825,-1.5825,-1.5825,-1.5825,-1.5825,-1.5825,-1.5825,-1.5689,-1.5642,-1.5499,-1.5309,-1.5112,-1.4968,-1.4819,-1.4717,-1.4848,-1.4518,-1.4488,-1.4462,-1.4282,-1.4193,-1.4279,-1.4246,-1.4148,-1.4095,-1.4088,-1.413,-1.4144,-1.4284,1.583,1.4948,1.3633,1.2198,1.0654,0.9126,0.8435,0.8336,0.8283,0.8137,0.7988,0.7985,0.7987,0.7892,0.7814,0.7685,0.7356,0.688,0.6322,0.5447,0.4469,0.3355,0.2284,0.1389,0.0,0.0,0.0,0.0,0.0,0.0,0.0,0.0,-0.1076,-0.2193,-0.34,-0.5095,-0.6254,-0.6571,-0.6922,-0.7095,-0.7095,-0.7095,-0.7095,-0.7095,-0.7095,-0.7095,-0.7095,-0.7095,-0.7095,-0.7095,-0.7102,-0.7122,-0.7227,-0.7305,-0.7383,-0.7461,-0.7546,-0.7767,-0.8225,-0.9336,-1.0849,-1.2886,-1.3776,-1.4532,-1.5112,-1.535,-1.5207,-1.5255,-1.5302,-1.5343,-1.535,-1.5302,-1.5452,-1.5404,-1.5635,-1.5683,-1.5778,-1.5825,-1.5825,-1.5825,-1.5825,-1.5825,-1.5825,-1.5825,-1.5778,-1.5778,-1.5825,-1.5825,-1.5825,-1.5825,-1.5825,-1.5825,-1.5825,-1.5642,-1.5452,-1.501,-1.4526,-1.404,-1.38,-1.3505,-1.3457,-1.359,-1.3701,-1.352,-1.3597,-1.3925,-1.4148,-1.4189,-1.4177,-1.4135,-1.4059,-1.3955,-1.3805,-1.377,-1.3822,1.5809,1.5,1.4232,1.2974,1.1585,1.0162,0.9476,0.9229,0.8878,0.8482,0.8038,0.7988,0.7988,0.7938,0.7892,0.7736,0.7533,0.7181,0.6742,0.6051,0.5218,0.3903,0.2735,0.1797,0.0,0.0,0.0,0.0,0.0,0.0,0.0,0.0,-0.0494,-0.1165,-0.2059,-0.4243,-0.5586,-0.6127,-0.6697,-0.6962,-0.7102,-0.7112,-0.7177,-0.7136,-0.7214,-0.7231,-0.719,-0.7187,-0.718,-0.7098,-0.7129,-0.7227,-0.7326,-0.7394,-0.7482,-0.759,-0.7617,-0.7699,-0.7901,-0.9453,-1.0791,-1.1973,-1.263,-1.3312,-1.4052,-1.4292,-1.4238,-1.4094,-1.419,-1.4244,-1.4394,-1.4538,-1.4688,-1.5022,-1.5207,-1.554,-1.5683,-1.5825,-1.5825,-1.5825,-1.5825,-1.5825,-1.5825,-1.5778,-1.5778,-1.5778,-1.5778,-1.5778,-1.5635,-1.554,-1.5397,-1.5397,-1.535,-1.501,-1.4675,-1.4178,-1.3692,-1.3162,-1.2684,-1.2344,-1.2109,-1.2062,-1.2199,-1.2351,-1.2808,-1.3292,-1.3752,-1.4091,-1.403,-1.3885,-1.3789,-1.3701,-1.3515,-1.3387,-1.3349,1.5734,1.5309,1.4675,1.4052,1.3184,1.1765,1.0886,1.0395,0.9513,0.868,0.8088,0.7988,0.7988,0.7965,0.7974,0.7831,0.7587,0.7641,0.7279,0.6859,0.5929,0.4699,0.3458,0.2301,0.1258,0.0,0.0,0.0,0.0,0.0,0.0,0.0,0.0,-0.0852,-0.2104,-0.3666,-0.4696,-0.5411,-0.6118,-0.6697,-0.6897,-0.7148,-0.7292,-0.7295,-0.7373,-0.7377,-0.7299,-0.7288,-0.7244,-0.7152,-0.7186,-0.7319,-0.7428,-0.7506,-0.7672,-0.776,-0.7804,-0.7857,-0.8006,-0.8806,-0.9505,-1.0534,-1.1312,-1.195,-1.2581,-1.2678,-1.2678,-1.2732,-1.278,-1.278,-1.2732,-1.3119,-1.3511,-1.4232,-1.4615,-1.5255,-1.554,-1.573,-1.5825,-1.5825,-1.5825,-1.573,-1.5683,-1.5445,-1.535,-1.5112,-1.501,-1.5016,-1.4921,-1.4777,-1.4627,-1.4682,-1.458,-1.4292,-1.3848,-1.3162,-1.2479,-1.1858,-1.1429,-1.1091,-1.0893,-1.0687,-1.0974,-1.1327,-1.1987,-1.2678,-1.3015,-1.3347,-1.3614,-1.3611,-1.3225,-1.3034,-1.2811,-1.269,-1.2687,1.573,1.554,1.5261,1.4968,1.458,1.3119,1.2052,1.1219,1.01,0.9122,0.8432,0.8184,0.8084,0.8038,0.7968,0.7877,0.7699,0.7753,0.7712,0.7376,0.6522,0.5281,0.4086,0.2918,0.1683,0.0634,0.0135,0.0,0.0,0.0,0.0,0.0,0.0,0.0,-0.1613,-0.255,-0.3552,-0.4418,-0.5343,-0.6322,-0.669,-0.7073,-0.7451,-0.7475,-0.7516,-0.7543,-0.7465,-0.74,-0.7356,-0.7322,-0.7346,-0.7434,-0.7546,-0.7675,-0.7838,-0.7906,-0.7914,-0.7982,-0.8081,-0.8131,-0.8775,-0.9262,-0.9948,-1.0636,-1.1224,-1.1424,-1.1424,-1.1424,-1.137,-1.137,-1.1419,-1.1858,-1.2441,-1.3162,-1.3794,-1.4382,-1.4962,-1.5105,-1.5105,-1.5201,-1.5201,-1.5248,-1.5255,-1.5112,-1.4867,-1.4532,-1.4196,-1.41,-1.4004,-1.3757,-1.3565,-1.3565,-1.3463,-1.3071,-1.2538,-1.1853,-1.1224,-1.06,-1.0212,-0.9817,-0.9517,-0.9379,-0.9846,-1.0301,-1.0861,-1.1485,-1.2104,-1.2494,-1.262,-1.2507,-1.2165,-1.2054,-1.2026,-1.1959,-1.1869,1.5825,1.5825,1.5825,1.5778,1.554,1.419,1.2877,1.1658,1.0841,0.9862,0.8874,0.8577,0.8283,0.8038,0.7988,0.7894,0.7834,0.7824,0.7736,0.7452,0.6844,0.5688,0.4663,0.3567,0.2265,0.1195,0.0549,0.0,0.0,0.0,0.0,0.0,0.0,0.0,-0.0815,-0.1407,-0.237,-0.3432,-0.4702,-0.5614,-0.6185,-0.7057,-0.7412,-0.753,-0.7604,-0.7655,-0.7587,-0.7512,-0.7506,-0.7485,-0.7478,-0.7594,-0.7706,-0.7811,-0.7913,-0.7938,-0.7982,-0.7985,-0.7988,-0.8041,-0.8088,-0.8478,-0.9019,-0.9715,-1.006,-1.0158,-1.0105,-1.0158,-1.0109,-1.0207,-1.031,-1.0792,-1.1277,-1.1955,-1.2581,-1.3264,-1.3902,-1.4094,-1.41,-1.4094,-1.4094,-1.4094,-1.4046,-1.3998,-1.38,-1.3216,-1.2732,-1.2393,-1.2296,-1.2296,-1.2101,-1.2106,-1.1955,-1.1707,-1.1219,-1.0734,-1.0194,-0.9661,-0.9023,-0.863,-0.8287,-0.8336,-0.8878,-0.9365,-0.9706,-1.032,-1.1231,-1.1515,-1.1462,-1.128,-1.1195,-1.0999,-1.0984,-1.0895,-1.0865,1.5825,1.5825,1.5825,1.5825,1.573,1.5153,1.4274,1.3204,1.2193,1.1028,0.9604,0.9164,0.868,0.8038,0.7988,0.7943,0.7909,0.7892,0.7858,0.7559,0.7171,0.637,0.546,0.4409,0.3069,0.1931,0.1173,0.0,0.0,0.0,0.0,0.0,0.0,0.0,0.0,0.0,-0.1398,-0.2466,-0.3799,-0.4735,-0.5641,-0.6559,-0.7011,-0.7382,-0.7741,-0.7776,-0.7746,-0.7692,-0.7672,-0.7597,-0.7665,-0.776,-0.778,-0.7906,-0.7968,-0.7975,-0.7988,-0.7988,-0.7988,-0.7988,-0.7988,-0.7988,-0.8382,-0.8386,-0.8634,-0.8829,-0.8878,-0.8977,-0.9027,-0.9126,-0.9225,-0.9616,-1.0154,-1.0783,-1.1414,-1.195,-1.2538,-1.2737,-1.2737,-1.2737,-1.2732,-1.2786,-1.2737,-1.2689,-1.2393,-1.1809,-1.1272,-1.093,-1.0636,-1.0685,-1.0685,-1.069,-1.0641,-1.044,-1.0194,-0.9756,-0.9262,-0.8726,-0.8283,-0.7988,-0.8088,-0.8187,-0.8237,-0.8528,-0.9069,-0.9747,-1.0547,-1.0607,-1.0381,-1.0435,-1.0333,-1.0113,-0.99,-0.9921,-0.9953,1.5825,1.5825,1.5825,1.5825,1.5778,1.5689,1.5194,1.4465,1.3355,1.195,1.0632,0.9953,0.9175,0.8432,0.823,0.8089,0.788,0.7928,0.7921,0.7835,0.7501,0.6866,0.609,0.5129,0.3756,0.2595,0.1579,0.0,0.0,0.0,0.0,0.0,0.0,0.0,0.0,0.0,0.0,-0.1528,-0.2631,-0.3667,-0.477,-0.5889,-0.6606,-0.7223,-0.7657,-0.7914,-0.7902,-0.7862,-0.7787,-0.775,-0.7848,-0.7845,-0.7879,-0.7944,-0.7985,-0.7988,-0.7988,-0.7988,-0.7988,-0.7988,-0.7988,-0.7988,-0.7988,-0.8038,-0.8088,-0.8237,-0.8187,-0.8237,-0.8137,-0.8088,-0.8237,-0.8432,-0.9019,-0.9653,-1.0145,-1.0636,-1.0979,-1.1277,-1.1326,-1.1326,-1.1326,-1.138,-1.1331,-1.1277,-1.1126,-1.0636,-1.0194,-0.9801,-0.9509,-0.9316,-0.9316,-0.9316,-0.932,-0.9221,-0.9023,-0.897,-0.8676,-0.8382,-0.8184,-0.7988,-0.7988,-0.8038,-0.8137,-0.8283,-0.8581,-0.9164,-0.9596,-0.9406,-0.928,-0.9357,-0.9402,-0.9157,-0.9035,-0.9136,-0.9138,1.5825,1.5825,1.5825,1.5825,1.5825,1.5778,1.5778,1.5635,1.4286,1.2969,1.1804,1.0939,0.9961,0.9072,0.8673,0.8283,0.8054,0.7978,0.7985,0.7985,0.776,0.7313,0.6709,0.5738,0.4446,0.3113,0.199,0.0,0.0,0.0,0.0,0.0,0.0,0.0,0.0,0.0,0.0,-0.0686,-0.152,-0.2416,-0.3741,-0.502,-0.6229,-0.6822,-0.7481,-0.7975,-0.7944,-0.7946,-0.7889,-0.7936,-0.795,-0.787,-0.7928,-0.7978,-0.7985,-0.7988,-0.7988,-0.7988,-0.7988,-0.7988,-0.7988,-0.7988,-0.7988,-0.7988,-0.7988,-0.7988,-0.7988,-0.7988,-0.7988,-0.7988,-0.8088,-0.8187,-0.8627,-0.892,-0.9262,-0.9558,-0.976,-0.9957,-0.9957,-0.9957,-0.9957,-1.0006,-0.9957,-0.9957,-0.9854,-0.9509,-0.9262,-0.8821,-0.8676,-0.8382,-0.8386,-0.8333,-0.8485,-0.8584,-0.8432,-0.8382,-0.8233,-0.8038,-0.7988,-0.7988,-0.7988,-0.7988,-0.7988,-0.8187,-0.8333,-0.8187,-0.8333,-0.8432,-0.8531,-0.8482,-0.8428,-0.8184,-0.8171,-0.8418,-0.8534,1.5825,1.5825,1.5825,1.5825,1.5825,1.5825,1.5825,1.5784,1.5302,1.437,1.3301,1.2242,1.1028,0.9756,0.9167,0.8676,0.8088,0.7988,0.7988,0.7988,0.7889,0.7773,0.7437,0.647,0.5152,0.3846,0.2661,0.1334,0.0,0.0,0.0,0.0,0.0,0.0,0.0,0.0,0.0,0.0,0.0,0.0,-0.2918,-0.4429,-0.5729,-0.6531,-0.7335,-0.7939,-0.7971,-0.7965,-0.7948,-0.7968,-0.7961,-0.7961,-0.7988,-0.7988,-0.7988,-0.7988,-0.7988,-0.7988,-0.7988,-0.7988,-0.7988,-0.7988,-0.7988,-0.7988,-0.7988,-0.7988,-0.7988,-0.7988,-0.7988,-0.7988,-0.8038,-0.8088,-0.8137,-0.8283,-0.8428,-0.8581,-0.873,-0.868,-0.868,-0.868,-0.868,-0.868,-0.8733,-0.8684,-0.8535,-0.8432,-0.8382,-0.8237,-0.8283,-0.8137,-0.8137,-0.8137,-0.8088,-0.8137,-0.7988,-0.7988,-0.7988,-0.7988,-0.7988,-0.7988,-0.7988,-0.7988,-0.7988,-0.7988,-0.8038,-0.7988,-0.7988,-0.8038,-0.8088,-0.7988,-0.7988,-0.7988,-0.7988,-0.8167,-0.8188,1.5825,1.5825,1.5825,1.5825,1.5825,1.5825,1.5825,1.5784,1.5683,1.5289,1.4561,1.3258,1.1804,1.0386,0.9657,0.8825,0.8137,0.7988,0.7988,0.7988,0.7988,0.7988,0.759,0.6989,0.5703,0.438,0.2453,0.1051,0.0297,0.0,0.0,0.0,0.0,0.0,0.0,0.0,0.0,0.0,0.0,0.0,-0.2219,-0.3673,-0.5127,-0.6082,-0.7135,-0.7789,-0.7988,-0.7988,-0.7988,-0.7988,-0.7982,-0.7982,-0.7988,-0.7988,-0.7988,-0.7988,-0.7988,-0.7988,-0.7988,-0.7988,-0.7988,-0.7988,-0.7988,-0.7988,-0.7988,-0.7988,-0.7988,-0.7988,-0.7988,-0.7988,-0.7988,-0.8038,-0.8038,-0.8134,-0.8184,-0.8237,-0.8287,-0.8287,-0.8287,-0.8287,-0.8287,-0.8287,-0.8287,-0.8287,-0.8187,-0.8187,-0.8038,-0.8038,-0.7988,-0.7988,-0.7988,-0.7988,-0.7988,-0.7988,-0.7988,-0.7988,-0.7988,-0.7988,-0.7988,-0.7988,-0.7988,-0.7988,-0.7988,-0.7988,-0.7988,-0.7988,-0.7988,-0.7988,-0.7988,-0.7988,-0.7988,-0.7988,-0.7988,-0.7988,-0.8038,1.5765,1.5724,1.5772,1.5751,1.5825,1.5825,1.5825,1.5778,1.5825,1.5778,1.5493,1.3986,1.2436,1.1121,1.0047,0.9019,0.8283,0.8038,0.7988,0.7988,0.7988,0.7988,0.7739,0.7188,0.5919,0.4303,0.2405,0.1359,0.0553,0.0,0.0,0.0,0.0,0.0,0.0,0.0,0.0,0.0,0.0,0.0,-0.1613,-0.2918,-0.4325,-0.5682,-0.6939,-0.7793,-0.7939,-0.7988,-0.7988,-0.7988,-0.7988,-0.7988,-0.7988,-0.7988,-0.7988,-0.7988,-0.7988,-0.7988,-0.7988,-0.7988,-0.7988,-0.7988,-0.7988,-0.7988,-0.7988,-0.7988,-0.7988,-0.7988,-0.7988,-0.7988,-0.7988,-0.7988,-0.7988,-0.7988,-0.7988,-0.7988,-0.7988,-0.7988,-0.7988,-0.7988,-0.7988,-0.7988,-0.7988,-0.7988,-0.7988,-0.7988,-0.7988,-0.7988,-0.7988,-0.7988,-0.7988,-0.7988,-0.7988,-0.7988,-0.7988,-0.7988,-0.7988,-0.7988,-0.7988,-0.7988,-0.7988,-0.7988,-0.7988,-0.7988,-0.7988,-0.7988,-0.7988,-0.7988,-0.7988,-0.7988,-0.7988,-0.7988,-0.7988,-0.7988,-0.7988,1.5478,1.5478,1.5484,1.5605,1.5798,1.5825,1.5825,1.5825,1.5825,1.5825,1.5588,1.4825,1.3414,1.1658,1.0694,0.9517,0.8283,0.8088,0.7988,0.7988,0.7988,0.7988,0.7789,0.7238,0.6034,0.441,0.2745,0.1692,0.0906,0.0,0.0,0.0,0.0,0.0,0.0,0.0,0.0,0.0,0.0,-0.0303,-0.111,-0.2368,-0.3776,-0.5133,-0.6487,-0.7241,-0.7643,-0.7892,-0.7939,-0.7988,-0.7988,-0.7988,-0.7988,-0.7988,-0.7988,-0.7988,-0.7988,-0.7988,-0.7988,-0.7988,-0.7988,-0.7988,-0.7988,-0.7988,-0.7988,-0.7988,-0.7988,-0.7988,-0.7988,-0.7988,-0.7988,-0.7988,-0.7988,-0.7988,-0.7988,-0.7988,-0.7988,-0.7988,-0.7988,-0.7988,-0.7988,-0.7988,-0.7988,-0.7988,-0.7988,-0.7988,-0.7988,-0.7988,-0.7988,-0.7988,-0.7988,-0.7988,-0.7988,-0.7988,-0.7988,-0.7988,-0.7988,-0.7988,-0.7988,-0.7988,-0.7988,-0.7988,-0.7988,-0.7988,-0.7988,-0.7988,-0.7988,-0.7988,-0.7988,-0.7988,-0.7988,-0.7988,-0.7988,-0.7988,-0.7988]}]]